[[{"header":{"parameterUnit":"m.s-1","parameterCategory":1,"la1":30.6,"la2":29.2853,"lo1":-89.7004,"lo2":-87.6739,"dx":0.0162,"dy":0.0183,"nx":112,"ny":82,"refTime":"2023-02-04T06:00:00:Z","depth":0,"parameterNumber":2,"parameterNumberName":"U-component_of_WINDS"},"data":[0.0,0.0,0.0,0.0,0.0,0.0,0.0,0.0,0.0,0.0,0.0,0.0,0.0,0.0,0.0,0.0,0.0,0.0,0.0,0.0,0.0,0.0,0.0,0.0,0.0,0.0,0.0,0.0,0.0,0.0,0.0,0.0,0.0,0.0,0.0,0.0,0.0,0.0,0.0,0.0,0.0,0.0,0.0,0.0,0.0,0.0,0.0,0.0,0.0,0.0,0.0,0.0,0.0,0.0,0.0,0.0,0.0,0.0,0.0,0.0,0.0,0.0,0.0,0.0,0.0,0.0,0.0,0.0,0.0,0.0,0.0,0.0,0.0,0.0,0.0,0.0,0.0,0.0,0.0,0.0,0.0,0.0,0.0,0.0,0.0,0.0,0.0,0.0,0.0,0.0,0.0,1.6839,1.8842,1.9927,1.9545,1.9381,1.853,1.674,0.0,0.0,0.0,0.0,0.0,0.0,0.0,0.0,0.0,0.0,0.0,0.0,0.0,0.0,0.0,0.0,0.0,0.0,0.0,0.0,0.0,0.0,0.0,0.0,0.0,0.0,0.0,0.0,0.0,0.0,0.0,0.0,0.0,0.0,0.0,0.0,0.0,0.0,0.0,0.0,0.0,0.0,0.0,0.0,0.0,0.0,0.0,0.0,0.0,0.0,0.0,0.0,0.0,0.0,0.0,0.0,0.0,0.0,0.0,0.0,0.0,0.0,0.0,0.0,0.0,0.0,0.0,0.0,0.0,0.0,0.0,0.0,0.0,0.0,0.0,0.0,0.0,0.0,0.0,0.0,0.0,0.0,0.0,0.0,0.0,0.0,0.0,0.0,0.0,0.0,0.0,0.0,0.0,0.0,0.0,0.0,0.0,0.0,0.0,0.0,0.0,0.0,0.0,0.0,1.7236,1.8785,1.9649,2.0069,1.9993,1.9261,1.8341,1.7248,0.0,0.0,0.0,0.0,0.0,0.0,0.0,0.0,0.0,0.0,0.0,0.0,0.0,0.0,0.0,0.0,0.0,0.0,0.0,0.0,0.0,0.0,0.0,0.0,0.0,0.0,0.0,0.0,0.0,0.0,0.0,0.0,0.0,0.0,0.0,0.0,0.0,0.0,0.0,0.0,0.0,0.0,0.0,0.0,0.0,0.0,0.0,0.0,0.0,0.0,0.0,0.0,0.0,0.0,0.0,0.0,0.0,0.0,0.0,0.0,0.0,0.0,0.0,0.0,0.0,0.0,0.0,0.0,0.0,0.0,0.0,0.0,0.0,0.0,0.0,0.0,0.0,0.0,0.0,0.0,0.0,0.0,0.0,0.0,0.0,0.0,0.0,0.0,0.0,0.0,0.0,0.0,0.0,0.0,0.0,0.0,0.0,0.0,0.0,0.0,0.0,0.0,0.0,1.6925,1.7796,1.9589,1.996,2.0102,2.0102,1.9239,1.8298,1.7361,1.6208,0.0,0.0,0.0,0.0,0.0,0.0,0.0,0.0,0.0,0.0,0.0,0.0,0.0,0.0,0.0,0.0,0.0,0.0,0.0,0.0,0.0,0.0,0.0,0.0,0.0,0.0,0.0,0.0,0.0,0.0,0.0,0.0,0.0,0.0,0.0,0.0,0.0,0.0,0.0,0.0,0.0,0.0,0.0,0.0,0.0,0.0,0.0,0.0,0.0,0.0,0.0,0.0,0.0,0.0,0.0,0.0,0.0,0.0,0.0,0.0,0.0,0.0,0.0,0.0,0.0,0.0,0.0,0.0,0.0,0.0,0.0,0.0,0.0,0.0,0.0,0.0,0.0,0.0,0.0,0.0,0.0,0.0,0.0,0.0,0.0,0.0,0.0,0.0,0.0,0.0,0.0,0.0,0.0,0.0,0.0,0.0,0.0,0.0,0.0,0.0,0.0,0.0,1.7802,1.8436,2.0107,2.038,2.0358,2.0113,1.9239,1.8243,1.7183,1.589,0.0,0.0,0.0,0.0,0.0,0.0,0.0,0.0,0.0,0.0,0.0,0.0,0.0,0.0,0.0,0.0,0.0,0.0,0.0,0.0,0.0,0.0,0.0,0.0,0.0,0.0,0.0,0.0,0.0,0.0,0.0,0.0,0.0,0.0,0.0,0.0,0.0,0.0,0.0,0.0,0.0,0.0,0.0,0.0,0.0,0.0,0.0,0.0,0.0,0.0,0.0,0.0,0.0,0.0,0.0,0.0,0.0,0.0,0.0,0.0,0.0,0.0,0.0,0.0,0.0,0.0,0.0,0.0,0.0,0.0,0.0,0.0,0.0,0.0,0.0,0.0,0.0,0.0,0.0,0.0,0.0,0.0,0.0,0.0,0.0,0.0,0.0,0.0,0.0,0.0,0.0,0.0,0.0,0.0,0.0,0.0,0.0,0.0,0.0,0.0,0.0,0.0,1.8458,1.9659,2.073,2.1227,2.1123,2.0178,1.9239,1.8086,1.6653,1.5643,0.0,0.0,0.0,0.0,0.0,0.0,0.0,0.0,0.0,0.0,0.0,0.0,0.0,0.0,0.0,0.0,0.0,0.0,0.0,0.0,0.0,0.0,0.0,0.0,0.0,0.0,0.0,0.0,0.0,0.0,0.0,0.0,0.0,0.0,0.0,0.0,0.0,0.0,0.0,0.0,0.0,0.0,0.0,0.0,0.0,0.0,0.0,0.0,0.0,0.0,0.0,0.0,0.0,0.0,0.0,0.0,0.0,0.0,0.0,0.0,0.0,0.0,0.0,0.0,0.0,0.0,0.0,0.0,0.0,0.0,0.0,0.0,0.0,0.0,0.0,0.0,0.0,0.0,0.0,0.0,0.0,0.0,0.0,0.0,0.0,0.0,0.0,0.0,0.0,0.0,0.0,0.0,0.0,0.0,0.0,0.0,0.0,0.0,0.0,0.0,0.0,0.0,1.8276,1.9467,0.0,2.1315,2.1336,2.067,1.9703,1.8639,1.7504,0.0,0.0,0.0,0.0,0.0,0.0,0.0,0.0,0.0,0.0,0.0,0.0,0.0,0.0,0.0,0.0,0.0,0.0,0.0,0.0,0.0,0.0,0.0,0.0,0.0,0.0,0.0,0.0,0.0,0.0,0.0,0.0,0.0,0.0,0.0,0.0,0.0,0.0,0.0,0.0,0.0,0.0,0.0,0.0,0.0,0.0,0.0,0.0,0.0,0.0,0.0,0.0,0.0,0.0,0.0,0.0,0.0,0.0,0.0,0.0,0.0,0.0,0.0,0.0,0.0,0.0,0.0,0.0,0.0,0.0,0.0,0.0,0.0,0.0,0.0,0.0,0.0,0.0,0.0,0.0,0.0,0.0,0.0,0.0,0.0,0.0,0.0,0.0,0.0,0.0,0.0,0.0,0.0,0.0,0.0,0.0,0.0,0.0,0.0,0.0,0.0,0.0,1.7167,1.8531,1.9839,0.0,2.1675,2.1658,2.0735,1.9888,1.8857,1.7602,0.0,0.0,0.0,0.0,0.0,0.0,0.0,0.0,0.0,0.0,0.0,0.0,0.0,0.0,0.0,0.0,0.0,0.0,0.0,0.0,0.0,0.0,0.0,0.0,0.0,0.0,0.0,0.0,0.0,0.0,0.0,0.0,0.0,0.0,0.0,0.0,0.0,0.0,0.0,0.0,0.0,0.0,0.0,0.0,0.0,0.0,0.0,0.0,0.0,0.0,0.0,0.0,0.0,0.0,0.0,0.0,0.0,0.0,0.0,0.0,0.0,0.0,0.0,0.0,0.0,0.0,0.0,0.0,0.0,0.0,0.0,0.0,0.0,0.0,0.0,0.0,0.0,0.0,0.0,0.0,0.0,0.0,0.0,0.0,0.0,0.0,0.0,0.0,0.0,0.0,0.0,0.0,0.0,0.0,0.0,0.0,0.0,0.0,0.0,0.0,0.0,0.0,1.7237,1.9406,2.108,2.1566,2.2433,2.2226,2.0265,1.9682,1.8585,0.0,0.0,0.0,0.0,0.0,0.0,0.0,0.0,0.0,0.0,0.0,0.0,0.0,0.0,0.0,0.0,0.0,0.0,0.0,0.0,0.0,0.0,0.0,0.0,0.0,0.0,0.0,0.0,0.0,0.0,0.0,0.0,0.0,0.0,0.0,0.0,0.0,0.0,0.0,0.0,0.0,0.0,0.0,0.0,0.0,0.0,0.0,0.0,0.0,0.0,0.0,0.0,0.0,0.0,0.0,0.0,0.0,0.0,0.0,0.0,0.0,0.0,0.0,0.0,0.0,0.0,0.0,0.0,0.0,0.0,0.0,0.0,0.0,0.0,0.0,0.0,0.0,0.0,0.0,0.0,0.0,0.0,0.0,0.0,0.0,0.0,0.0,0.0,0.0,0.0,0.0,0.0,0.0,0.0,0.0,0.0,0.0,0.0,0.0,0.0,0.0,0.0,0.0,1.8101,1.9495,2.0789,2.1974,2.2641,2.2368,2.0801,2.0189,1.9224,1.7657,0.0,0.0,0.0,0.0,0.0,0.0,0.0,0.0,0.0,0.0,0.0,0.0,0.0,0.0,0.0,0.0,0.0,0.0,0.0,0.0,0.0,0.0,0.0,0.0,0.0,0.0,0.0,0.0,0.0,0.0,0.0,0.0,0.0,0.0,0.0,0.0,0.0,0.0,0.0,0.0,0.0,0.0,0.0,0.0,0.0,0.0,0.0,0.0,0.0,0.0,0.0,0.0,0.0,0.0,0.0,0.0,0.0,0.0,0.0,0.0,0.0,0.0,0.0,0.0,0.0,0.0,0.0,0.0,0.0,0.0,0.0,0.0,0.0,0.0,0.0,0.0,0.0,0.0,0.0,0.0,0.0,0.0,0.0,0.0,0.0,0.0,0.0,0.0,0.0,0.0,0.0,0.0,0.0,0.0,0.0,0.0,0.0,0.0,0.0,0.0,0.0,0.0,1.8505,1.9861,2.1116,2.2186,2.2728,2.244,2.1015,2.0407,1.9496,1.8083,0.0,0.0,0.0,0.0,0.0,0.0,0.0,0.0,0.0,0.0,0.0,0.0,0.0,0.0,0.0,0.0,0.0,0.0,0.0,0.0,0.0,0.0,0.0,0.0,0.0,0.0,0.0,0.0,0.0,0.0,0.0,0.0,0.0,0.0,0.0,0.0,0.0,0.0,0.0,0.0,0.0,0.0,0.0,0.0,0.0,0.0,0.0,0.0,0.0,0.0,0.0,0.0,0.0,0.0,0.0,0.0,0.0,0.0,0.0,0.0,0.0,0.0,0.0,0.0,0.0,0.0,0.0,0.0,0.0,0.0,0.0,0.0,0.0,0.0,0.0,0.0,0.0,0.0,0.0,0.0,0.0,0.0,0.0,0.0,0.0,0.0,0.0,0.0,0.0,0.0,0.0,0.0,0.0,0.0,0.0,0.0,0.0,0.0,0.0,0.0,0.0,0.0,1.8698,2.0418,2.1745,2.2306,2.2761,2.244,2.1015,2.0407,1.9518,1.8152,0.0,0.0,0.0,0.0,0.0,0.0,0.0,0.0,0.0,0.0,0.0,0.0,0.0,0.0,0.0,0.0,0.0,0.0,0.0,0.0,0.0,0.0,0.0,0.0,0.0,0.0,0.0,0.0,0.0,0.0,0.0,0.0,0.0,0.0,0.0,0.0,0.0,0.0,0.0,0.0,0.0,0.0,0.0,0.0,0.0,0.0,0.0,0.0,0.0,0.0,0.0,0.0,0.0,0.0,0.0,0.0,0.0,0.0,0.0,0.0,1.2358,0.0,0.0,0.0,0.0,0.0,0.0,0.0,0.0,0.0,0.0,0.0,0.0,0.0,0.0,0.0,0.0,0.0,0.0,0.0,0.0,0.0,0.0,0.0,0.0,0.0,0.0,0.0,0.0,0.0,0.0,0.0,0.0,0.0,0.0,0.0,0.0,0.0,0.0,0.0,0.0,0.0,1.9584,2.0522,2.15,2.2728,2.2936,2.244,2.1015,2.0407,1.966,1.8611,0.0,0.0,0.0,0.0,0.0,0.0,0.0,0.0,0.0,0.0,0.0,0.0,0.0,0.0,0.0,0.0,0.0,0.0,0.0,0.0,0.0,0.0,0.0,0.0,0.0,0.0,0.0,0.0,0.0,0.0,0.0,0.0,0.0,0.0,0.0,0.0,0.0,0.0,0.0,0.0,0.0,0.0,0.0,0.0,0.0,0.0,0.0,0.0,0.0,0.0,0.0,0.0,0.0,0.0,0.0,0.0,0.0,0.0,0.0,0.0,0.0,1.3107,0.0,0.0,0.0,0.0,0.0,0.0,0.0,0.0,0.0,0.0,0.0,0.0,0.0,0.0,0.0,0.0,0.0,0.0,0.0,0.0,0.0,0.0,0.0,0.0,0.0,0.0,0.0,0.0,0.0,0.0,0.0,0.0,0.0,0.0,0.0,0.0,0.0,0.0,0.0,0.0,2.0271,2.1112,2.1931,2.2903,2.3001,2.251,2.1343,2.0762,1.9976,1.8779,1.8191,0.0,0.0,0.0,0.0,0.0,0.0,0.0,0.0,0.0,0.0,0.0,0.0,0.0,0.0,0.0,0.0,0.0,0.0,0.0,0.0,0.0,0.0,0.0,0.0,0.0,0.0,0.0,0.0,0.0,0.0,0.0,0.0,0.0,0.0,0.0,0.0,0.0,0.0,0.0,0.0,0.0,0.0,0.0,0.0,0.0,0.0,0.0,0.0,0.0,0.0,0.0,0.0,0.0,0.0,0.0,1.4912,1.4912,1.5096,1.5359,1.4359,1.3809,1.3607,0.0,0.0,0.0,0.0,0.0,0.0,0.0,0.0,0.0,0.0,0.0,0.0,0.0,0.0,0.0,0.0,0.0,0.0,0.0,0.0,0.0,0.0,0.0,0.0,0.0,1.8665,1.8709,0.0,0.0,0.0,0.0,0.0,0.0,0.0,0.0,0.0,0.0,0.0,0.0,2.0582,2.1669,2.2481,2.2957,2.3001,2.2652,2.1789,2.1222,2.038,1.9161,1.848,1.7861,0.0,0.0,0.0,0.0,0.0,0.0,0.0,0.0,0.0,0.0,0.0,0.0,0.0,0.0,0.0,0.0,0.0,0.0,0.0,0.0,0.0,0.0,0.0,0.0,0.0,0.0,0.0,0.0,0.0,0.0,0.0,0.0,1.0228,1.0285,0.0,0.0,0.0,0.0,0.0,0.0,0.0,0.0,0.0,0.0,0.0,0.0,0.0,0.0,1.4335,1.538,1.5929,1.5984,1.634,1.6532,1.657,1.657,1.6598,1.6644,1.6496,0.0,1.4836,1.4497,0.0,0.0,0.0,0.0,0.0,0.0,0.0,0.0,0.0,0.0,0.0,0.0,0.0,0.0,0.0,0.0,0.0,0.0,0.0,0.0,0.0,0.0,1.8731,1.9616,1.9862,1.9769,0.0,1.8476,1.7791,1.7383,0.0,0.0,0.0,0.0,0.0,0.0,0.0,0.0,2.0129,2.1426,2.2481,2.2957,2.3001,2.2783,2.2251,2.1402,2.0818,2.0621,1.9347,1.8518,1.8313,1.7652,0.0,0.0,0.0,0.0,0.0,0.0,0.0,0.0,0.0,0.0,0.0,0.0,0.0,0.0,0.0,0.0,0.0,0.0,0.0,0.0,0.0,0.0,0.0,0.0,0.0,0.0,0.0,0.0,0.0,0.9958,1.0396,1.0658,1.135,1.1918,0.0,0.0,0.0,0.0,0.0,0.0,0.0,0.0,0.0,1.4681,1.5226,1.5521,1.5511,1.6268,1.6641,1.665,1.705,1.7367,1.7569,1.7569,1.7569,1.7569,1.7569,1.7156,1.6376,1.5524,1.4937,1.4524,0.0,0.0,0.0,0.0,0.0,1.4579,1.4625,0.0,0.0,0.0,0.0,0.0,0.0,0.0,0.0,0.0,0.0,0.0,0.0,0.0,0.0,2.0428,2.0653,2.0681,2.0325,1.9926,1.9325,0.0,1.7868,1.7682,1.7682,0.0,0.0,0.0,0.0,0.0,2.1597,2.2794,2.3613,2.382,2.3561,2.3201,2.2721,2.1973,2.1205,2.0494,1.9748,1.9057,1.8462,1.8463,1.8301,0.0,0.0,0.0,0.0,0.0,0.0,0.0,0.0,0.0,0.0,0.0,0.0,0.0,0.0,0.0,0.0,0.0,0.0,0.0,0.0,0.0,0.0,0.0,0.0,0.0,0.0,0.0,0.0,1.0245,1.0769,1.1153,1.1751,1.2266,0.0,0.0,0.0,0.0,0.0,0.0,1.3607,1.4561,1.5232,1.5557,1.6111,1.6456,1.6581,1.7171,1.7495,1.7494,1.8023,1.8411,1.8714,1.8613,1.8567,1.8567,1.8567,1.8274,1.7724,1.6623,1.5918,1.5533,1.5224,1.5105,0.0,1.546,1.556,1.5606,1.59,1.6017,1.5955,1.5661,0.0,1.5505,1.5196,0.0,0.0,0.0,0.0,1.8723,1.9796,0.0,2.0984,2.1446,2.1549,2.1537,2.1396,2.1354,2.0891,0.0,1.877,1.8541,1.8541,0.0,0.0,0.0,0.0,2.1675,2.2848,2.3875,2.4506,2.4506,2.4148,2.3738,2.3311,2.2612,2.1757,2.0761,2.0,1.9282,1.858,1.8583,1.8459,0.0,0.0,0.0,0.0,0.0,0.0,0.0,0.0,0.0,0.0,0.0,0.0,0.0,0.0,0.0,0.0,0.0,0.0,0.0,0.0,0.0,0.0,0.0,0.0,0.0,0.0,0.0,0.0,0.0,0.0,1.173,1.2506,0.0,0.0,0.0,0.0,1.3505,1.3577,1.4013,1.4951,1.5053,1.5454,1.6237,1.6522,1.6891,1.7329,1.8501,1.9088,1.9094,1.9945,2.0353,2.0363,1.9987,1.9822,1.9822,1.9822,1.9373,1.8586,1.7752,1.7165,1.6817,1.6798,1.6789,1.6772,1.679,1.6817,1.6817,1.6835,1.6844,1.6844,1.6826,1.6817,1.6817,1.6789,1.7106,0.0,0.0,1.8924,2.0118,2.15,2.1897,2.215,2.3058,2.2787,2.2392,2.2565,2.2616,2.2106,0.0,2.0004,1.9993,1.9993,0.0,2.0167,2.0741,2.1625,2.2415,2.2936,2.3875,2.4506,2.4506,2.4484,2.4353,2.4072,2.3209,2.2563,2.2302,2.0232,1.9026,1.8968,1.7349,1.7052,1.8358,1.7502,0.0,0.0,0.0,0.0,0.0,0.0,0.0,0.0,0.0,0.0,0.0,0.0,0.0,0.0,0.0,0.0,0.0,0.0,0.0,0.0,0.0,0.0,0.0,0.0,0.0,0.0,0.0,0.0,1.2404,1.3136,0.0,0.0,1.3767,1.3905,1.3919,1.4325,1.4736,1.5145,1.5566,1.618,1.6978,1.7307,1.7663,1.8052,1.9073,1.9273,1.8693,1.9604,1.9887,1.9593,1.944,1.9556,1.9838,1.9838,1.9843,1.9831,1.9558,1.8586,1.7284,1.7284,1.7284,1.7348,1.7871,1.8054,1.8109,1.8357,1.8449,1.8366,1.7834,1.7504,1.7284,1.7284,1.7575,1.8079,1.8841,1.9556,2.035,2.1513,2.194,2.2166,2.2656,2.2476,2.2264,2.2453,2.2523,2.2329,2.1696,2.1547,2.1531,2.1531,2.1269,2.1341,2.2116,2.2786,2.3495,2.432,2.4634,2.4763,2.4763,2.3795,2.3113,2.2999,2.1789,2.0919,2.0673,1.9571,1.8812,1.85,1.8284,1.847,1.911,1.9174,1.9401,0.0,0.0,0.0,0.0,0.0,0.0,0.0,0.0,0.0,0.0,0.0,0.0,0.0,0.0,0.0,0.0,0.0,0.0,0.0,0.0,0.0,0.0,0.0,0.0,0.0,0.0,1.2878,1.3344,1.3961,1.4367,1.4462,1.4559,1.4653,1.479,1.511,1.5485,1.5903,1.6335,1.6928,1.7701,1.7925,1.8223,1.8594,1.9348,1.9429,1.8798,1.9604,1.9809,1.9495,1.9366,1.9566,2.0005,2.0005,2.0182,2.0509,2.0647,1.9842,1.8513,1.8513,1.8513,1.8586,1.9098,1.93,1.9346,1.9602,1.9622,1.9448,1.9044,1.8631,1.8339,1.8476,1.8695,1.9076,1.9829,2.0439,2.1067,2.1861,2.2201,2.2368,2.2491,2.2244,2.2143,2.2734,2.2873,2.3018,2.3484,2.3099,2.2668,2.2668,2.2624,2.2845,2.3613,2.4017,2.4489,2.5235,2.5208,2.5094,2.5009,2.3721,2.2799,2.2588,2.1301,2.0302,1.9823,1.914,1.8524,1.7983,1.8113,1.8391,1.8813,1.9657,2.0323,2.0771,0.0,0.0,0.0,0.0,0.0,0.0,0.0,0.0,0.0,0.0,0.0,0.0,0.0,0.0,0.0,0.0,0.0,0.0,0.0,0.0,0.0,0.0,0.0,1.2846,1.3492,1.4129,1.4614,1.5038,1.5279,1.5271,1.4917,1.5139,1.6166,1.5944,1.6226,1.726,1.7339,1.7661,1.8395,1.8366,1.8559,1.9014,1.9412,1.9608,1.9569,2.0056,2.0269,2.0238,1.9857,1.9929,2.0382,2.0382,2.042,2.0543,2.0949,2.0875,2.0537,2.0518,2.0518,2.0518,2.0527,2.0537,2.0537,2.0537,2.028,1.9994,2.039,2.0262,2.0014,2.0399,2.0527,2.0619,2.1016,2.1623,2.2265,2.2666,2.2781,2.2794,2.2781,2.2252,2.21,2.3432,2.3714,2.4124,2.5506,2.4446,2.3376,2.3457,2.4071,2.4683,2.514,2.5217,0.0,2.5505,2.5517,2.5401,2.5158,2.4284,2.3459,2.2883,2.1848,2.0862,1.9966,1.8979,1.8159,1.7494,1.6681,1.6678,1.7542,1.8705,2.014,2.1839,0.0,0.0,0.0,0.0,0.0,0.0,0.0,0.0,0.0,0.0,0.0,0.0,0.0,0.0,0.0,0.0,0.0,0.0,0.0,0.0,0.0,0.0,1.3729,1.4065,1.495,1.5717,1.6067,1.669,1.6989,1.6751,1.6846,1.6929,1.6997,1.735,1.7618,1.7657,1.812,1.8491,1.8684,1.896,1.9167,1.9292,1.9746,1.9656,1.9035,1.9531,1.96,1.9211,1.9099,1.9338,1.9813,1.9813,2.0217,2.0864,2.0984,2.1152,2.1352,2.105,2.0943,2.0958,2.1269,2.1379,2.1379,2.1379,2.1104,2.0784,2.0906,2.0848,2.0784,2.0894,2.1132,2.1376,2.1508,2.1677,2.1859,2.1971,2.2407,2.2671,2.2141,2.2274,2.2463,2.2321,2.2015,2.1983,2.2709,2.2585,2.3001,2.488,2.5254,2.535,2.5469,0.0,0.0,2.4371,2.3833,2.3456,2.3391,2.2416,2.1596,2.1182,2.03,1.9276,0.0,1.7507,1.7106,1.6932,1.7291,1.7911,1.8782,1.9118,1.9684,0.0,0.0,0.0,0.0,0.0,0.0,0.0,0.0,0.0,0.0,0.0,0.0,0.0,0.0,0.0,0.0,0.0,0.0,0.0,0.0,0.0,0.0,1.4248,1.5129,1.583,1.6357,1.6841,1.7305,1.7747,1.7999,1.793,1.7991,1.7991,1.793,1.816,1.8271,1.8216,1.8748,1.9058,1.9058,1.9423,1.9606,1.9606,1.9877,1.9764,1.9264,1.9586,1.949,1.9058,1.9058,1.9241,0.0,1.9592,2.0138,2.0997,2.0997,2.1275,0.0,0.0,0.0,0.0,0.0,2.1696,2.1696,2.1696,2.1553,2.1352,2.1352,2.1352,2.1352,2.1352,2.1517,2.1696,2.1696,2.1696,2.1696,2.1696,2.203,2.2176,2.1566,2.1878,2.2242,2.1891,2.1615,2.1583,2.2179,0.0,0.0,2.4498,2.4967,2.5073,2.4882,2.5041,2.4978,0.0,2.3531,2.2955,2.2867,2.1574,2.0561,2.0197,1.9351,0.0,0.0,0.0,1.6876,1.6718,1.77,0.0,0.0,0.0,2.0743,0.0,0.0,0.0,0.0,2.421,2.4261,0.0,0.0,0.0,0.0,0.0,0.0,0.0,0.0,0.0,0.0,0.0,0.0,0.0,0.0,0.0,0.0,1.5603,1.6706,1.7816,1.7721,1.7745,1.8287,1.8359,1.8463,1.8773,1.8519,1.8486,1.8781,1.8573,1.8557,1.8852,0.0,0.0,0.0,0.0,1.9948,1.9948,1.9948,1.9932,1.9892,1.9892,1.9733,1.9455,1.9455,1.9507,1.9566,1.9566,2.0067,2.084,2.084,2.1154,2.162,2.1674,2.1696,2.1696,2.1696,2.1696,0.0,0.0,0.0,0.0,2.1696,2.1696,2.1696,2.1696,2.1696,2.1696,2.1696,2.1696,2.1696,2.162,2.1709,2.1687,2.1132,2.1387,2.1767,2.1872,2.1863,2.1996,2.2658,2.3117,2.3248,2.279,2.3639,2.421,2.3757,2.4317,0.0,2.4413,2.3596,2.2977,2.2802,0.0,0.0,1.9735,1.8935,1.8127,1.7395,1.7355,1.7233,1.6989,1.7958,1.891,1.9768,2.0844,2.2204,2.3836,2.3449,2.4084,2.5654,2.4712,2.4869,0.0,0.0,0.0,0.0,0.0,0.0,0.0,0.0,0.0,0.0,0.0,0.0,0.0,0.0,0.0,1.5975,1.6724,1.7562,1.8898,1.9033,1.893,1.8725,1.8701,1.8733,1.8796,1.8741,1.8733,1.8804,1.9042,1.9216,1.9288,1.9606,0.0,2.0211,2.0282,2.0289,2.0289,2.0289,2.0171,1.9892,0.0,0.0,1.9797,1.9797,1.9678,1.9429,1.9429,1.9603,1.9866,1.9866,2.0365,2.1177,2.1553,2.1696,2.1696,2.1696,2.1696,2.1696,2.1696,2.1696,2.1696,2.1696,2.1696,2.1696,2.1696,2.1696,0.0,2.1696,2.1696,2.1597,2.1221,2.1856,2.2331,2.1244,2.1472,2.1806,2.1293,2.0907,2.0659,2.0817,2.0907,2.0831,2.0357,2.2132,2.3456,2.2977,2.2614,2.2085,2.1297,2.1029,2.0872,2.0858,2.052,2.0148,1.9735,1.9525,1.8943,1.7786,1.7697,1.7989,1.8599,1.8196,1.8683,2.0228,2.0187,2.0658,2.1702,2.3049,2.386,2.421,2.4586,2.5168,0.0,0.0,0.0,0.0,0.0,0.0,0.0,0.0,0.0,0.0,0.0,1.2357,0.0,0.0,1.6076,1.7516,1.8089,1.8652,1.9519,1.9503,1.9391,1.9344,1.9344,1.928,1.9121,1.9248,1.9201,1.8828,1.9169,1.9399,1.9399,1.9709,2.0051,2.0377,2.0567,2.0655,2.0655,2.0655,2.0567,2.0392,2.0392,2.0297,2.0155,2.0155,1.9964,1.9646,1.9646,1.9724,1.9857,1.9927,2.0238,2.0668,2.0902,2.1284,2.1696,2.1696,2.1553,2.1342,2.1342,2.1195,2.1037,2.1275,2.1342,2.1387,2.162,2.1696,2.1642,2.141,2.153,2.1597,2.1109,2.1445,2.17,2.0848,2.1078,2.1271,2.047,2.0306,2.0224,1.9988,2.0138,2.0161,1.9683,2.0858,2.1778,2.1534,2.1619,2.1539,2.106,2.0588,2.0294,2.0294,1.9849,1.9472,1.9268,1.9109,1.8654,1.786,1.796,1.8254,1.8671,1.8711,1.9259,2.0472,2.0756,2.1304,2.2091,2.3227,2.3994,2.437,2.4722,2.5274,0.0,0.0,0.0,0.0,0.0,0.0,0.0,0.0,0.9972,1.1418,1.2712,1.4042,1.5559,1.6797,1.7898,1.8867,1.9304,1.963,2.0036,1.9805,1.9694,1.9956,1.9877,1.9717,1.9511,1.967,1.9614,1.9138,1.928,1.9487,1.9686,1.9821,2.0083,2.048,2.071,2.0828,2.0899,2.0899,2.0899,2.0899,2.0899,2.0774,2.0496,2.0496,2.0297,1.9988,1.9853,1.991,2.0055,2.0119,2.0217,2.0368,2.0368,2.0872,2.1626,2.1585,2.1275,2.0885,2.0975,2.069,2.0351,2.0736,2.0862,2.0952,2.141,2.1508,2.1374,2.1087,2.1208,2.1329,2.0862,2.0794,2.0749,2.0292,2.0456,2.0524,1.9752,1.9897,2.0011,1.9531,1.9834,2.0033,1.9622,1.9875,2.0138,2.0153,2.0732,2.1136,2.1136,2.0484,2.0008,2.0008,1.9271,1.8804,1.8804,1.8543,1.8279,1.8015,1.824,1.8398,1.8398,1.9079,1.9743,2.0399,2.1141,2.1965,2.2833,2.34,2.4059,2.4839,2.5009,2.538,0.7569,0.7505,0.7522,0.751,0.8134,0.8827,0.0,0.0,1.2158,1.2986,1.4511,1.5952,1.6925,1.7933,1.8868,1.9654,1.9805,2.0067,2.071,2.0504,2.0289,2.0329,1.9821,1.955,1.9805,1.9606,1.967,2.0178,1.9717,1.9797,2.0677,2.0211,2.0195,2.082,2.0599,2.0607,2.0891,2.0899,2.0899,2.0899,2.0899,2.0875,2.0836,2.0836,2.067,2.0297,1.9717,1.9622,1.9902,1.9614,1.9916,2.0576,2.0576,2.0895,2.1324,2.1131,2.0781,2.0442,2.0862,2.069,2.0314,2.036,2.0382,2.0473,2.0938,2.0803,2.0541,2.0907,2.0736,2.036,1.9866,2.0079,2.0269,1.9783,1.9729,1.9729,1.9615,1.9637,1.9531,1.8981,1.9325,1.9607,1.9437,1.9477,1.9545,1.9664,1.9363,1.9119,1.9119,1.9027,1.8958,1.8958,1.8874,1.8804,1.8804,1.8773,1.8733,1.8693,1.8725,1.8749,1.8749,1.885,1.9142,1.9706,1.9812,2.0529,2.1872,2.2746,2.3649,2.4562,2.5401,2.5833,0.7726,0.7679,0.0,0.0,0.8564,0.948,1.0334,1.1624,1.3081,1.4602,1.5769,1.6932,1.8291,1.8874,1.9368,0.0,2.0195,2.0298,2.0575,2.0313,2.0107,2.0107,1.9686,1.9606,2.0147,2.0067,2.0115,2.0369,2.0321,2.0377,2.0599,2.0329,2.04,2.0875,2.0748,2.0774,2.0899,2.0899,2.0899,2.0899,2.0899,2.0899,2.0899,2.0899,2.082,2.0645,2.0178,2.0067,2.0171,1.9829,1.9886,2.016,1.999,2.0029,2.0266,2.0936,2.0887,2.0463,2.0477,2.0178,1.9782,1.9881,2.0017,2.0228,2.0511,2.0583,2.0528,2.0275,2.0238,2.0201,1.9714,1.976,1.9851,1.9646,1.9592,1.95,1.9211,1.9371,1.944,1.8897,1.8989,1.9129,1.9049,1.9233,1.9415,1.9466,1.9469,1.936,1.9169,1.9145,1.9066,1.8828,1.9018,1.9058,1.882,1.8804,1.8804,1.8804,1.8804,1.8804,1.8804,1.8804,1.892,1.9119,1.944,2.0025,2.0885,2.2372,2.3444,2.4124,2.5327,2.5895,0.778,0.0,0.0,0.8206,0.9048,1.0166,1.1429,1.2746,1.4216,1.5985,1.7026,1.7955,1.9185,1.9471,0.0,2.0195,2.0329,2.0361,2.029,2.0051,1.9892,1.9892,1.9423,1.9447,2.0313,2.0392,2.0512,2.0831,2.0885,2.0828,2.0694,2.0591,2.0655,2.0883,2.0899,2.0899,2.0899,2.0899,2.0899,2.0899,2.0899,2.0899,2.0899,2.0899,2.0899,2.0875,2.0551,2.0448,2.0512,2.0179,2.0091,2.0155,1.9916,1.9805,1.9925,2.0858,2.08,2.0263,2.0258,1.9924,1.9558,1.9662,1.978,1.998,2.0281,2.0319,2.0198,1.9946,1.997,1.9973,1.9642,1.955,1.9525,1.9419,1.9371,1.9304,1.9024,1.9191,1.9312,1.9024,1.8978,1.8987,1.9098,1.9415,1.9709,1.9805,2.0028,1.9996,1.9463,1.9312,1.9121,1.8828,1.9066,1.9113,1.8828,1.8804,1.8804,1.8804,1.8804,1.8804,1.8804,1.8804,1.8804,1.8804,1.9325,1.9979,2.0772,2.235,2.3509,2.4327,2.5401,2.5895,0.0,0.0,0.8187,0.8581,0.9678,1.1004,1.2262,1.4202,1.6004,1.7049,1.835,1.9336,1.9391,1.9678,1.9877,1.99,2.0195,2.0298,1.9956,1.9925,1.9892,1.9892,1.8978,1.8875,0.0,2.0392,2.0839,2.1857,2.1298,2.1042,2.1349,2.1066,2.0883,2.0899,2.0899,2.0899,2.0899,2.0899,2.0899,2.0899,2.0899,2.0899,2.0899,2.0899,2.0899,2.0875,2.0551,2.0583,2.0851,2.0527,2.0575,2.0859,2.0851,2.0843,2.0851,2.0911,2.0299,1.955,2.0328,2.0289,1.9893,1.9885,1.967,1.9574,2.0344,1.9778,1.9095,2.0254,2.0013,1.9423,1.9407,1.9407,1.9312,1.8907,1.8827,1.8923,1.9304,1.9097,1.8931,1.9312,1.9375,1.9479,1.9805,2.0155,2.048,2.0796,2.0859,2.0519,1.9527,1.9066,1.882,1.8804,1.8812,1.882,1.8804,1.8804,1.8804,1.8804,1.8804,1.8804,1.8804,1.8804,1.8804,1.8804,1.9325,2.0371,2.1943,2.2724,2.393,2.5538,2.5791,2.5895,0.0,0.0,0.8953,0.9236,1.0466,1.2043,1.364,1.5201,1.6653,1.7734,1.7995,1.8007,1.8007,1.7874,1.7938,1.8421,1.9192,1.9702,1.9582,1.9749,1.963,1.893,1.8724,0.0,0.0,0.0,0.0,2.1211,2.1248,2.1167,2.1081,2.0962,2.0899,2.0899,2.0899,2.0899,2.0899,2.0899,2.0899,2.0899,2.0899,2.0899,2.0899,2.0899,2.0899,2.0883,2.0772,2.0813,2.0883,2.0772,2.0788,2.0875,2.0662,2.0567,2.0567,2.0567,2.0345,2.0059,2.0127,2.003,1.9853,1.963,1.963,1.979,2.0047,2.0014,1.9892,2.0087,1.9774,1.9447,1.9662,1.9383,1.9042,1.9161,1.8979,1.8836,1.8963,1.8892,1.8915,1.9328,1.9399,1.9503,1.9829,2.0187,2.0512,2.0843,2.0701,2.0448,2.0123,1.994,1.9781,1.9542,1.9725,1.9685,1.9248,1.9193,1.909,1.882,1.8804,1.8804,1.8804,1.8804,1.8804,1.8804,1.8989,1.966,2.0876,2.1583,2.2768,2.4413,2.4988,2.5464,0.0,0.8973,0.9615,0.9882,1.1235,1.2899,1.4439,1.5585,1.6647,1.7872,1.7384,1.6807,1.7038,1.6786,1.667,1.7156,1.792,1.8501,1.8628,1.8835,1.8898,1.8723,1.8661,0.0,0.0,0.0,0.0,2.1026,2.127,2.1246,2.0915,2.0899,2.0899,2.0899,2.0899,2.0899,2.0899,2.0899,2.0899,2.0899,2.0899,2.0899,2.0899,2.0899,2.0899,2.0899,2.0899,2.0899,2.0899,2.0899,2.0899,2.0875,2.067,2.0583,2.0583,2.0583,2.0583,2.0551,2.0321,2.0266,2.0234,2.002,2.0012,2.0099,2.0226,2.025,2.0234,2.0258,2.0028,1.9781,1.9893,1.963,1.9383,1.9399,1.928,1.9233,1.936,1.9288,1.9304,1.9669,1.9765,1.9829,2.0044,2.0353,2.0655,2.0859,2.0726,2.0535,2.0408,2.0306,2.0139,1.9916,2.0091,2.0051,1.9614,1.9574,1.9423,1.9042,1.9003,1.8939,1.8812,1.8804,1.8804,1.8804,1.915,1.976,2.0659,2.1686,2.2877,2.422,2.5093,2.5657,0.8925,0.9537,1.0142,1.0513,1.1934,1.3526,1.4652,1.5381,1.6175,1.7437,1.6617,1.5865,0.0,0.0,1.6166,1.6198,1.6527,1.6924,1.7331,1.7427,1.7944,0.0,0.0,0.0,0.0,0.0,0.0,2.1293,0.0,2.1256,2.0915,2.0899,2.0899,2.0899,2.0899,2.0899,2.0899,2.0899,2.0899,2.0899,2.0899,2.0899,2.0899,2.0899,2.0899,2.0899,2.0899,2.0899,2.0899,2.0899,2.0899,2.0899,2.0899,2.0899,2.0899,2.0899,2.0899,2.0899,2.0899,2.0883,2.0867,2.0867,2.0662,2.0456,2.0788,2.0448,2.0083,2.0734,2.0662,2.0321,2.0028,2.0163,2.0234,1.9598,1.967,1.998,2.0314,2.0123,1.9996,2.0321,2.0408,2.0416,2.0416,2.0694,2.0899,2.0899,2.0899,2.0798,2.0464,2.0147,1.994,1.994,1.994,1.9932,1.9892,1.9933,1.9757,1.9391,1.9399,1.9256,1.8844,1.8852,1.886,1.886,1.9795,2.063,2.1369,2.2957,2.4152,2.5009,2.6066,2.6355,0.9376,1.006,1.0702,1.0811,1.2128,1.3504,1.3808,1.5077,1.6191,1.6227,1.5759,1.5282,0.0,0.0,0.0,1.6118,1.7159,0.0,1.836,1.9105,0.0,0.0,0.0,1.9963,2.0258,2.0282,0.0,0.0,2.1034,2.0994,2.0899,2.0899,2.0899,2.0899,2.0899,2.0899,2.0899,2.0899,2.0899,2.0899,2.0899,2.0899,2.0899,2.0899,2.0899,2.0899,2.0899,2.0899,2.0899,2.0899,2.0899,2.0899,2.0899,2.0899,2.0899,2.0899,2.0899,2.0899,2.0899,2.075,2.0527,2.0527,2.0464,2.0456,2.0788,2.0772,2.0686,2.0843,2.0662,2.0432,2.0607,2.0354,2.0044,2.0131,2.002,1.9916,2.0004,1.9948,1.9996,2.0321,2.0607,2.0756,2.0756,2.0836,2.0899,2.0899,2.0899,2.0867,2.0772,2.071,2.0655,2.0655,2.0655,2.044,1.9932,2.0131,1.9892,1.9003,1.9479,1.9606,1.9248,1.9495,1.9622,1.9622,1.9862,2.075,2.2259,2.2691,2.3952,2.5945,2.6238,2.657,0.9976,1.0527,1.1144,1.1567,1.2679,1.3661,1.382,1.4665,1.5378,1.5177,1.4622,0.0,0.0,0.0,0.0,0.0,0.0,0.0,1.8247,1.8867,1.9407,0.0,2.0154,0.0,2.0607,2.0623,2.071,0.0,2.0899,2.0899,2.0899,2.0899,2.0899,2.0899,2.0899,2.0899,2.0899,2.0899,2.0899,2.0899,2.0899,2.0899,2.0899,2.0899,2.0899,2.0899,0.0,2.0899,2.0899,2.0899,2.0899,2.0899,2.0899,2.0899,2.0899,2.0899,2.0899,2.0899,2.0899,2.079,2.0623,2.0623,2.0623,2.0662,2.0836,2.0899,2.0899,2.0899,2.0748,2.0639,2.0678,2.0512,2.0337,2.0384,2.0361,2.0354,2.0354,2.0354,2.0384,2.0583,2.0756,2.0899,2.0899,2.0899,2.0899,2.0899,2.0899,2.0899,2.0899,2.0899,2.0899,2.0899,2.0899,2.0758,2.0361,2.0512,2.0305,1.9558,1.9884,1.9964,1.9622,1.9789,1.9892,1.9892,2.0321,2.122,2.2604,2.3355,2.4595,2.6315,2.6818,2.7132,1.0584,1.0901,1.1458,1.249,1.3259,1.3809,1.4103,1.4268,1.4333,1.4239,0.0,1.3414,1.4406,0.0,1.4845,1.5316,0.0,1.6401,1.7809,1.8079,1.8723,2.0273,2.0504,2.0655,2.0939,2.0923,2.0899,2.0899,2.0899,2.0899,2.0899,2.0899,2.0899,2.0899,2.0939,2.0947,2.0899,2.0947,2.0947,2.0899,2.0899,2.0899,2.0899,2.0899,2.0899,2.0899,0.0,0.0,2.0899,2.0899,2.0899,2.0899,2.0899,2.0899,2.0899,2.0899,2.0899,2.0899,2.0899,2.0899,2.0899,2.0899,2.0899,2.0899,2.0899,2.0899,2.0899,2.0899,2.0899,2.0828,2.0543,2.0694,2.082,2.0535,2.0694,2.0899,2.0899,2.0899,2.0899,2.0899,2.0899,2.0899,2.0899,2.0899,2.0899,2.0899,2.0899,2.0899,2.0899,2.0899,2.0899,2.0899,2.0899,2.0875,2.0828,2.0867,2.075,2.0353,2.0408,2.033,1.9972,2.0004,2.0028,2.0028,2.0881,2.1806,2.2735,2.4216,2.5394,2.6335,2.7451,2.7724,1.0783,1.1014,1.1482,1.2708,1.3198,1.3393,1.3464,1.4071,0.0,0.0,0.0,1.423,1.4543,1.4869,0.0,1.6289,0.0,0.0,0.0,0.0,2.0162,0.0,0.0,0.0,0.0,0.0,0.0,0.0,0.0,0.0,2.0899,2.0899,2.0899,2.0899,2.1185,2.1193,2.0899,2.1159,2.1159,2.0899,2.0899,2.0899,2.0899,2.0899,2.0899,2.0899,0.0,0.0,2.0899,2.0899,2.0899,2.0899,2.0899,2.0899,2.0899,2.0899,2.0899,2.0899,2.0899,2.0899,2.0899,2.0899,2.0899,2.0899,2.0899,2.0899,2.0899,2.0899,2.0899,2.0883,2.082,2.0851,2.0883,2.082,2.0851,2.0899,2.0899,2.0899,2.0899,2.0899,2.0899,2.0899,2.0899,2.0899,2.0899,2.0899,2.0899,2.0899,2.0899,2.0899,2.0899,2.0899,2.0899,2.078,2.0512,2.0724,2.0647,2.002,2.0512,2.067,2.0321,2.0583,2.0734,2.0734,2.0886,2.182,2.3509,2.3803,2.4802,2.6486,2.7291,2.7619,1.0995,1.1123,1.1551,1.3077,1.3245,1.3091,1.3358,0.0,0.0,0.0,0.0,1.4232,1.4537,0.0,0.0,0.0,0.0,0.0,0.0,0.0,0.0,0.0,0.0,0.0,0.0,0.0,0.0,0.0,0.0,0.0,2.0899,2.0899,2.0978,2.1135,2.1309,2.1317,2.1169,2.1317,2.1222,2.0899,2.0899,2.0899,2.0899,2.0899,2.0899,2.0899,0.0,0.0,2.0899,2.0899,2.0899,2.0899,2.0899,2.0899,2.0899,2.0899,2.0899,2.0899,2.0899,2.0899,2.0899,2.0899,2.0899,2.0899,2.0899,2.0899,2.0899,2.0899,2.0899,2.0899,2.0899,2.0899,2.0899,2.0899,2.0899,2.0899,2.0899,2.0899,2.0899,2.0899,2.0899,2.0955,2.1137,2.1018,2.0955,2.1145,2.1018,2.0899,2.0899,2.0899,2.0899,2.0899,2.0899,2.0828,2.0661,2.0796,2.0748,2.044,2.0734,2.082,2.0678,2.0804,2.0899,2.0899,2.1453,2.2392,2.3692,2.4261,2.5412,2.7067,2.7447,2.7835,1.1075,1.1161,1.1648,1.3485,1.3268,1.2783,1.3466,1.3624,0.0,0.0,1.3322,1.4087,1.4522,0.0,0.0,0.0,0.0,0.0,0.0,0.0,0.0,0.0,0.0,0.0,0.0,0.0,0.0,0.0,0.0,0.0,0.0,2.0939,2.1089,2.1518,2.1436,2.1396,2.1396,2.1396,2.1222,2.0899,2.0899,2.0899,2.0899,2.0899,2.0899,2.0899,0.0,0.0,0.0,2.0899,2.0899,2.0899,2.0899,2.0899,2.0899,2.0899,2.0899,2.0899,2.0899,2.0899,2.0899,2.0899,2.0899,2.0899,2.0899,2.0899,2.0899,2.0899,2.0947,2.0994,2.0915,2.0955,2.0986,2.0915,2.0899,2.0899,2.0899,2.0899,2.0915,2.0994,2.101,2.1121,2.147,2.124,2.1129,2.1478,2.1169,2.0923,2.0994,2.0947,2.0899,2.0899,2.0899,2.0899,2.0899,2.0899,2.0899,2.0899,2.0899,2.0899,2.0899,2.0899,2.0942,2.107,2.1903,2.2744,2.3626,2.4639,2.5819,2.7115,2.7447,2.7953,1.0868,1.1057,1.1716,1.3894,1.3191,1.2346,1.3726,0.0,0.0,1.2672,1.3395,1.4181,1.4543,0.0,0.0,0.0,0.0,1.7181,0.0,0.0,0.0,0.0,0.0,0.0,0.0,0.0,0.0,0.0,0.0,0.0,0.0,2.1074,2.1227,2.1913,2.1581,2.1396,2.1396,2.1396,2.1222,2.0899,2.0899,2.0899,2.0899,2.0899,2.0899,2.0899,0.0,0.0,0.0,2.0899,2.0899,2.0899,2.0899,2.0899,2.0899,2.0899,2.0899,2.0899,2.0899,2.0899,2.0899,2.0899,2.0899,2.0899,2.0899,2.0899,2.0899,2.0899,2.1129,2.1278,2.0978,2.1137,2.127,2.097,2.0899,2.0899,2.0899,2.0899,2.0994,2.1285,2.1349,2.1486,2.1881,2.1624,2.1494,2.1889,2.1346,2.101,2.1309,2.1097,2.0899,2.0899,2.0899,2.0899,2.0899,2.0899,2.0899,2.0899,2.0899,2.0899,2.0899,2.0899,2.1121,2.1623,2.1725,2.2299,2.3354,2.418,2.4909,2.5552,2.6948,2.7636,1.0928,1.1967,1.3211,1.3817,1.343,1.3127,1.3929,0.0,1.3403,1.3134,1.3794,1.4524,1.489,0.0,0.0,0.0,0.0,0.0,0.0,0.0,0.0,0.0,0.0,0.0,0.0,0.0,0.0,0.0,0.0,0.0,0.0,2.1624,2.1576,2.1648,2.1719,2.1759,2.1759,2.1759,2.1687,2.1571,2.1571,2.1441,2.1224,2.1449,2.1322,2.0907,0.0,0.0,0.0,2.0899,2.0899,2.0899,2.0899,2.0899,2.0899,2.0899,2.0899,2.0899,2.0899,2.0899,2.0899,2.0899,2.0899,2.0899,2.0899,2.1042,2.1216,2.1216,2.1285,2.1365,2.1256,2.1161,2.1129,2.1167,2.105,2.101,2.1483,2.1359,2.132,2.1687,2.1565,2.1597,2.2207,2.1788,2.1613,2.2223,2.1889,2.1626,2.1735,2.1632,2.1571,2.1571,2.1335,2.1216,2.1216,2.1216,2.1216,2.1216,2.1216,2.1121,2.0907,2.1105,2.1217,2.1224,2.1844,2.24,2.2828,2.4279,2.5333,2.6047,2.7404,2.8124,1.0913,1.2188,1.3625,1.3817,1.3378,1.3106,0.0,0.0,1.3539,1.3354,1.3972,1.4648,1.4956,1.5399,1.578,0.0,0.0,1.6698,0.0,0.0,0.0,0.0,0.0,0.0,0.0,0.0,0.0,0.0,0.0,0.0,0.0,2.2032,2.1957,2.1581,2.1632,2.1777,2.2011,2.1777,2.1777,2.2011,2.1777,2.1632,2.1573,2.1632,2.1441,0.0,0.0,0.0,0.0,2.0899,2.0899,2.0899,2.0899,2.0899,2.0899,2.0899,2.0899,2.0899,2.0899,2.0899,2.0899,2.0899,2.0899,2.0899,2.0899,2.1145,2.1396,2.1396,2.1325,2.1262,2.1373,2.1161,2.0986,2.1317,2.1127,2.1058,2.1679,2.1597,2.1526,2.1921,2.1846,2.1915,2.2545,2.2121,2.193,2.2553,2.2279,2.2051,2.2127,2.2048,2.2011,2.2011,2.1838,2.1685,2.1581,2.1573,2.1573,2.1573,2.1573,2.1415,2.1066,2.1391,2.1438,2.113,2.2011,2.2663,2.3095,2.4664,2.5892,2.6839,2.7935,2.8567,1.0693,1.13,1.2349,1.4061,1.2891,1.1709,0.0,0.0,1.3105,1.3107,1.3806,1.4443,1.4569,1.5213,1.5693,0.0,0.0,0.0,0.0,0.0,0.0,0.0,0.0,0.0,0.0,0.0,0.0,0.0,0.0,0.0,0.0,0.0,2.235,2.1992,2.129,2.1266,2.1976,2.1274,2.1274,2.2003,2.1258,2.129,2.196,2.1242,0.0,0.0,0.0,0.0,0.0,2.0899,2.0899,2.0899,2.0899,2.0899,2.0899,2.0899,2.0899,2.0899,2.0899,2.0899,2.0899,2.0899,2.0899,2.0899,2.0899,2.1145,2.1396,2.1396,2.1169,2.0986,2.1301,2.1161,2.0986,2.1317,2.1127,2.0994,2.1325,2.1404,2.1526,2.1921,2.2263,2.2585,2.295,2.2712,2.2593,2.293,2.2438,2.2112,2.2434,2.2199,2.2011,2.2011,2.2294,2.2358,2.2008,2.1976,2.1976,2.1976,2.1976,2.1798,2.1404,2.1775,2.1888,2.1691,2.2097,2.3031,2.4492,2.5314,2.6354,2.7613,2.842,2.8803,1.0289,1.1758,1.3347,1.3338,1.2907,1.2633,1.331,0.0,1.3176,1.3385,1.4025,1.4622,1.4948,1.5399,1.5772,0.0,0.0,0.0,0.0,0.0,0.0,0.0,0.0,0.0,0.0,0.0,0.0,0.0,0.0,0.0,0.0,0.0,2.1992,2.1597,2.1367,2.1589,2.2342,2.1889,2.1889,2.235,2.2339,2.2212,2.2019,2.2227,0.0,0.0,0.0,0.0,0.0,2.0899,2.0899,2.0899,2.0899,2.0899,2.0899,2.0899,2.0899,2.0899,2.0899,2.0899,2.0899,2.0899,2.0899,2.0939,2.1185,2.1309,2.1396,2.1396,2.151,2.16,2.1454,2.1317,2.1407,2.2021,2.1685,2.146,2.2311,2.2303,2.2259,2.2609,2.2577,2.2601,2.295,2.272,2.2609,2.2966,2.2823,2.272,2.2831,2.2752,2.268,2.268,2.2784,2.2704,2.2374,2.235,2.235,2.235,2.235,2.2191,2.1806,2.2159,2.207,2.1499,2.2376,2.3219,2.3964,2.5509,2.716,2.8895,2.8829,2.8978,0.0,1.1886,1.3338,1.3063,1.2756,0.0,0.0,0.0,1.3203,1.3529,1.402,1.4575,1.5094,1.547,1.5812,0.0,0.0,0.0,0.0,0.0,0.0,0.0,0.0,0.0,0.0,0.0,0.0,0.0,0.0,0.0,0.0,0.0,2.1889,2.1621,2.1494,2.1692,2.231,2.2096,2.2159,2.249,2.2577,2.2529,2.239,0.0,0.0,0.0,0.0,0.0,0.0,2.0899,2.0899,2.0899,2.0899,2.0899,2.0899,2.0899,2.0899,2.0899,2.0899,2.0899,2.0899,2.0899,2.0899,2.0939,2.1161,2.1293,2.1428,2.1581,2.1703,2.1743,2.1663,2.1621,2.1783,2.2355,2.2053,2.1827,2.2649,2.2641,2.2553,2.2776,2.2744,2.2752,2.2946,2.2831,2.276,2.2982,2.2986,2.2986,2.2986,2.2986,2.2986,2.2986,2.2986,2.2927,2.2704,2.2688,2.2688,2.2688,2.2688,2.2529,2.2199,2.2498,2.2355,2.1629,2.2996,2.4015,2.4613,2.6806,2.8534,2.9751,2.9283,2.9217,0.0,0.0,0.0,0.0,0.0,0.0,0.0,0.0,0.0,1.3529,1.3862,1.4331,1.5072,1.547,1.5812,0.0,0.0,0.0,0.0,0.0,0.0,0.0,0.0,0.0,0.0,0.0,0.0,0.0,0.0,0.0,0.0,0.0,0.0,2.2016,2.1637,2.1637,2.2083,2.2059,2.2191,2.2509,2.2207,2.239,2.2914,0.0,0.0,0.0,0.0,0.0,0.0,2.0899,2.0899,2.0899,2.0899,2.0899,2.0899,2.0899,2.0899,2.0899,2.0899,2.0899,2.0899,2.0899,2.0899,2.0899,2.0899,2.1145,2.1486,2.1857,2.1735,2.1565,2.1944,2.2051,2.2112,2.2469,2.2279,2.2119,2.245,2.2529,2.2529,2.2529,2.2791,2.2986,2.2986,2.2986,2.2986,2.2986,2.2986,2.2986,2.2986,2.2986,2.2986,2.2986,2.2986,2.2986,2.2986,2.2986,2.2986,2.2986,2.2986,2.2863,2.2537,2.2839,2.2724,2.2121,2.3928,2.5304,2.6234,2.89,3.0185,3.0199,2.9751,2.9556,0.0,0.0,0.0,0.0,0.0,0.0,0.0,0.0,0.0,0.0,0.0,1.4331,1.5072,1.547,1.5812,0.0,0.0,0.0,0.0,0.0,0.0,0.0,0.0,0.0,0.0,0.0,0.0,0.0,0.0,0.0,0.0,0.0,0.0,2.2382,2.2048,2.214,2.276,2.2498,2.243,2.249,2.2672,2.2712,2.2601,0.0,0.0,0.0,0.0,0.0,2.0899,2.0899,2.0899,2.0899,2.0899,2.0899,2.0899,2.0899,2.0899,2.0899,2.0899,2.0899,2.0899,2.0899,2.0899,2.0899,2.0899,2.1145,2.1412,2.1518,2.1867,2.2259,2.2366,2.239,2.2477,2.2807,2.2617,2.2458,2.2815,2.2895,2.2895,2.2895,2.2958,2.2986,2.2986,2.2986,2.2986,2.2986,2.2986,2.2986,2.2986,2.2986,2.2986,2.2986,2.2986,2.2986,2.2986,2.2986,2.2986,2.2986,2.2986,2.2954,2.2895,2.2974,2.3003,2.3062,2.5301,2.6775,2.74,2.9292,3.0185,3.0185,3.0089,3.0046,0.0,0.0,0.0,0.0,0.0,0.0,0.0,0.0,0.0,0.0,0.0,1.4188,1.5239,0.0,0.0,0.0,0.0,0.0,0.0,0.0,0.0,0.0,0.0,0.0,0.0,0.0,0.0,0.0,0.0,0.0,0.0,0.0,0.0,0.0,2.2,2.2247,2.2768,2.2585,2.249,2.249,2.2847,2.2911,2.272,0.0,0.0,0.0,0.0,0.0,2.0899,2.0899,2.0899,2.0899,2.0899,2.0899,2.0915,2.1074,2.1137,2.1137,2.1137,2.1034,2.0899,2.0899,2.1002,2.1137,2.1137,2.1494,2.1867,2.1727,2.2069,2.2529,2.2688,2.2728,2.2776,2.2974,2.2871,2.2784,2.2946,2.2986,2.2986,2.2986,2.2986,2.2986,2.2986,2.2986,2.2986,2.2986,2.2986,2.2986,2.2986,2.2986,2.2986,2.2986,2.2986,2.2986,2.2986,2.2986,2.2986,2.2986,2.2986,2.2986,2.2986,2.2986,2.363,2.498,2.6295,2.7753,2.9371,3.0227,3.0715,3.0829,3.0635,3.0526,0.0,0.0,0.0,0.0,0.0,0.0,0.0,0.0,0.0,0.0,0.0,0.0,0.0,0.0,0.0,0.0,0.0,0.0,0.0,0.0,0.0,0.0,0.0,0.0,0.0,0.0,0.0,0.0,0.0,0.0,0.0,0.0,0.0,0.0,2.1735,2.2104,2.2509,2.2461,2.2485,2.2569,2.2815,2.2906,2.2919,2.2625,0.0,0.0,0.0,0.0,2.0899,2.0899,2.0899,2.0899,2.0899,2.0899,2.0939,2.1296,2.1365,2.1317,2.1317,2.1145,2.0907,2.0955,2.1177,2.1404,2.146,2.1954,2.2454,2.2151,2.2318,2.2633,2.2934,2.2986,2.2986,2.2986,2.2986,2.2986,2.2986,2.2986,2.2986,2.2986,2.2986,2.2986,2.2986,2.2986,2.2986,2.2986,2.2986,2.2986,2.2986,2.2986,2.2986,2.2986,2.2986,2.2986,2.2986,2.2986,2.2986,2.2986,2.2986,2.2986,2.2986,2.3259,2.4428,2.6653,2.714,2.8595,3.1023,3.1167,3.1373,3.1582,3.1203,3.1007,1.2436,1.2056,1.166,1.2158,1.2235,0.0,0.0,0.0,0.0,0.0,0.0,0.0,0.0,0.0,0.0,0.0,0.0,0.0,0.0,0.0,0.0,0.0,0.0,0.0,0.0,0.0,0.0,0.0,0.0,0.0,0.0,0.0,0.0,0.0,0.0,2.1811,2.2482,2.2215,2.2366,2.2934,2.2688,2.2569,2.2569,2.2513,2.2132,0.0,0.0,2.1224,2.0899,2.0899,2.0899,2.0899,2.0899,2.0899,2.0939,2.1296,2.1206,2.0978,2.0978,2.0939,2.0947,2.1214,2.1357,2.1452,2.1791,2.2191,2.2501,2.2446,2.2664,2.2942,2.3006,2.2986,2.2986,2.2986,2.2986,2.2986,2.2986,2.2986,2.2986,2.2986,2.2986,2.2986,2.2986,2.2986,2.2986,2.2986,2.2986,2.2986,2.2986,2.2986,2.2986,2.2986,2.2986,2.2986,2.2986,2.2986,2.2986,2.2986,2.2986,2.2986,2.2986,2.4428,2.5378,2.579,2.8239,2.9733,3.0188,3.1105,3.1553,3.1593,3.1516,3.1484,1.2246,1.2124,1.1995,1.2108,0.0,1.2195,1.2814,0.0,0.0,0.0,0.0,0.0,0.0,0.0,0.0,0.0,0.0,0.0,0.0,0.0,0.0,0.0,0.0,0.0,0.0,0.0,0.0,0.0,0.0,0.0,0.0,0.0,0.0,0.0,0.0,0.0,2.2474,2.1767,2.1846,2.2728,2.2569,2.2414,2.2239,2.2593,2.2264,0.0,0.0,2.1565,2.0923,2.133,2.1258,2.0915,2.1105,2.1066,2.0939,2.1296,2.1293,2.1208,2.1417,2.1362,2.124,2.1608,2.1854,2.2045,2.2196,2.249,2.2776,2.2776,2.2887,2.2986,2.2986,2.2986,2.2986,2.2986,2.2986,2.2986,2.2986,2.2986,2.2986,2.2986,2.2986,2.3049,2.324,2.3271,2.3271,2.3271,2.3271,2.3271,2.3271,2.3105,2.3065,2.3248,2.3105,2.2986,2.2986,2.2986,2.2986,2.2986,2.2986,2.2986,2.2986,2.4409,2.5176,2.5176,2.7428,2.8906,2.9523,3.0344,3.1017,3.1593,3.1593,3.1593,1.2098,1.2224,1.2335,0.0,0.0,1.2217,1.3131,0.0,0.0,0.0,0.0,0.0,0.0,0.0,0.0,0.0,0.0,0.0,0.0,0.0,0.0,0.0,0.0,0.0,0.0,0.0,0.0,0.0,0.0,0.0,0.0,0.0,0.0,0.0,0.0,0.0,2.2235,2.1335,2.1449,2.249,2.243,2.2207,2.1889,2.2569,2.2295,2.1309,2.2061,2.1814,2.0947,2.1584,2.1481,2.0923,2.1167,2.1159,2.1042,2.1232,2.1381,2.1565,2.1775,2.1719,2.1597,2.2,2.2294,2.2506,2.2585,2.2799,2.2986,2.2986,2.2986,2.2986,2.2986,2.2986,2.2986,2.2986,2.2986,2.2986,2.2986,2.2986,2.301,2.3089,2.3113,2.3224,2.3573,2.3636,2.3636,2.3636,2.3636,2.3636,2.3636,2.3427,2.3332,2.3494,2.3271,2.3073,2.2994,2.2986,2.2986,2.2986,2.2986,2.2986,2.2986,2.4147,2.4806,2.4806,2.6563,2.7912,2.8791,2.9681,3.0536,3.1311,3.1516,3.1593,1.232,1.2428,1.2567,1.2558,1.2558,0.0,1.3807,1.4274,0.0,0.0,0.0,0.0,0.0,0.0,0.0,0.0,0.0,0.0,0.0,0.0,0.0,0.0,0.0,0.0,0.0,0.0,0.0,0.0,0.0,0.0,0.0,0.0,0.0,0.0,0.0,0.0,2.1468,2.1097,2.1449,2.2509,2.2175,2.1822,2.146,2.2204,2.1957,2.097,2.1722,2.1584,2.0923,2.1278,2.1232,2.0899,2.0923,2.1121,2.1325,2.1042,2.137,2.1905,2.1565,2.1679,2.2008,2.2358,2.2493,2.2545,2.2879,2.299,2.2986,2.2986,2.2986,2.2986,2.2986,2.2986,2.2986,2.2986,2.2986,2.2986,2.2986,2.2986,2.3081,2.3414,2.3449,2.3589,2.3989,2.4074,2.4074,2.4074,2.4074,2.4074,2.4074,2.405,2.3893,2.3549,2.3494,2.3343,2.3046,2.2986,2.2986,2.2986,2.2986,2.2986,2.2986,2.4147,2.4806,2.4806,2.6771,2.7812,2.7892,2.9549,3.0417,3.0495,3.1234,3.1593,1.2206,1.2354,1.2543,1.2297,1.2408,0.0,0.0,1.4369,1.4798,0.0,0.0,0.0,0.0,0.0,0.0,0.0,0.0,0.0,0.0,0.0,0.0,0.0,0.0,0.0,0.0,0.0,0.0,0.0,0.0,0.0,0.0,0.0,0.0,0.0,0.0,0.0,0.0,2.1177,2.1338,2.2183,2.2048,2.169,2.1129,2.2069,2.2037,2.1248,2.1777,2.1833,2.1618,2.1949,2.1732,2.1198,2.1198,2.1169,2.1129,2.1457,2.16,2.1661,2.1989,2.218,2.2374,2.2696,2.2815,2.2839,2.2946,2.2986,2.2986,2.2986,2.2986,2.2986,2.2986,2.3152,2.3263,2.3041,2.3348,2.3575,2.3109,2.3356,2.3634,2.3533,2.3713,2.3997,2.4347,2.441,2.441,2.441,2.441,2.441,2.441,2.4219,2.4028,2.3901,2.3475,2.3136,2.3002,2.2986,2.2986,2.2986,2.2986,2.2986,2.2986,2.4147,2.4454,2.3708,2.5854,2.6916,2.6753,2.8658,3.0009,3.0853,3.1687,3.2252,1.219,1.2339,1.2558,0.0,0.0,0.0,1.4339,1.4782,1.5155,0.0,0.0,0.0,0.0,0.0,0.0,0.0,0.0,0.0,0.0,0.0,0.0,0.0,0.0,0.0,0.0,0.0,0.0,0.0,0.0,0.0,0.0,0.0,0.0,0.0,0.0,0.0,0.0,2.1163,2.1163,2.1658,2.177,2.1552,2.1097,2.2061,2.2045,2.1288,2.1878,2.2024,2.1849,2.2207,2.191,2.123,2.123,2.1177,2.1121,2.1624,2.1791,2.1819,2.2323,2.2561,2.2696,2.2934,2.2986,2.2986,2.2986,2.2986,2.2986,2.2986,2.2986,2.2986,2.2986,2.3248,2.3454,2.3208,2.3626,2.3949,2.3472,2.375,2.4044,2.3896,2.4055,2.4362,2.469,2.4746,2.4746,2.4746,2.4746,2.4746,2.4746,2.4569,2.4331,2.4129,2.3427,2.2986,2.2986,2.2986,2.3033,2.3144,2.3152,2.3105,2.2994,2.3784,2.3924,2.3296,2.5055,2.5872,2.568,2.8047,2.9614,3.0444,3.1832,3.2686,1.2351,1.2452,0.0,0.0,0.0,0.0,1.5375,1.5697,0.0,0.0,0.0,0.0,0.0,0.0,0.0,0.0,0.0,0.0,0.0,0.0,0.0,0.0,0.0,0.0,0.0,0.0,0.0,0.0,0.0,0.0,0.0,0.0,0.0,0.0,0.0,0.0,0.0,2.0899,2.0899,2.0907,2.123,2.1396,2.1412,2.2164,2.191,2.0955,2.2021,2.2084,2.1436,2.1849,2.1587,2.0907,2.0907,2.1113,2.1396,2.1404,2.1867,2.2509,2.249,2.272,2.2986,2.2986,2.2986,2.2986,2.2986,2.2986,2.2986,2.2986,2.2986,2.2986,2.2986,2.3248,2.3488,2.3488,2.3808,2.4114,2.4114,2.4114,2.4195,2.4545,2.4617,2.4698,2.5048,2.5111,2.5111,2.5111,2.5111,2.5111,2.5111,2.5103,2.4833,2.4156,2.3464,2.2994,2.3022,2.2994,2.3144,2.3465,2.3517,2.3359,2.301,2.2994,2.3275,2.3893,2.449,2.4814,2.4814,2.7892,2.9241,2.8994,3.146,3.2803,1.2529,0.0,0.0,0.0,0.0,0.0,0.0,0.0,0.0,0.0,0.0,0.0,0.0,0.0,0.0,0.0,0.0,0.0,0.0,0.0,0.0,0.0,0.0,0.0,0.0,0.0,0.0,0.0,0.0,0.0,0.0,0.0,0.0,0.0,0.0,0.0,0.0,0.0,2.1018,2.1246,2.1349,2.1296,2.1066,2.1526,2.1558,2.1272,2.1335,2.1687,2.2188,2.2283,2.2088,2.1674,2.1674,2.1568,2.1452,2.197,2.2148,2.2215,2.2688,2.2927,2.2986,2.2986,2.2986,2.2986,2.2986,2.2986,2.2986,2.2986,2.2986,2.2986,2.2986,2.3459,2.384,2.3573,2.3999,2.4386,2.4161,2.4474,2.4754,2.4641,2.4785,2.4984,2.5087,2.5111,2.5111,2.5111,2.5111,2.5111,2.5111,2.4889,2.4593,2.4161,2.3893,2.3649,2.3382,2.361,2.3822,2.3925,2.3925,2.3885,2.3782,2.3774,2.372,2.3624,2.4219,2.4966,2.5856,2.7814,2.9575,3.1173,3.2477,3.3447,1.259,0.0,0.0,0.0,0.0,0.0,0.0,0.0,0.0,0.0,0.0,0.0,0.0,0.0,0.0,0.0,0.0,0.0,0.0,0.0,0.0,0.0,0.0,0.0,0.0,0.0,0.0,0.0,0.0,0.0,0.0,0.0,0.0,0.0,0.0,0.0,0.0,0.0,0.0,2.1216,2.1216,2.1105,2.0915,2.1407,2.147,2.1208,2.1137,2.1462,2.2084,2.2247,2.2096,2.1759,2.1759,2.1711,2.1661,2.1973,2.2048,2.2091,2.2609,2.2807,2.2831,2.2974,2.2986,2.2986,2.2986,2.2986,2.2986,2.2986,2.2986,2.2986,2.2986,2.3435,2.3832,2.3761,2.4285,2.473,2.4545,2.4809,2.5048,2.4833,2.496,2.5111,2.5111,2.5111,2.5111,2.5111,2.5111,2.5111,2.5111,2.4801,2.4529,2.4315,2.4164,2.3997,2.3761,2.3965,2.4169,2.4283,2.4291,2.4354,2.4498,2.4227,2.4106,2.4101,2.4462,2.5271,2.6544,2.8173,2.9928,3.1778,3.3038,3.3934,0.0,0.0,0.0,0.0,0.0,0.0,0.0,0.0,0.0,0.0,0.0,0.0,0.0,0.0,0.0,0.0,0.0,0.0,0.0,0.0,0.0,0.0,0.0,0.0,0.0,0.0,0.0,0.0,0.0,0.0,0.0,0.0,0.0,0.0,0.0,0.0,0.0,0.0,0.0,0.0,2.0899,2.0899,2.0915,2.1602,2.152,2.0915,2.1246,2.1381,2.1381,2.1833,2.1759,2.1396,2.1396,2.1613,2.1905,2.1542,2.1637,2.204,2.239,2.2506,2.2585,2.2911,2.2986,2.2986,2.2986,2.2986,2.2986,2.2986,2.2986,2.2986,2.2986,2.3271,2.3636,2.4005,2.4601,2.5071,2.5103,2.5111,2.5111,2.5111,2.5111,2.5111,2.5111,2.5111,2.5111,2.5111,2.5111,2.5111,2.5111,2.4825,2.4619,2.4617,2.4347,2.4164,2.4161,2.4164,2.4315,2.4641,2.4657,2.4778,2.5095,2.4522,2.4429,2.4955,2.5073,2.5756,2.7039,2.886,3.0318,3.1472,3.3244,3.4227,0.0,0.0,0.0,0.0,0.0,0.0,0.0,0.0,0.0,0.0,0.0,0.0,0.0,0.0,0.0,0.0,0.0,0.0,0.0,0.0,0.0,0.0,0.0,0.0,0.0,0.0,0.0,0.0,0.0,0.0,0.0,0.0,0.0,0.0,0.0,0.0,2.0891,2.0647,2.0647,0.0,2.0899,2.0899,2.0899,2.105,2.106,2.0915,2.1246,2.1238,2.1058,2.173,2.1759,2.1396,2.1396,2.1444,2.1526,2.1428,2.1637,2.204,2.239,2.2664,2.2911,2.299,2.2986,2.2986,2.2986,2.2986,2.2986,2.2986,2.2986,2.2986,2.2986,2.3475,2.3989,2.409,2.441,2.477,2.5048,2.5111,2.5111,2.5111,2.5111,2.5111,2.5111,2.5111,2.5111,2.5111,2.5111,2.5111,2.5111,2.504,2.4889,2.4641,2.4762,2.477,2.4522,2.4722,2.4913,2.4992,2.4992,2.5032,2.5103,2.496,2.4814,2.4685,2.5665,2.6798,2.8071,2.9489,3.1179,3.3089,3.3515,3.3991,0.0,0.0,0.0,0.0,0.0,0.0,0.0,0.0,0.0,0.0,0.0,0.0,0.0,0.0,0.0,0.0,0.0,0.0,0.0,0.0,0.0,0.0,0.0,0.0,0.0,0.0,0.0,0.0,0.0,0.0,0.0,0.0,0.0,0.0,0.0,0.0,2.0662,2.0488,2.0567,2.0899,2.0899,2.0812,2.0678,2.082,2.0899,2.0907,2.1089,2.1066,2.0939,2.1497,2.1581,2.1396,2.1396,2.1396,2.1373,2.1206,2.1391,2.1767,2.2143,2.2493,2.2791,2.2958,2.2986,2.2986,2.2986,2.2986,2.2986,2.2986,2.2986,2.2986,2.2986,2.3411,2.3848,2.4044,2.4482,2.4889,2.5071,2.5111,2.5111,2.5111,2.5111,2.5111,2.5111,2.5111,2.5111,2.5111,2.5111,2.5111,2.5111,2.5111,2.504,2.4857,2.5,2.5032,2.4849,2.5,2.5111,2.5111,2.5111,2.5111,2.5111,2.5111,2.5024,2.4833,2.6101,2.7368,2.8629,3.02,3.1869,3.3607,3.3907,3.4188,0.0,0.0,0.0,0.0,0.0,0.0,0.0,0.0,0.0,0.0,0.0,0.0,0.0,0.0,0.0,0.0,0.0,0.0,0.0,0.0,0.0,0.0,0.0,0.0,0.0,0.0,0.0,0.0,0.0,0.0,0.0,0.0,0.0,0.0,0.0,1.9972,2.0297,2.0274,2.0424,2.0804,2.0804,2.0678,2.04,2.0639,2.0774,2.0804,2.0804,2.0836,2.0915,2.1216,2.1301,2.1301,2.1301,2.1301,2.127,2.1002,2.1121,2.1436,2.1775,2.2167,2.2565,2.2831,2.2938,2.2986,2.2986,2.2986,2.2986,2.2986,2.2986,2.2986,2.2986,2.3248,2.3605,2.3997,2.4577,2.5032,2.5095,2.5111,2.5111,2.5111,2.5111,2.5111,2.5111,2.5111,2.5111,2.5111,2.5111,2.5111,2.5111,2.5111,2.5111,2.5111,2.5111,2.5111,2.5111,2.5111,2.5111,2.5111,2.5111,2.5195,2.5402,2.5441,2.5525,2.5739,2.6779,2.7937,2.9216,3.1004,3.2475,3.3597,3.4104,3.4384,0.0,0.0,0.0,0.0,0.0,0.0,0.0,0.0,0.0,0.0,0.0,0.0,0.0,0.0,0.0,0.0,0.0,0.0,0.0,0.0,0.0,0.0,0.0,0.0,0.0,0.0,0.0,0.0,0.0,0.0,0.0,0.0,1.9757,1.9407,1.9439,0.0,1.9956,1.9678,1.9853,2.0464,2.0464,2.044,2.0384,2.0147,2.0195,2.0464,2.0464,2.0639,2.0899,2.0947,2.097,2.097,2.097,2.097,2.0962,2.0915,2.1121,2.1404,2.1452,2.1941,2.2525,2.2545,2.2768,2.2986,2.2986,2.2986,2.2986,2.2986,2.2986,2.2986,2.2986,2.3248,2.3605,2.3997,2.4386,2.4738,2.504,2.5111,2.5111,2.5111,2.5111,2.5111,2.5111,2.5111,2.5111,2.5111,2.5111,2.5111,2.5111,2.5111,2.5111,2.5111,2.5111,2.5111,2.5111,2.5111,2.5111,2.5111,2.5111,2.5586,2.6689,2.6749,2.7284,2.8385,2.8564,2.9275,3.0558,3.1921,3.2916,3.3597,3.3681,3.3889,0.0,0.0,0.0,0.0,0.0,0.0,0.0,0.0,0.0,0.0,0.0,0.0,0.0,0.0,0.0,0.0,0.0,0.0,0.0,0.0,0.0,0.0,0.0,0.0,0.0,0.0,0.0,0.0,0.0,0.0,0.0,1.901,1.9034,1.8516,1.8859,0.0,1.928,1.9367,1.9638,2.0123,2.0322,2.0194,1.9837,1.9686,1.9908,2.0392,2.0392,2.0599,2.0899,2.0899,2.0899,2.0899,2.0899,2.0899,2.0899,2.0899,2.1121,2.1396,2.1396,2.1875,2.249,2.249,2.2728,2.2986,2.2986,2.2986,2.2986,2.2986,2.2986,2.3033,2.3232,2.3398,2.3652,2.4251,2.4498,2.4674,2.5032,2.5111,2.5111,2.5111,2.5111,2.5111,2.5111,2.5111,2.5111,2.5111,2.5111,2.5111,2.5111,2.5111,2.5111,2.5111,2.5111,2.5111,2.5111,2.5111,2.5111,2.5111,2.577,2.6424,2.6983,2.7705,2.8653,2.9933,2.9963,3.0227,3.0791,3.2277,3.3136,3.3381,3.3512,3.3681,0.0,0.0,0.0,0.0,0.0,0.0,0.0,0.0,0.0,0.0,0.0,0.0,0.0,0.0,0.0,0.0,0.0,0.0,0.0,0.0,0.0,0.0,0.0,0.0,0.0,0.0,0.0,0.0,0.0,0.0,1.8184,1.8414,1.8319,1.7809,1.8367,1.8669,1.8669,1.9248,1.9606,1.9765,2.0115,1.9972,1.9399,1.9399,1.9678,2.0138,2.0242,2.0512,2.0899,2.0899,2.0899,2.0899,2.0899,2.0899,2.0899,2.0899,2.1066,2.1262,2.1262,2.1685,2.2235,2.235,2.2593,2.2895,2.2962,2.2986,2.2986,2.2986,2.2986,2.3073,2.3422,2.3488,2.3692,2.4412,2.4609,2.4674,2.5032,2.5111,2.5111,2.5111,2.5111,2.5111,2.5111,2.5111,2.5111,2.5111,2.5111,2.5111,2.5111,2.5111,2.5111,2.5111,2.5111,2.5111,2.5111,2.5111,2.5226,2.5556,2.6485,2.7284,2.7937,2.889,2.9992,3.1266,3.1276,3.1276,3.1295,3.2487,3.3108,3.3193,3.3409,3.3494,0.0,0.0,0.0,0.0,0.0,0.0,0.0,0.0,0.0,0.0,0.0,0.0,0.0,0.0,0.0,0.0,0.0,0.0,0.0,0.0,0.0,0.0,0.0,0.0,0.0,0.0,0.0,0.0,0.0,0.0,1.784,1.7832,1.7832,1.7793,1.8128,1.8327,1.8327,1.936,1.9717,1.9431,1.9757,1.9733,1.9399,1.9399,1.9415,1.9471,1.9781,2.0306,2.0899,2.0899,2.0899,2.0899,2.0899,2.0899,2.0899,2.0899,2.0907,2.0923,2.0923,2.1169,2.1526,2.1913,2.2255,2.2605,2.2911,2.2986,2.2986,2.2986,2.2986,2.3073,2.3422,2.3488,2.3692,2.4412,2.4609,2.4674,2.5032,2.5111,2.5111,2.5111,2.5111,2.5111,2.5111,2.5111,2.5111,2.5111,2.5111,2.5111,2.5111,2.5111,2.5111,2.5111,2.5111,2.5111,2.5111,2.5111,2.5617,2.681,2.6952,2.8086,3.0499,3.0675,3.1305,3.2584,3.2612,3.2612,3.2612,3.2708,3.288,3.3193,3.3221,3.3221,0.0,0.0,0.0,0.0,0.0,0.0,0.0,0.0,0.0,0.0,0.0,0.0,0.0,0.0,0.0,0.0,0.0,0.0,0.0,0.0,0.0,0.0,0.0,0.0,0.0,0.0,0.0,0.0,0.0,0.0,1.7506,1.7673,1.7586,1.7098,1.766,1.7984,1.7984,1.9041,1.928,1.8692,1.9296,1.9391,1.9003,1.9003,1.9264,1.9717,1.9837,2.0163,2.0599,2.0804,2.0899,2.0899,2.0899,2.0899,2.0899,2.0899,2.0899,2.0899,2.0899,2.1129,2.1478,2.1873,2.2223,2.2553,2.2911,2.2986,2.2986,2.2986,2.2986,2.3073,2.3422,2.3488,2.3692,2.4412,2.4754,2.4952,2.5079,2.5111,2.5111,2.5111,2.5111,2.5111,2.5111,2.5111,2.5111,2.5111,2.5111,2.5111,2.5111,2.5111,2.5111,2.5111,2.5111,2.5111,2.5111,2.5853,2.6515,2.6961,2.8534,2.9845,3.0762,3.1604,3.2229,3.2698,3.2698,3.2698,3.2698,3.2698,3.2755,3.288,3.288,3.288,0.0,0.0,0.0,0.0,0.0,0.0,0.0,0.0,0.0,0.0,0.0,0.0,0.0,0.0,0.0,0.0,0.0,0.0,0.0,0.0,0.0,0.0,0.0,0.0,0.0,0.0,0.0,0.0,0.0,0.0,1.7127,1.7302,1.727,1.6908,1.7387,1.7681,1.7793,1.8739,1.8827,1.8128,1.8994,1.9121,1.8638,1.8876,1.9264,1.9725,1.9837,2.0155,2.0591,2.0796,2.0899,2.0899,2.0899,2.0899,2.0899,2.0899,2.0899,2.0899,2.0899,2.105,2.132,2.1833,2.2143,2.243,2.2871,2.2986,2.2986,2.2986,2.2986,2.3125,2.3594,2.3859,2.4128,2.4499,2.4849,2.5111,2.5111,2.5111,2.5111,2.5111,2.5111,2.5111,2.5111,2.5111,2.5111,2.5111,2.5111,2.5111,2.5111,2.5111,2.5111,2.5111,2.5111,2.5111,2.5111,2.6272,2.7194,2.7615,2.9639,3.1005,3.1421,3.2258,3.2698,3.2698,3.2698,3.2698,3.2698,3.2698,3.2698,3.2698,3.2698,3.2698,0.0,0.0,0.0,0.0,0.0,0.0,0.0,0.0,0.0,0.0,0.0,0.0,0.0,0.0,0.0,0.0,0.0,0.0,0.0,0.0,0.0,0.0,0.0,0.0,0.0,0.0,0.0,0.0,0.0,1.7127,1.6713,1.6689,1.6876,1.7276,1.7292,1.7451,1.7761,1.8424,1.8431,1.7809,1.8858,1.9002,1.8343,1.9073,1.9399,1.9415,1.9741,2.0257,2.0883,2.0883,2.0883,2.0899,2.0899,2.0899,2.0899,2.0899,2.0899,2.0899,2.0899,2.0899,2.101,2.1746,2.2003,2.2119,2.2784,2.2978,2.2986,2.2986,2.2986,2.3173,2.3885,2.4593,2.5008,2.4697,2.4849,2.5111,2.5111,2.5111,2.5111,2.5111,2.5111,2.5111,2.5111,2.5111,2.5111,2.5111,2.5111,2.5111,2.5111,2.5111,2.5111,2.5111,2.5111,2.5111,2.5111,2.6272,2.7525,2.8772,3.008,3.1363,3.2584,3.2669,3.2698,3.2698,3.2698,3.2698,3.2698,3.2698,3.2698,3.2698,3.2698,3.2698,1.2257,0.0,0.0,0.0,0.0,0.0,0.0,0.0,0.0,0.0,0.0,0.0,0.0,0.0,0.0,0.0,0.0,0.0,0.0,0.0,0.0,0.0,0.0,0.0,0.0,0.0,0.0,0.0,0.0,1.7374,1.6721,1.6689,1.6757,1.686,1.7143,1.7199,1.7003,1.7715,1.7984,1.7801,1.8357,1.8629,1.8669,1.9161,1.9399,1.9415,1.9741,2.0147,2.0535,2.0535,2.0686,2.0899,2.0899,2.0899,2.0899,2.0899,2.0899,2.0899,2.0899,2.0899,2.097,2.1423,2.1759,2.2072,2.2525,2.2815,2.2986,2.2986,2.2986,2.3089,2.3541,2.4206,2.4706,2.4633,2.4849,2.5111,2.5111,2.5111,2.5111,2.5111,2.5111,2.5111,2.5111,2.5111,2.5111,2.5111,2.5111,2.5111,2.5111,2.5111,2.5111,2.5111,2.5111,2.5111,2.5111,2.6272,2.7164,2.7495,2.96,3.0976,3.1295,3.2201,3.2698,3.2698,3.2698,3.2698,3.2698,3.2698,3.2698,3.2698,3.2698,3.2698,0.0,0.0,0.0,0.0,0.0,0.0,0.0,1.3854,0.0,0.0,0.0,0.0,0.0,0.0,0.0,0.0,0.0,0.0,0.0,0.0,0.0,0.0,0.0,0.0,0.0,0.0,0.0,0.0,1.7339,1.7138,1.6713,1.6689,1.6689,1.6689,1.6937,1.6945,1.6689,1.7286,1.7586,1.7594,1.8065,1.8406,1.8598,1.8978,1.9248,1.9399,1.9439,1.9821,2.0377,2.0258,2.0464,2.0899,2.0899,2.0899,2.0899,2.0899,2.0899,2.0899,2.0899,2.0899,2.0955,2.1285,2.1679,2.2048,2.2406,2.2736,2.2986,2.2986,2.322,2.3427,2.3311,2.3943,2.4577,2.4426,2.4657,2.4928,2.5079,2.5111,2.5111,2.5111,2.5111,2.5111,2.5111,2.5111,2.5111,2.5111,2.5111,2.5111,2.5111,2.5111,2.5111,2.5111,2.5111,2.5111,2.5111,2.6272,2.6983,2.6983,2.889,3.0256,3.0791,3.1507,3.2172,3.2708,3.2698,3.2698,3.2698,3.2698,3.2698,3.2698,3.2698,3.2698,0.0,0.0,0.0,0.0,0.0,0.0,1.3641,1.3886,1.4107,0.0,0.0,0.0,0.0,0.0,0.0,0.0,0.0,0.0,0.0,0.0,0.0,0.0,0.0,0.0,0.0,0.0,0.0,1.7191,1.6892,1.6713,1.6753,1.6713,1.6689,1.6689,1.6689,1.6689,1.6689,1.7056,1.726,1.7307,1.793,1.8255,1.8311,1.8685,1.9042,1.932,1.8987,1.9415,2.0257,2.0004,2.0306,2.0899,2.0899,2.0899,2.0899,2.0899,2.0899,2.0899,2.0899,2.0899,2.0947,2.1264,2.1624,2.1984,2.2275,2.2641,2.2938,2.3006,2.3491,2.3877,2.3236,2.3792,2.4482,2.4203,2.4378,2.4674,2.5032,2.5111,2.5111,2.5111,2.5111,2.5111,2.5111,2.5111,2.5111,2.5111,2.5111,2.5111,2.5111,2.5111,2.5111,2.5111,2.5111,2.5111,2.5111,2.615,2.6779,2.6779,2.7966,2.9246,3.0529,3.0733,3.1412,3.2742,3.2822,3.2822,3.277,3.2729,3.2698,3.2698,3.2698,3.2698,0.0,0.0,0.0,0.0,0.0,0.0,1.3878,1.4044,1.4171,0.0,0.0,0.0,0.0,0.0,0.0,0.0,0.0,0.0,0.0,0.0,0.0,0.0,0.0,0.0,0.0,0.0,1.644,1.6789,1.6737,1.6837,1.718,1.6876,1.6689,1.6689,1.6689,1.6689,1.6689,1.6789,1.6984,1.7307,1.7705,1.8047,1.8319,1.897,1.9145,1.8923,1.9169,1.9407,1.9606,1.9805,2.0306,2.0899,2.0899,2.0899,2.0899,2.0899,2.0899,2.0899,2.0899,2.0899,2.0907,2.0978,2.1232,2.1534,2.1579,2.2065,2.2649,2.2906,2.3287,2.3581,2.3446,2.38,2.4243,2.4458,2.4561,2.4674,2.5032,2.5111,2.5111,2.5111,2.5111,2.5111,2.5111,2.5111,2.5111,2.5111,2.5111,2.5111,2.5111,2.5111,2.5111,2.5111,2.5111,2.5111,2.5111,2.5318,2.5464,2.5464,2.6658,2.7937,2.9216,3.0256,3.158,3.3244,3.3617,3.3656,3.3244,3.2874,3.2698,3.2698,3.2698,3.2698,0.0,0.0,0.0,1.3267,0.0,0.0,0.0,1.3982,1.4147,0.0,0.0,0.0,0.0,0.0,0.0,0.0,0.0,0.0,0.0,0.0,0.0,0.0,0.0,0.0,0.0,0.0,1.6329,1.6665,1.6689,1.6797,1.7,1.6813,1.6689,1.6689,1.6689,1.6689,1.6689,1.6689,1.6979,1.7546,1.7713,1.8071,1.855,1.8931,1.9002,1.882,1.924,1.9399,1.9439,1.994,2.0362,2.0678,2.0828,2.0899,2.0899,2.0899,2.0899,2.0899,2.0899,2.0899,2.0899,2.0899,2.1137,2.1428,2.1629,2.2196,2.2823,2.3152,2.3375,2.3549,2.3753,2.3949,2.4172,2.4529,2.4609,2.4674,2.5032,2.5111,2.5111,2.5111,2.5111,2.5111,2.5111,2.5111,2.5111,2.5111,2.5111,2.5111,2.5111,2.5111,2.5111,2.5111,2.5111,2.5111,2.5111,2.5111,2.5111,2.5111,2.57,2.69,2.8831,2.9512,3.0859,3.3019,3.3285,3.3285,3.3058,3.2801,3.2698,3.2698,3.2698,3.2822,0.0,0.0,0.0,0.0,0.0,1.4053,0.0,0.0,0.0,1.4195,0.0,0.0,0.0,0.0,0.0,0.0,0.0,0.0,0.0,0.0,0.0,0.0,0.0,0.0,0.0,0.0,1.6305,1.6591,1.665,1.6689,1.6689,1.6689,1.6689,1.6689,1.6689,1.6689,1.6689,1.6689,1.7048,1.7697,1.7697,1.8041,1.8701,1.8701,1.8741,1.882,1.9137,1.9288,1.9344,2.0028,2.0289,2.0329,2.0732,2.0899,2.0899,2.0899,2.0899,2.0899,2.0899,2.0899,2.0899,2.0899,2.1137,2.1486,2.1881,2.241,2.2962,2.3311,2.3414,2.3478,2.3806,2.3933,2.4076,2.4426,2.4561,2.4674,2.5032,2.5111,2.5111,2.5111,2.5111,2.5111,2.5111,2.5111,2.5111,2.5111,2.5111,2.5111,2.5111,2.5111,2.5111,2.5111,2.5111,2.5111,2.5111,2.5111,2.5111,2.5111,2.5111,2.612,2.8444,2.9186,3.0575,3.2793,3.3081,3.3132,3.2957,3.2957,3.2915,3.2822,3.2739,3.2965,0.0,0.0,0.0,0.0,1.406,0.0,0.0,0.0,1.4542,1.4542,0.0,0.0,0.0,0.0,0.0,0.0,0.0,0.0,0.0,0.0,0.0,0.0,0.0,0.0,0.0,0.0,0.0,1.6242,1.6535,1.6689,1.6689,1.6689,1.6689,1.6689,1.6689,1.6689,1.6689,1.6689,1.6916,1.7355,1.7355,1.7721,1.8359,1.8359,1.8511,1.8804,1.8852,1.8868,1.8923,1.9662,1.9948,2.002,2.0662,2.0899,2.0899,2.0899,2.0899,2.0899,2.0899,2.0899,2.0899,2.0899,2.1137,2.1486,2.1881,2.2263,2.2617,2.2946,2.3049,2.3057,2.3125,2.3335,2.366,2.406,2.4378,2.4674,2.5032,2.5111,2.5111,2.5111,2.5111,2.5111,2.5111,2.5111,2.5111,2.5111,2.5111,2.5111,2.5111,2.5111,2.5111,2.5111,2.5111,2.5111,2.5111,2.5111,2.5111,2.5111,2.5111,2.5739,2.7164,3.0165,3.2306,3.3306,3.4496,3.4724,3.3946,3.3946,3.3739,3.3325,3.2884,3.2965,0.0,0.0,0.0,0.0,0.0,0.0,0.0,0.0,1.4605,0.0,0.0,0.0,0.0,0.0,0.0,0.0,0.0,0.0,0.0,0.0,0.0,0.0,0.0,0.0,0.0,0.0,0.0,0.0,0.0,1.6206,1.64,1.6408,1.6503,1.6689,1.6689,1.6689,1.6689,1.6689,1.6892,1.7299,1.7299,1.7657,1.8295,1.8295,1.8471,1.882,1.905,1.9026,1.8876,1.9805,2.0075,1.9956,2.0647,2.0899,2.0899,2.0899,2.0899,2.0899,2.0899,2.0899,2.0899,2.0899,2.129,2.1775,2.1944,2.2374,2.2863,2.3192,2.3144,2.3109,2.3543,2.3729,2.3957,2.4307,2.4657,2.4928,2.5079,2.5111,2.5111,2.5111,2.5111,2.5111,2.5111,2.5111,2.5111,2.5111,2.5111,2.5111,2.5111,2.5111,2.5111,2.5111,2.5111,2.5111,2.5111,2.5111,2.5111,2.5111,2.6485,2.7651,2.8485,3.1052,3.2771,3.3408,3.3938,3.4051,3.3698,3.3967,3.3998,3.3791,3.3058,3.311,1.4171,0.0,0.0,0.0,0.0,0.0,0.0,0.0,0.0,0.0,0.0,0.0,0.0,0.0,0.0,0.0,0.0,0.0,0.0,0.0,0.0,0.0,0.0,0.0,0.0,0.0,0.0,0.0,1.5645,0.0,1.619,1.6206,1.6345,1.6681,1.6689,1.6689,1.6689,1.6689,1.6892,1.7299,1.7299,1.7657,1.8295,1.8295,1.8471,1.882,1.9105,1.9074,1.8876,1.9757,2.0036,1.9948,2.0535,2.0812,2.0899,2.0899,2.0899,2.0899,2.0899,2.0899,2.0899,2.0899,2.133,2.1865,2.196,2.2414,2.2914,2.3271,2.3184,2.3133,2.3663,2.3941,2.4148,2.4402,2.4778,2.5111,2.5111,2.5111,2.5111,2.5111,2.5111,2.5111,2.5111,2.5111,2.5111,2.5111,2.5111,2.5111,2.5111,2.5111,2.5111,2.5111,2.5111,2.5151,2.5215,2.5136,2.5111,2.5111,2.7164,2.869,2.9381,3.1456,3.2772,3.3203,3.3594,3.3656,3.3408,3.375,3.3967,3.4081,3.3265,3.3327,0.0,0.0,0.0,0.0,0.0,0.0,0.0,0.0,1.507,0.0,0.0,0.0,0.0,0.0,0.0,0.0,0.0,0.0,0.0,0.0,0.0,0.0,0.0,0.0,0.0,0.0,0.0,0.0,1.5518,0.0,1.619,1.6206,1.6345,1.6681,1.6689,1.6689,1.6689,1.6689,1.6892,1.7299,1.7299,1.7657,1.8295,1.8295,1.8471,1.8804,1.882,1.8812,1.8836,1.9272,1.9614,1.9924,2.029,2.0615,2.0899,2.0899,2.0899,2.0899,2.0899,2.0899,2.0899,2.0899,2.1145,2.1502,2.1881,2.2239,2.2577,2.2934,2.2994,2.3022,2.3046,2.3546,2.4114,2.4121,2.4633,2.5111,2.5111,2.5111,2.5111,2.5111,2.5111,2.5111,2.5111,2.5111,2.5111,2.5111,2.5111,2.5111,2.5111,2.5111,2.5111,2.5111,2.5111,2.5215,2.5564,2.5279,2.5111,2.5111,2.6333,2.7615,2.8879,3.1033,3.2365,3.2711,3.4071,3.4309,3.3408,3.3418,3.3656,3.4081,3.3605,3.3636,0.0,0.0,1.4998,1.4998,0.0,0.0,0.0,0.0,0.0,0.0,0.0,0.0,0.0,0.0,0.0,0.0,0.0,0.0,0.0,0.0,0.0,0.0,0.0,0.0,0.0,0.0,0.0,1.4805,1.4909,1.5131,0.0,1.5756,1.6015,1.6353,1.6591,1.6689,1.6689,1.6689,1.6892,1.7299,1.7299,1.7657,1.8295,1.8295,1.8471,1.8804,1.8804,1.8804,1.8828,1.9225,1.959,1.9924,2.0282,2.0607,2.0899,2.0899,2.0899,2.0899,2.0899,2.0899,2.0899,2.0899,2.1137,2.1486,2.1881,2.2231,2.2561,2.2919,2.2986,2.3041,2.3279,2.3705,2.4169,2.4378,2.4762,2.5111,2.5111,2.5111,2.5111,2.5111,2.5111,2.5111,2.5111,2.5111,2.5111,2.5111,2.5111,2.5111,2.5111,2.5111,2.5111,2.5111,2.5111,2.5159,2.5247,2.5183,2.5111,2.5111,2.6302,2.7699,2.9314,3.0589,3.1878,3.3132,3.3936,3.4174,3.3864,3.4174,3.4247,3.4091,3.3936,3.3946,1.4988,1.5181,0.0,0.0,1.5383,0.0,0.0,0.0,0.0,0.0,0.0,0.0,0.0,0.0,0.0,0.0,0.0,0.0,0.0,0.0,0.0,0.0,0.0,0.0,0.0,0.0,1.4605,1.4605,1.4605,1.4782,0.0,0.0,1.586,1.619,1.6527,1.6689,1.6689,1.6689,1.6892,1.7299,1.7419,1.7769,1.8303,1.843,1.859,1.8804,1.8804,1.8804,1.882,1.9082,1.9479,1.9908,2.0139,2.0496,2.0899,2.0899,2.0899,2.0899,2.0899,2.0899,2.0899,2.0899,2.105,2.1304,2.1671,2.2048,2.243,2.2879,2.2986,2.3097,2.3602,2.3917,2.4172,2.4529,2.4849,2.5111,2.5111,2.5111,2.5111,2.5111,2.5111,2.5111,2.5111,2.5111,2.5111,2.5111,2.5111,2.5111,2.5111,2.5111,2.5111,2.5111,2.5111,2.5111,2.5111,2.5222,2.5238,2.5119,2.6302,2.772,2.9305,3.0598,3.2107,3.3855,3.4195,3.434,3.434,3.4309,3.406,3.3596,3.3781,3.3936]},{"header":{"parameterUnit":"m.s-1","parameterCategory":1,"la1":30.6,"la2":29.2853,"lo1":-89.7004,"lo2":-87.6739,"dx":0.0162,"dy":0.0183,"nx":112,"ny":82,"refTime":"2023-02-04T06:00:00:Z","depth":0,"parameterNumber":3,"parameterNumberName":"V-component_of_WINDS"},"data":[0.0,0.0,0.0,0.0,0.0,0.0,0.0,0.0,0.0,0.0,0.0,0.0,0.0,0.0,0.0,0.0,0.0,0.0,0.0,0.0,0.0,0.0,0.0,0.0,0.0,0.0,0.0,0.0,0.0,0.0,0.0,0.0,0.0,0.0,0.0,0.0,0.0,0.0,0.0,0.0,0.0,0.0,0.0,0.0,0.0,0.0,0.0,0.0,0.0,0.0,0.0,0.0,0.0,0.0,0.0,0.0,0.0,0.0,0.0,0.0,0.0,0.0,0.0,0.0,0.0,0.0,0.0,0.0,0.0,0.0,0.0,0.0,0.0,0.0,0.0,0.0,0.0,0.0,0.0,0.0,0.0,0.0,0.0,0.0,0.0,0.0,0.0,0.0,0.0,0.0,0.0,2.4994,2.8001,2.9648,2.9011,2.8768,2.7504,2.4848,0.0,0.0,0.0,0.0,0.0,0.0,0.0,0.0,0.0,0.0,0.0,0.0,0.0,0.0,0.0,0.0,0.0,0.0,0.0,0.0,0.0,0.0,0.0,0.0,0.0,0.0,0.0,0.0,0.0,0.0,0.0,0.0,0.0,0.0,0.0,0.0,0.0,0.0,0.0,0.0,0.0,0.0,0.0,0.0,0.0,0.0,0.0,0.0,0.0,0.0,0.0,0.0,0.0,0.0,0.0,0.0,0.0,0.0,0.0,0.0,0.0,0.0,0.0,0.0,0.0,0.0,0.0,0.0,0.0,0.0,0.0,0.0,0.0,0.0,0.0,0.0,0.0,0.0,0.0,0.0,0.0,0.0,0.0,0.0,0.0,0.0,0.0,0.0,0.0,0.0,0.0,0.0,0.0,0.0,0.0,0.0,0.0,0.0,0.0,0.0,0.0,0.0,0.0,0.0,2.5078,2.785,2.92,2.9859,2.9745,2.859,2.716,2.5542,0.0,0.0,0.0,0.0,0.0,0.0,0.0,0.0,0.0,0.0,0.0,0.0,0.0,0.0,0.0,0.0,0.0,0.0,0.0,0.0,0.0,0.0,0.0,0.0,0.0,0.0,0.0,0.0,0.0,0.0,0.0,0.0,0.0,0.0,0.0,0.0,0.0,0.0,0.0,0.0,0.0,0.0,0.0,0.0,0.0,0.0,0.0,0.0,0.0,0.0,0.0,0.0,0.0,0.0,0.0,0.0,0.0,0.0,0.0,0.0,0.0,0.0,0.0,0.0,0.0,0.0,0.0,0.0,0.0,0.0,0.0,0.0,0.0,0.0,0.0,0.0,0.0,0.0,0.0,0.0,0.0,0.0,0.0,0.0,0.0,0.0,0.0,0.0,0.0,0.0,0.0,0.0,0.0,0.0,0.0,0.0,0.0,0.0,0.0,0.0,0.0,0.0,0.0,2.4888,2.6138,2.9076,2.9697,2.9907,2.9907,2.8557,2.7096,2.5678,2.478,0.0,0.0,0.0,0.0,0.0,0.0,0.0,0.0,0.0,0.0,0.0,0.0,0.0,0.0,0.0,0.0,0.0,0.0,0.0,0.0,0.0,0.0,0.0,0.0,0.0,0.0,0.0,0.0,0.0,0.0,0.0,0.0,0.0,0.0,0.0,0.0,0.0,0.0,0.0,0.0,0.0,0.0,0.0,0.0,0.0,0.0,0.0,0.0,0.0,0.0,0.0,0.0,0.0,0.0,0.0,0.0,0.0,0.0,0.0,0.0,0.0,0.0,0.0,0.0,0.0,0.0,0.0,0.0,0.0,0.0,0.0,0.0,0.0,0.0,0.0,0.0,0.0,0.0,0.0,0.0,0.0,0.0,0.0,0.0,0.0,0.0,0.0,0.0,0.0,0.0,0.0,0.0,0.0,0.0,0.0,0.0,0.0,0.0,0.0,0.0,0.0,0.0,2.6393,2.7332,2.988,3.0285,3.0253,2.9924,2.8557,2.7015,2.5445,2.4381,0.0,0.0,0.0,0.0,0.0,0.0,0.0,0.0,0.0,0.0,0.0,0.0,0.0,0.0,0.0,0.0,0.0,0.0,0.0,0.0,0.0,0.0,0.0,0.0,0.0,0.0,0.0,0.0,0.0,0.0,0.0,0.0,0.0,0.0,0.0,0.0,0.0,0.0,0.0,0.0,0.0,0.0,0.0,0.0,0.0,0.0,0.0,0.0,0.0,0.0,0.0,0.0,0.0,0.0,0.0,0.0,0.0,0.0,0.0,0.0,0.0,0.0,0.0,0.0,0.0,0.0,0.0,0.0,0.0,0.0,0.0,0.0,0.0,0.0,0.0,0.0,0.0,0.0,0.0,0.0,0.0,0.0,0.0,0.0,0.0,0.0,0.0,0.0,0.0,0.0,0.0,0.0,0.0,0.0,0.0,0.0,0.0,0.0,0.0,0.0,0.0,0.0,2.7365,2.9146,3.0661,3.1433,3.1316,3.0021,2.8557,2.6814,2.4718,2.4145,0.0,0.0,0.0,0.0,0.0,0.0,0.0,0.0,0.0,0.0,0.0,0.0,0.0,0.0,0.0,0.0,0.0,0.0,0.0,0.0,0.0,0.0,0.0,0.0,0.0,0.0,0.0,0.0,0.0,0.0,0.0,0.0,0.0,0.0,0.0,0.0,0.0,0.0,0.0,0.0,0.0,0.0,0.0,0.0,0.0,0.0,0.0,0.0,0.0,0.0,0.0,0.0,0.0,0.0,0.0,0.0,0.0,0.0,0.0,0.0,0.0,0.0,0.0,0.0,0.0,0.0,0.0,0.0,0.0,0.0,0.0,0.0,0.0,0.0,0.0,0.0,0.0,0.0,0.0,0.0,0.0,0.0,0.0,0.0,0.0,0.0,0.0,0.0,0.0,0.0,0.0,0.0,0.0,0.0,0.0,0.0,0.0,0.0,0.0,0.0,0.0,0.0,2.7063,2.8828,0.0,3.1563,3.1595,3.0608,2.9211,2.7666,2.5982,0.0,0.0,0.0,0.0,0.0,0.0,0.0,0.0,0.0,0.0,0.0,0.0,0.0,0.0,0.0,0.0,0.0,0.0,0.0,0.0,0.0,0.0,0.0,0.0,0.0,0.0,0.0,0.0,0.0,0.0,0.0,0.0,0.0,0.0,0.0,0.0,0.0,0.0,0.0,0.0,0.0,0.0,0.0,0.0,0.0,0.0,0.0,0.0,0.0,0.0,0.0,0.0,0.0,0.0,0.0,0.0,0.0,0.0,0.0,0.0,0.0,0.0,0.0,0.0,0.0,0.0,0.0,0.0,0.0,0.0,0.0,0.0,0.0,0.0,0.0,0.0,0.0,0.0,0.0,0.0,0.0,0.0,0.0,0.0,0.0,0.0,0.0,0.0,0.0,0.0,0.0,0.0,0.0,0.0,0.0,0.0,0.0,0.0,0.0,0.0,0.0,0.0,2.5361,2.7409,2.9378,0.0,3.2097,3.2109,3.0705,2.9486,2.799,2.6127,0.0,0.0,0.0,0.0,0.0,0.0,0.0,0.0,0.0,0.0,0.0,0.0,0.0,0.0,0.0,0.0,0.0,0.0,0.0,0.0,0.0,0.0,0.0,0.0,0.0,0.0,0.0,0.0,0.0,0.0,0.0,0.0,0.0,0.0,0.0,0.0,0.0,0.0,0.0,0.0,0.0,0.0,0.0,0.0,0.0,0.0,0.0,0.0,0.0,0.0,0.0,0.0,0.0,0.0,0.0,0.0,0.0,0.0,0.0,0.0,0.0,0.0,0.0,0.0,0.0,0.0,0.0,0.0,0.0,0.0,0.0,0.0,0.0,0.0,0.0,0.0,0.0,0.0,0.0,0.0,0.0,0.0,0.0,0.0,0.0,0.0,0.0,0.0,0.0,0.0,0.0,0.0,0.0,0.0,0.0,0.0,0.0,0.0,0.0,0.0,0.0,0.0,2.5526,2.8704,3.1179,3.1935,3.3259,3.2951,3.0151,2.9248,2.7585,0.0,0.0,0.0,0.0,0.0,0.0,0.0,0.0,0.0,0.0,0.0,0.0,0.0,0.0,0.0,0.0,0.0,0.0,0.0,0.0,0.0,0.0,0.0,0.0,0.0,0.0,0.0,0.0,0.0,0.0,0.0,0.0,0.0,0.0,0.0,0.0,0.0,0.0,0.0,0.0,0.0,0.0,0.0,0.0,0.0,0.0,0.0,0.0,0.0,0.0,0.0,0.0,0.0,0.0,0.0,0.0,0.0,0.0,0.0,0.0,0.0,0.0,0.0,0.0,0.0,0.0,0.0,0.0,0.0,0.0,0.0,0.0,0.0,0.0,0.0,0.0,0.0,0.0,0.0,0.0,0.0,0.0,0.0,0.0,0.0,0.0,0.0,0.0,0.0,0.0,0.0,0.0,0.0,0.0,0.0,0.0,0.0,0.0,0.0,0.0,0.0,0.0,0.0,2.6804,2.8903,3.0857,3.2579,3.3566,3.3161,3.0802,2.9966,2.8568,2.6208,0.0,0.0,0.0,0.0,0.0,0.0,0.0,0.0,0.0,0.0,0.0,0.0,0.0,0.0,0.0,0.0,0.0,0.0,0.0,0.0,0.0,0.0,0.0,0.0,0.0,0.0,0.0,0.0,0.0,0.0,0.0,0.0,0.0,0.0,0.0,0.0,0.0,0.0,0.0,0.0,0.0,0.0,0.0,0.0,0.0,0.0,0.0,0.0,0.0,0.0,0.0,0.0,0.0,0.0,0.0,0.0,0.0,0.0,0.0,0.0,0.0,0.0,0.0,0.0,0.0,0.0,0.0,0.0,0.0,0.0,0.0,0.0,0.0,0.0,0.0,0.0,0.0,0.0,0.0,0.0,0.0,0.0,0.0,0.0,0.0,0.0,0.0,0.0,0.0,0.0,0.0,0.0,0.0,0.0,0.0,0.0,0.0,0.0,0.0,0.0,0.0,0.0,2.7403,2.948,3.1343,3.2931,3.3696,3.323,3.1082,3.029,2.8973,2.684,0.0,0.0,0.0,0.0,0.0,0.0,0.0,0.0,0.0,0.0,0.0,0.0,0.0,0.0,0.0,0.0,0.0,0.0,0.0,0.0,0.0,0.0,0.0,0.0,0.0,0.0,0.0,0.0,0.0,0.0,0.0,0.0,0.0,0.0,0.0,0.0,0.0,0.0,0.0,0.0,0.0,0.0,0.0,0.0,0.0,0.0,0.0,0.0,0.0,0.0,0.0,0.0,0.0,0.0,0.0,0.0,0.0,0.0,0.0,0.0,0.0,0.0,0.0,0.0,0.0,0.0,0.0,0.0,0.0,0.0,0.0,0.0,0.0,0.0,0.0,0.0,0.0,0.0,0.0,0.0,0.0,0.0,0.0,0.0,0.0,0.0,0.0,0.0,0.0,0.0,0.0,0.0,0.0,0.0,0.0,0.0,0.0,0.0,0.0,0.0,0.0,0.0,2.7721,3.0236,3.2238,3.3109,3.3744,3.323,3.1082,3.029,2.9005,2.6911,0.0,0.0,0.0,0.0,0.0,0.0,0.0,0.0,0.0,0.0,0.0,0.0,0.0,0.0,0.0,0.0,0.0,0.0,0.0,0.0,0.0,0.0,0.0,0.0,0.0,0.0,0.0,0.0,0.0,0.0,0.0,0.0,0.0,0.0,0.0,0.0,0.0,0.0,0.0,0.0,0.0,0.0,0.0,0.0,0.0,0.0,0.0,0.0,0.0,0.0,0.0,0.0,0.0,0.0,0.0,0.0,0.0,0.0,0.0,0.0,2.3181,0.0,0.0,0.0,0.0,0.0,0.0,0.0,0.0,0.0,0.0,0.0,0.0,0.0,0.0,0.0,0.0,0.0,0.0,0.0,0.0,0.0,0.0,0.0,0.0,0.0,0.0,0.0,0.0,0.0,0.0,0.0,0.0,0.0,0.0,0.0,0.0,0.0,0.0,0.0,0.0,0.0,2.9102,3.0425,3.1838,3.3696,3.4003,3.323,3.1082,3.029,2.9216,2.7591,0.0,0.0,0.0,0.0,0.0,0.0,0.0,0.0,0.0,0.0,0.0,0.0,0.0,0.0,0.0,0.0,0.0,0.0,0.0,0.0,0.0,0.0,0.0,0.0,0.0,0.0,0.0,0.0,0.0,0.0,0.0,0.0,0.0,0.0,0.0,0.0,0.0,0.0,0.0,0.0,0.0,0.0,0.0,0.0,0.0,0.0,0.0,0.0,0.0,0.0,0.0,0.0,0.0,0.0,0.0,0.0,0.0,0.0,0.0,0.0,0.0,2.4619,0.0,0.0,0.0,0.0,0.0,0.0,0.0,0.0,0.0,0.0,0.0,0.0,0.0,0.0,0.0,0.0,0.0,0.0,0.0,0.0,0.0,0.0,0.0,0.0,0.0,0.0,0.0,0.0,0.0,0.0,0.0,0.0,0.0,0.0,0.0,0.0,0.0,0.0,0.0,0.0,3.0053,3.1299,3.2514,3.3955,3.4101,3.3372,3.1568,3.0781,2.9615,2.7808,2.7097,0.0,0.0,0.0,0.0,0.0,0.0,0.0,0.0,0.0,0.0,0.0,0.0,0.0,0.0,0.0,0.0,0.0,0.0,0.0,0.0,0.0,0.0,0.0,0.0,0.0,0.0,0.0,0.0,0.0,0.0,0.0,0.0,0.0,0.0,0.0,0.0,0.0,0.0,0.0,0.0,0.0,0.0,0.0,0.0,0.0,0.0,0.0,0.0,0.0,0.0,0.0,0.0,0.0,0.0,0.0,2.8083,2.8083,2.8428,2.8885,2.7006,2.5971,2.5592,0.0,0.0,0.0,0.0,0.0,0.0,0.0,0.0,0.0,0.0,0.0,0.0,0.0,0.0,0.0,0.0,0.0,0.0,0.0,0.0,0.0,0.0,0.0,0.0,0.0,2.7672,2.7737,0.0,0.0,0.0,0.0,0.0,0.0,0.0,0.0,0.0,0.0,0.0,0.0,3.0479,3.2125,3.3368,3.4036,3.4101,3.3582,3.2303,3.139,3.0144,2.8374,2.7397,2.6636,0.0,0.0,0.0,0.0,0.0,0.0,0.0,0.0,0.0,0.0,0.0,0.0,0.0,0.0,0.0,0.0,0.0,0.0,0.0,0.0,0.0,0.0,0.0,0.0,0.0,0.0,0.0,0.0,0.0,0.0,0.0,0.0,2.9136,2.9095,0.0,0.0,0.0,0.0,0.0,0.0,0.0,0.0,0.0,0.0,0.0,0.0,0.0,0.0,2.6996,2.8963,2.9998,3.0101,3.0731,3.1093,3.1205,3.1205,3.1257,3.1343,3.1024,0.0,2.7902,2.7264,0.0,0.0,0.0,0.0,0.0,0.0,0.0,0.0,0.0,0.0,0.0,0.0,0.0,0.0,0.0,0.0,0.0,0.0,0.0,0.0,0.0,0.0,2.7769,2.9151,2.9551,2.9378,0.0,2.7423,2.6377,2.571,0.0,0.0,0.0,0.0,0.0,0.0,0.0,0.0,2.9913,3.1841,3.3368,3.4036,3.4101,3.3777,3.3028,3.1692,3.0791,3.05,2.8649,2.7583,2.7602,2.7149,0.0,0.0,0.0,0.0,0.0,0.0,0.0,0.0,0.0,0.0,0.0,0.0,0.0,0.0,0.0,0.0,0.0,0.0,0.0,0.0,0.0,0.0,0.0,0.0,0.0,0.0,0.0,0.0,0.0,2.9229,2.9055,2.8939,2.8675,2.8465,0.0,0.0,0.0,0.0,0.0,0.0,0.0,0.0,0.0,2.8929,2.9132,2.9462,2.9996,3.0879,3.1588,3.2112,3.2321,3.2662,3.3086,3.3086,3.3086,3.3086,3.3086,3.2265,3.08,2.9196,2.8092,2.7316,0.0,0.0,0.0,0.0,0.0,2.742,2.7506,0.0,0.0,0.0,0.0,0.0,0.0,0.0,0.0,0.0,0.0,0.0,0.0,0.0,0.0,3.0465,3.1277,3.1656,3.0275,2.9507,2.8617,0.0,2.649,2.6215,2.6215,0.0,0.0,0.0,0.0,0.0,3.2056,3.3793,3.5007,3.5315,3.4972,3.4437,3.3724,3.2768,3.166,3.042,2.9486,2.8656,2.7926,2.7995,2.8148,0.0,0.0,0.0,0.0,0.0,0.0,0.0,0.0,0.0,0.0,0.0,0.0,0.0,0.0,0.0,0.0,0.0,0.0,0.0,0.0,0.0,0.0,0.0,0.0,0.0,0.0,0.0,0.0,2.9337,2.919,2.8773,2.8724,2.8593,0.0,0.0,0.0,0.0,0.0,0.0,2.9815,2.9405,2.9854,3.1374,3.162,3.2036,3.2674,3.3118,3.3698,3.4379,3.4347,3.4673,3.5242,3.5052,3.4966,3.4966,3.4966,3.4414,3.3335,3.1222,2.9937,2.9213,2.867,2.8445,0.0,2.9075,2.9265,2.9351,2.9903,3.0084,3.0006,2.9455,0.0,2.9161,2.8618,0.0,0.0,0.0,0.0,2.9177,3.0087,0.0,3.3017,3.2555,3.3583,3.4216,3.2518,3.2148,3.1377,0.0,2.7861,2.752,2.752,0.0,0.0,0.0,0.0,3.2097,3.3874,3.5396,3.6289,3.6289,3.5801,3.5276,3.4763,3.3962,3.2794,3.1182,3.0724,3.0049,2.899,2.9382,2.9829,0.0,0.0,0.0,0.0,0.0,0.0,0.0,0.0,0.0,0.0,0.0,0.0,0.0,0.0,0.0,0.0,0.0,0.0,0.0,0.0,0.0,0.0,0.0,0.0,0.0,0.0,0.0,0.0,0.0,0.0,2.8627,2.9022,0.0,0.0,0.0,0.0,2.9002,2.9033,2.967,3.1127,3.1164,3.1425,3.2039,3.3642,3.444,3.4287,3.6409,3.7513,3.7575,3.8059,3.833,3.8347,3.764,3.7329,3.7329,3.7329,3.6484,3.4956,3.3386,3.2283,3.1627,3.1593,3.1576,3.1585,3.1619,3.1627,3.1627,3.1662,3.1679,3.1679,3.1645,3.1627,3.1627,3.1576,3.1383,0.0,0.0,3.1808,3.1808,3.387,3.4496,3.4937,3.6281,3.6958,3.6993,3.5807,3.5543,3.4409,0.0,2.9761,2.9745,2.9745,0.0,2.9934,3.0678,3.206,3.3271,3.4003,3.5396,3.6289,3.6289,3.6257,3.6275,3.6368,3.5065,3.4252,3.426,3.2774,3.1861,3.1804,3.1829,3.1944,3.216,3.2745,0.0,0.0,0.0,0.0,0.0,0.0,0.0,0.0,0.0,0.0,0.0,0.0,0.0,0.0,0.0,0.0,0.0,0.0,0.0,0.0,0.0,0.0,0.0,0.0,0.0,0.0,0.0,0.0,3.004,3.1089,0.0,0.0,3.0921,3.1095,3.081,3.1162,3.1919,3.3042,3.2911,3.3591,3.5396,3.5932,3.6671,3.7741,3.8307,3.8709,3.8971,3.8893,3.8925,3.903,3.8779,3.8589,3.8467,3.8467,3.8068,3.7346,3.6784,3.4956,3.2507,3.2507,3.2507,3.2628,3.3611,3.4,3.4059,3.4525,3.4697,3.4542,3.3586,3.2921,3.2507,3.2507,3.2794,3.3255,3.3772,3.4085,3.4504,3.5539,3.6695,3.7537,3.7336,3.7967,3.8273,3.7139,3.689,3.6482,3.506,3.3259,3.1959,3.1959,3.157,3.1639,3.2789,3.3822,3.4874,3.6014,3.7261,3.8041,3.8041,3.7987,3.7995,3.8041,3.6898,3.596,3.5493,3.4504,3.3721,3.3246,3.3588,3.3798,3.3777,3.4369,3.4599,0.0,0.0,0.0,0.0,0.0,0.0,0.0,0.0,0.0,0.0,0.0,0.0,0.0,0.0,0.0,0.0,0.0,0.0,0.0,0.0,0.0,0.0,0.0,0.0,0.0,0.0,3.1724,3.1531,3.2691,3.3239,3.2579,3.2749,3.3007,3.3267,3.3444,3.4175,3.5614,3.5483,3.6198,3.8014,3.8276,3.8913,3.999,4.0,4.0113,4.0369,4.0027,3.9948,4.0081,3.9817,3.9567,3.9369,3.9369,3.9081,3.8623,3.8882,3.7318,3.4818,3.4818,3.4818,3.4956,3.5966,3.6346,3.6432,3.6915,3.6904,3.6577,3.5863,3.5087,3.449,3.4749,3.5207,3.5735,3.6238,3.6637,3.7046,3.758,3.8647,3.9384,3.8615,3.9117,3.9489,3.845,3.8208,3.8121,3.7858,3.5954,3.437,3.437,3.386,3.3829,3.5007,3.5606,3.6348,3.7588,3.8403,3.8873,3.8928,3.9042,3.9046,3.883,3.8281,3.7537,3.6509,3.6187,3.5584,3.4545,3.5027,3.5235,3.5012,3.5508,3.5829,3.5977,0.0,0.0,0.0,0.0,0.0,0.0,0.0,0.0,0.0,0.0,0.0,0.0,0.0,0.0,0.0,0.0,0.0,0.0,0.0,0.0,0.0,0.0,0.0,3.0871,3.2274,3.3235,3.3067,3.3776,3.4267,3.425,3.3552,3.4052,3.631,3.581,3.639,3.8709,3.8888,3.915,3.9673,4.0653,4.108,4.0893,4.157,4.1931,4.1906,4.1697,4.1615,4.1609,4.0882,4.0412,4.0163,4.0163,3.9595,3.8738,3.9451,3.9313,3.8675,3.864,3.864,3.864,3.8657,3.8675,3.8675,3.8675,3.8192,3.7702,3.8399,3.8157,3.7691,3.8416,3.8657,3.883,3.9526,3.9464,3.9353,4.0113,4.0317,4.0288,4.0317,4.0612,4.065,3.9829,3.9662,3.9414,3.8628,3.7688,3.7004,3.6953,3.6627,3.6594,3.7228,3.7341,0.0,3.8535,3.8644,3.8697,3.8832,3.9339,3.9382,3.8702,3.9162,3.8877,3.7452,3.7808,3.7386,3.5819,3.6184,3.6228,3.5818,3.6172,3.6334,3.6346,0.0,0.0,0.0,0.0,0.0,0.0,0.0,0.0,0.0,0.0,0.0,0.0,0.0,0.0,0.0,0.0,0.0,0.0,0.0,0.0,0.0,0.0,3.2492,3.2348,3.4178,3.5719,3.6247,3.7487,3.8103,3.7567,3.7782,3.8023,3.812,3.8968,3.9512,3.9601,4.0699,4.141,4.1538,4.2399,4.2798,4.2764,4.2771,4.2576,4.2194,4.1945,4.1913,4.2093,4.1908,4.1647,4.1423,4.1423,4.1053,4.0509,4.0689,4.058,4.021,3.9641,3.9388,3.9468,4.0055,4.0262,4.0262,4.0262,3.9744,3.914,3.9319,3.9261,3.914,3.9347,3.9796,4.0308,4.0503,4.0501,4.047,4.0676,4.0527,4.0379,4.0673,4.06,4.0473,4.0529,4.0652,4.0647,4.0291,3.9868,3.9244,3.8174,3.7975,3.8028,3.8207,0.0,0.0,3.9239,3.9568,3.977,3.9808,4.0388,4.0456,3.9681,3.9415,3.9035,0.0,3.7975,3.7536,3.71,3.687,3.6572,3.6177,3.6971,3.7314,0.0,0.0,0.0,0.0,0.0,0.0,0.0,0.0,0.0,0.0,0.0,0.0,0.0,0.0,0.0,0.0,0.0,0.0,0.0,0.0,0.0,0.0,3.3566,3.4846,3.5711,3.6738,3.7826,3.8924,3.986,4.0368,4.0271,4.035,4.035,4.0271,4.0788,4.1038,4.0913,4.2109,4.2804,4.2804,4.3561,4.3971,4.3971,4.3807,4.3558,4.3268,4.3102,4.2953,4.2804,4.2804,4.2465,0.0,4.1895,4.1635,4.1209,4.1209,4.1088,0.0,0.0,0.0,0.0,0.0,4.0912,4.0912,4.0912,4.0589,4.021,4.021,4.021,4.021,4.021,4.052,4.0912,4.0912,4.0912,4.0912,4.0912,4.0733,4.0631,4.0936,4.077,4.0595,4.0741,4.0866,4.0861,4.0585,0.0,0.0,3.9206,3.8955,3.8887,3.901,3.8884,3.8925,0.0,3.9749,4.0061,4.0111,4.0843,4.1014,4.0235,4.0063,0.0,0.0,0.0,3.7961,3.7604,3.7476,0.0,0.0,0.0,3.7809,0.0,0.0,0.0,0.0,3.7235,3.7225,0.0,0.0,0.0,0.0,0.0,0.0,0.0,0.0,0.0,0.0,0.0,0.0,0.0,0.0,0.0,0.0,3.5832,3.7523,3.9958,3.9744,3.9797,4.1074,4.1234,4.153,4.2226,4.1655,4.152,4.2244,4.1716,4.168,4.2404,0.0,0.0,0.0,0.0,4.4738,4.4738,4.4738,4.4703,4.4614,4.4614,4.4257,4.3633,4.3633,4.3052,4.208,4.208,4.1778,4.1289,4.1289,4.1128,4.093,4.0923,4.0912,4.0912,4.0912,4.0912,0.0,0.0,0.0,0.0,4.0912,4.0912,4.0912,4.0912,4.0912,4.0912,4.0912,4.0912,4.0912,4.093,4.0883,4.0894,4.114,4.103,4.083,4.0707,4.0689,4.0618,4.0252,3.999,3.9914,4.0178,3.9684,3.9362,3.9636,3.9295,0.0,3.9259,3.971,4.0049,4.0149,0.0,0.0,4.0463,4.0779,4.0418,3.9012,3.8923,3.8593,3.7825,3.8131,3.8083,3.7623,3.8043,3.8217,3.8099,3.8453,3.8589,3.853,3.819,3.8158,0.0,0.0,0.0,0.0,0.0,0.0,0.0,0.0,0.0,0.0,0.0,0.0,0.0,0.0,0.0,3.6522,3.7729,3.9387,4.2384,4.2687,4.2455,4.2119,4.2065,4.2137,4.2279,4.2155,4.2137,4.2297,4.2769,4.3097,4.3258,4.3971,0.0,4.5327,4.5488,4.557,4.557,4.557,4.5238,4.4614,0.0,0.0,4.44,4.44,4.3939,4.3195,4.3195,4.2644,4.1766,4.1766,4.1525,4.1117,4.0965,4.0912,4.0912,4.0912,4.0912,4.0912,4.0912,4.0912,4.0912,4.0912,4.0912,4.0912,4.0912,4.0912,0.0,4.0912,4.0912,4.0942,4.1094,4.0782,4.0546,4.1082,4.0919,4.0742,4.1013,4.1255,4.1379,4.13,4.1255,4.1271,4.1507,4.0499,3.977,4.0049,4.0277,4.057,4.0966,4.1105,4.1185,4.1214,4.1383,4.1196,4.0463,4.0479,4.0279,3.9715,3.969,3.9473,3.8994,3.9357,3.9171,3.8396,3.9407,3.9736,3.9354,3.9375,3.9369,3.9362,3.8966,3.8663,0.0,0.0,0.0,0.0,0.0,0.0,0.0,0.0,0.0,0.0,0.0,3.2244,0.0,0.0,3.6862,3.9514,4.0628,4.1831,4.3775,4.374,4.349,4.3447,4.3447,4.3304,4.2947,4.3233,4.3126,4.2351,4.3054,4.3508,4.3508,4.4203,4.497,4.5766,4.6195,4.6391,4.6391,4.6391,4.6195,4.5802,4.5802,4.5588,4.5202,4.5202,4.4774,4.4061,4.4061,4.3469,4.2461,4.1953,4.1609,4.1397,4.1301,4.1105,4.0912,4.0912,4.0965,4.1053,4.1053,4.1152,4.1232,4.1088,4.1053,4.103,4.093,4.0912,4.0918,4.1018,4.0977,4.0942,4.1152,4.0977,4.0865,4.1306,4.1146,4.1024,4.1452,4.1576,4.1637,4.1729,4.1635,4.1624,4.1852,4.1214,4.0691,4.0821,4.082,4.0884,4.1111,4.1349,4.1494,4.1494,4.1731,4.1757,4.1378,4.0978,4.0522,3.9938,4.0279,4.0404,4.0213,4.0646,4.0605,3.9964,4.0301,4.0279,3.9853,3.9678,3.9493,3.9286,3.9088,3.878,0.0,0.0,0.0,0.0,0.0,0.0,0.0,0.0,3.1568,3.1967,3.328,3.4919,3.6765,3.8401,4.0199,4.2376,4.3294,4.4025,4.4935,4.4417,4.4168,4.4756,4.4578,4.4221,4.3757,4.4114,4.3989,4.3047,4.3304,4.3704,4.415,4.4453,4.5042,4.5998,4.6516,4.6848,4.7009,4.7009,4.7009,4.7009,4.7009,4.6659,4.6034,4.6034,4.5588,4.4828,4.4524,4.4006,4.3317,4.2359,4.2031,4.211,4.211,4.1863,4.1434,4.1081,4.1088,4.1266,4.122,4.1386,4.1553,4.1363,4.1277,4.1232,4.1018,4.0989,4.1059,4.1163,4.1123,4.1082,4.1277,4.1312,4.1334,4.1604,4.148,4.1447,4.182,4.1773,4.1719,4.1945,4.1759,4.1708,4.214,4.2021,4.1809,4.1607,4.1299,4.1094,4.1094,4.1423,4.1655,4.1655,4.2044,4.2297,4.2297,4.1708,4.1056,4.0404,4.0967,4.1324,4.1324,4.1745,4.1803,4.1421,4.1047,4.0613,4.0153,3.9825,3.9454,3.9037,3.8928,3.8711,3.0219,2.9893,3.0029,2.9911,3.0355,3.0974,0.0,0.0,3.3632,3.422,3.5972,3.7638,3.8409,4.0397,4.244,4.4078,4.4417,4.5006,4.6516,4.6052,4.557,4.5659,4.4453,4.3847,4.4417,4.3971,4.4114,4.532,4.4221,4.44,4.6509,4.5327,4.5291,4.683,4.6266,4.6284,4.6991,4.7009,4.7009,4.7009,4.7009,4.6955,4.6866,4.6866,4.6427,4.5588,4.4221,4.3943,4.4374,4.3604,4.3575,4.4001,4.4001,4.3807,4.336,4.1754,4.134,4.1509,4.1277,4.1386,4.1593,4.1571,4.156,4.1515,4.1261,4.1329,4.1482,4.1255,4.1363,4.1571,4.1766,4.1686,4.1615,4.1827,4.1831,4.1831,4.1885,4.1874,4.1945,4.2197,4.204,4.2168,4.3148,4.3301,4.2949,4.1991,4.2002,4.2135,4.2135,4.2176,4.2207,4.2207,4.2267,4.2297,4.2297,4.2226,4.2137,4.2047,4.2119,4.2172,4.2172,4.2213,4.2124,4.1842,4.177,4.1401,4.0707,4.0203,3.9701,3.9165,3.8697,3.8434,3.0844,3.0654,0.0,0.0,3.2241,3.3265,3.3868,3.5057,3.6122,3.6483,3.8011,3.9768,4.1264,4.233,4.35,0.0,4.5291,4.5523,4.6212,4.5624,4.5095,4.5095,4.415,4.3971,4.5184,4.5006,4.5113,4.5749,4.5641,4.5766,4.6266,4.5659,4.582,4.6955,4.667,4.6659,4.7009,4.7009,4.7009,4.7009,4.7009,4.7009,4.7009,4.7009,4.683,4.6438,4.532,4.5006,4.5238,4.4471,4.4274,4.4429,4.3991,4.3759,4.3585,4.2985,4.2944,4.3083,4.2513,4.2483,4.2604,4.1975,4.2084,4.235,4.1649,4.1853,4.2206,4.1743,4.1609,4.1648,4.1859,4.1838,4.1795,4.1892,4.1895,4.1938,4.2093,4.2019,4.1988,4.2256,4.2215,4.228,4.2723,4.3197,4.3351,4.29,4.3284,4.3483,4.3054,4.3001,4.2822,4.2351,4.2715,4.2804,4.2333,4.2297,4.2297,4.2297,4.2297,4.2297,4.2297,4.2297,4.2246,4.2135,4.1988,4.169,4.1266,4.0412,3.98,3.9414,3.8722,3.8391,3.1132,0.0,0.0,3.2838,3.4214,3.5527,3.6249,3.7482,3.8535,3.8831,4.011,4.1667,4.3218,4.3668,0.0,4.5291,4.5659,4.5731,4.5506,4.497,4.4614,4.4614,4.3561,4.3615,4.5624,4.5802,4.607,4.6719,4.6908,4.6848,4.648,4.6248,4.6391,4.6973,4.7009,4.7009,4.7009,4.7009,4.7009,4.7009,4.7009,4.7009,4.7009,4.7009,4.7009,4.6955,4.6159,4.5927,4.607,4.5256,4.506,4.5202,4.4667,4.4482,4.4492,4.4667,4.4478,4.4017,4.3567,4.3592,4.3672,4.2896,4.2906,4.3093,4.252,4.248,4.2646,4.2592,4.2343,4.2169,4.2303,4.2346,4.2292,4.2062,4.2019,4.2115,4.2541,4.2295,4.2132,4.2541,4.2626,4.2708,4.2894,4.3607,4.4203,4.4417,4.4917,4.4846,4.365,4.3311,4.2947,4.2351,4.2822,4.2929,4.2351,4.2297,4.2297,4.2297,4.2297,4.2297,4.2297,4.2297,4.2297,4.2297,4.204,4.1712,4.1323,4.0424,3.9761,3.9312,3.8697,3.8391,0.0,0.0,3.2762,3.4415,3.5886,3.7297,3.8669,3.9829,4.076,4.1286,4.2454,4.3429,4.349,4.4068,4.4578,4.4631,4.5291,4.5523,4.4756,4.4621,4.4614,4.4614,4.2562,4.2394,0.0,4.5802,4.6736,4.902,4.7836,4.733,4.8091,4.7384,4.6973,4.7009,4.7009,4.7009,4.7009,4.7009,4.7009,4.7009,4.7009,4.7009,4.7009,4.7009,4.7009,4.6955,4.6159,4.623,4.6902,4.6105,4.6212,4.692,4.6902,4.6884,4.6902,4.6897,4.5459,4.359,4.4095,4.4392,4.4549,4.4531,4.405,4.3579,4.4066,4.3337,4.2574,4.3871,4.3852,4.3433,4.3461,4.3461,4.3247,4.2465,4.2287,4.2501,4.3294,4.283,4.2519,4.3311,4.3454,4.3686,4.4417,4.5202,4.5998,4.6777,4.692,4.6088,4.3793,4.2822,4.2333,4.2297,4.2315,4.2333,4.2297,4.2297,4.2297,4.2297,4.2297,4.2297,4.2297,4.2297,4.2297,4.2297,4.204,4.1479,4.0625,4.0215,3.9532,3.863,3.8462,3.8391,0.0,0.0,3.5993,3.713,3.889,4.0493,4.1137,4.1836,4.2141,4.1401,4.0776,4.0386,4.0386,4.0146,4.0289,4.1314,4.3044,4.4185,4.3918,4.4293,4.4025,4.2455,4.2055,0.0,0.0,0.0,0.0,4.764,4.7794,4.7681,4.7419,4.7152,4.7009,4.7009,4.7009,4.7009,4.7009,4.7009,4.7009,4.7009,4.7009,4.7009,4.7009,4.7009,4.7009,4.6973,4.6723,4.6748,4.6973,4.6723,4.6759,4.6955,4.6409,4.6195,4.6195,4.6195,4.5695,4.4988,4.4615,4.453,4.4524,4.4025,4.4025,4.4253,4.4437,4.4559,4.4614,4.4526,4.4025,4.3615,4.4096,4.3472,4.2769,4.3036,4.269,4.2369,4.2654,4.2494,4.2547,4.3347,4.3508,4.374,4.4471,4.5274,4.607,4.6884,4.6563,4.5927,4.5131,4.4785,4.4428,4.3893,4.4303,4.4214,4.3169,4.3108,4.2876,4.2333,4.2297,4.2297,4.2297,4.2297,4.2297,4.2297,4.2215,4.1863,4.1249,4.0861,4.019,3.9259,3.8942,3.8655,0.0,3.5988,3.8565,3.9727,4.1211,4.2438,4.2765,4.2818,4.2396,4.0979,3.9508,3.8482,3.838,3.7702,3.7496,3.8477,4.019,4.1492,4.1777,4.2241,4.2384,4.1991,4.1912,0.0,0.0,0.0,0.0,4.7294,4.7913,4.7859,4.7045,4.7009,4.7009,4.7009,4.7009,4.7009,4.7009,4.7009,4.7009,4.7009,4.7009,4.7009,4.7009,4.7009,4.7009,4.7009,4.7009,4.7009,4.7009,4.7009,4.7009,4.6955,4.6427,4.623,4.623,4.623,4.623,4.6159,4.5641,4.5452,4.5381,4.4899,4.4881,4.5077,4.5363,4.5416,4.5381,4.5434,4.4917,4.4364,4.4549,4.4089,4.3536,4.3508,4.3304,4.3197,4.3483,4.3322,4.3358,4.4178,4.4328,4.4471,4.4953,4.5713,4.6391,4.692,4.6551,4.6123,4.5838,4.5541,4.5167,4.4667,4.506,4.497,4.3989,4.39,4.3561,4.2769,4.2744,4.2601,4.2315,4.2297,4.2297,4.2297,4.2142,4.1838,4.1379,4.0784,4.0128,3.9378,3.9246,3.8902,3.5879,3.8162,4.0487,4.2066,4.276,4.3144,4.3476,4.2767,4.1594,4.0103,3.8735,3.7717,0.0,0.0,3.631,3.6381,3.7175,3.8068,3.887,3.9084,4.0243,0.0,0.0,0.0,0.0,0.0,0.0,4.7966,0.0,4.7812,4.7045,4.7009,4.7009,4.7009,4.7009,4.7009,4.7009,4.7009,4.7009,4.7009,4.7009,4.7009,4.7009,4.7009,4.7009,4.7009,4.7009,4.7009,4.7009,4.7009,4.7009,4.7009,4.7009,4.7009,4.7009,4.7009,4.7009,4.7009,4.7009,4.6973,4.6938,4.6938,4.6409,4.5945,4.6759,4.5927,4.5042,4.6569,4.6409,4.5641,4.4917,4.522,4.5381,4.3954,4.4114,4.481,4.5559,4.5131,4.4846,4.5641,4.5838,4.5856,4.5856,4.648,4.7009,4.7009,4.7009,4.6712,4.5963,4.5184,4.4721,4.4721,4.4721,4.4703,4.4614,4.4638,4.431,4.349,4.3508,4.3187,4.2387,4.2404,4.2422,4.2422,4.1972,4.1547,4.1105,4.0218,3.9557,3.9114,3.9428,3.9212,3.778,4.0347,4.2824,4.3259,4.3639,4.3744,4.3137,4.1922,4.0454,3.8815,3.668,3.4885,0.0,0.0,0.0,3.6203,3.854,0.0,4.1298,4.2912,0.0,0.0,0.0,4.4839,4.5434,4.5488,0.0,0.0,4.7312,4.7223,4.7009,4.7009,4.7009,4.7009,4.7009,4.7009,4.7009,4.7009,4.7009,4.7009,4.7009,4.7009,4.7009,4.7009,4.7009,4.7009,4.7009,4.7009,4.7009,4.7009,4.7009,4.7009,4.7009,4.7009,4.7009,4.7009,4.7009,4.7009,4.7009,4.6605,4.6105,4.6105,4.5963,4.5945,4.6759,4.6723,4.6462,4.6884,4.6409,4.5891,4.6284,4.5648,4.4953,4.5149,4.4899,4.4667,4.4863,4.4738,4.4846,4.5641,4.6284,4.6688,4.6688,4.6866,4.7009,4.7009,4.7009,4.6938,4.6723,4.6516,4.6391,4.6391,4.6391,4.5909,4.4703,4.5149,4.4678,4.2744,4.3686,4.3971,4.3233,4.3722,4.4007,4.4007,4.3899,4.3443,4.2646,4.2396,4.1696,4.0579,4.0646,4.043,4.0106,4.2223,4.4183,4.4033,4.3767,4.3081,4.1304,3.9952,3.8424,3.6248,3.4447,0.0,0.0,0.0,0.0,0.0,0.0,0.0,4.0985,4.2376,4.3525,0.0,4.5267,0.0,4.6284,4.632,4.6516,0.0,4.7009,4.7009,4.7009,4.7009,4.7009,4.7009,4.7009,4.7009,4.7009,4.7009,4.7009,4.7009,4.7009,4.7009,4.7009,4.7009,4.7009,4.7009,0.0,4.7009,4.7009,4.7009,4.7009,4.7009,4.7009,4.7009,4.7009,4.7009,4.7009,4.7009,4.7009,4.6694,4.632,4.632,4.632,4.6409,4.6866,4.7009,4.7009,4.7009,4.667,4.6355,4.6444,4.607,4.5677,4.5784,4.5731,4.5648,4.5648,4.5648,4.5784,4.623,4.6688,4.7009,4.7009,4.7009,4.7009,4.7009,4.7009,4.7009,4.7009,4.7009,4.7009,4.7009,4.7009,4.6623,4.5731,4.607,4.5606,4.3929,4.466,4.4774,4.4007,4.4382,4.4614,4.4614,4.4398,4.3933,4.3192,4.2791,4.2068,4.1107,4.1247,4.1041,4.235,4.372,4.4808,4.4471,4.3452,4.1801,3.9013,3.7661,3.6212,3.3443,0.0,3.2433,3.2838,0.0,3.3392,3.4401,0.0,3.6783,3.994,4.0546,4.1991,4.5534,4.6052,4.6391,4.7098,4.7062,4.7009,4.7009,4.7009,4.7009,4.7009,4.7009,4.7009,4.7009,4.7098,4.7116,4.7009,4.7116,4.7116,4.7009,4.7009,4.7009,4.7009,4.7009,4.7009,4.7009,0.0,0.0,4.7009,4.7009,4.7009,4.7009,4.7009,4.7009,4.7009,4.7009,4.7009,4.7009,4.7009,4.7009,4.7009,4.7009,4.7009,4.7009,4.7009,4.7009,4.7009,4.7009,4.7009,4.6848,4.6141,4.648,4.683,4.6123,4.648,4.7009,4.7009,4.7009,4.7009,4.7009,4.7009,4.7009,4.7009,4.7009,4.7009,4.7009,4.7009,4.7009,4.7009,4.7009,4.7009,4.7009,4.7009,4.6955,4.6848,4.6938,4.6605,4.5713,4.5838,4.5595,4.4792,4.4863,4.4917,4.4917,4.4526,4.4037,4.3499,4.2692,4.2002,4.1488,4.172,4.1492,4.3246,4.4175,4.4802,4.4409,4.3001,4.0992,3.8287,3.6775,0.0,0.0,0.0,3.2873,3.2906,3.3445,0.0,3.664,0.0,0.0,0.0,0.0,4.5285,0.0,0.0,0.0,0.0,0.0,0.0,0.0,0.0,0.0,4.7009,4.7009,4.7009,4.7009,4.7651,4.7669,4.7009,4.7663,4.7663,4.7009,4.7009,4.7009,4.7009,4.7009,4.7009,4.7009,0.0,0.0,4.7009,4.7009,4.7009,4.7009,4.7009,4.7009,4.7009,4.7009,4.7009,4.7009,4.7009,4.7009,4.7009,4.7009,4.7009,4.7009,4.7009,4.7009,4.7009,4.7009,4.7009,4.6973,4.683,4.6902,4.6973,4.683,4.6902,4.7009,4.7009,4.7009,4.7009,4.7009,4.7009,4.7009,4.7009,4.7009,4.7009,4.7009,4.7009,4.7009,4.7009,4.7009,4.7009,4.7009,4.7009,4.6741,4.607,4.6616,4.6373,4.4899,4.607,4.6427,4.5641,4.623,4.6569,4.6569,4.6501,4.6005,4.51,4.4945,4.4402,4.3487,4.3149,4.2939,4.4099,4.4611,4.4663,4.3711,4.2168,3.992,3.6208,0.0,0.0,0.0,0.0,3.2488,3.2844,0.0,0.0,0.0,0.0,0.0,0.0,0.0,0.0,0.0,0.0,0.0,0.0,0.0,0.0,0.0,0.0,0.0,4.7009,4.7009,4.7187,4.7609,4.8002,4.802,4.7616,4.802,4.7806,4.7009,4.7009,4.7009,4.7009,4.7009,4.7009,4.7009,0.0,0.0,4.7009,4.7009,4.7009,4.7009,4.7009,4.7009,4.7009,4.7009,4.7009,4.7009,4.7009,4.7009,4.7009,4.7009,4.7009,4.7009,4.7009,4.7009,4.7009,4.7009,4.7009,4.7009,4.7009,4.7009,4.7009,4.7009,4.7009,4.7009,4.7009,4.7009,4.7009,4.7009,4.7009,4.7134,4.7544,4.7277,4.7134,4.7562,4.7277,4.7009,4.7009,4.7009,4.7009,4.7009,4.7009,4.6848,4.6474,4.6777,4.667,4.5909,4.6569,4.683,4.6444,4.6795,4.7009,4.7009,4.6737,4.623,4.5511,4.521,4.4574,4.3634,4.3396,4.3171,4.4421,4.4762,4.4537,4.3014,4.1218,3.8623,3.4076,3.3044,0.0,0.0,3.0776,3.2253,3.2809,0.0,0.0,0.0,0.0,0.0,0.0,0.0,0.0,0.0,0.0,0.0,0.0,0.0,0.0,0.0,0.0,0.0,0.0,4.7098,4.7437,4.8401,4.8288,4.8199,4.8199,4.8199,4.7806,4.7009,4.7009,4.7009,4.7009,4.7009,4.7009,4.7009,0.0,0.0,0.0,4.7009,4.7009,4.7009,4.7009,4.7009,4.7009,4.7009,4.7009,4.7009,4.7009,4.7009,4.7009,4.7009,4.7009,4.7009,4.7009,4.7009,4.7009,4.7009,4.7116,4.7223,4.7045,4.7134,4.7205,4.7045,4.7009,4.7009,4.7009,4.7009,4.7045,4.7223,4.7259,4.7509,4.8294,4.7776,4.7526,4.8312,4.7616,4.7062,4.7223,4.7116,4.7009,4.7009,4.7009,4.7009,4.7009,4.7009,4.7009,4.7009,4.7009,4.7009,4.7009,4.7009,4.6968,4.6911,4.6506,4.6057,4.5567,4.5028,4.4384,4.3604,4.3396,4.3095,4.3587,4.4345,4.4499,4.2842,4.0298,3.7101,3.2832,0.0,0.0,2.8885,3.0807,3.2957,3.2906,0.0,0.0,0.0,0.0,3.8702,0.0,0.0,0.0,0.0,0.0,0.0,0.0,0.0,0.0,0.0,0.0,0.0,0.0,4.7402,4.7676,4.9145,4.8544,4.8199,4.8199,4.8199,4.7806,4.7009,4.7009,4.7009,4.7009,4.7009,4.7009,4.7009,0.0,0.0,0.0,4.7009,4.7009,4.7009,4.7009,4.7009,4.7009,4.7009,4.7009,4.7009,4.7009,4.7009,4.7009,4.7009,4.7009,4.7009,4.7009,4.7009,4.7009,4.7009,4.7526,4.7931,4.7187,4.7544,4.7913,4.717,4.7009,4.7009,4.7009,4.7009,4.7223,4.7949,4.8091,4.833,4.9073,4.8568,4.8347,4.9091,4.7943,4.7259,4.8002,4.7455,4.7009,4.7009,4.7009,4.7009,4.7009,4.7009,4.7009,4.7009,4.7009,4.7009,4.7009,4.7009,4.6888,4.6637,4.659,4.6296,4.5773,4.5298,4.4879,4.4538,4.3708,4.3276,4.3129,4.3987,4.3895,4.221,3.9704,3.6749,3.3319,0.0,3.1527,3.0027,3.1443,3.3106,3.3543,0.0,0.0,0.0,0.0,0.0,0.0,0.0,0.0,0.0,0.0,0.0,0.0,0.0,0.0,0.0,0.0,0.0,0.0,4.8568,4.8461,4.8621,4.8782,4.8871,4.8871,4.8871,4.871,4.8377,4.8377,4.8157,4.7741,4.8175,4.789,4.7027,0.0,0.0,0.0,4.7009,4.7009,4.7009,4.7009,4.7009,4.7009,4.7009,4.7009,4.7009,4.7009,4.7009,4.7009,4.7009,4.7009,4.7009,4.7009,4.733,4.7723,4.7723,4.7949,4.8127,4.7812,4.7598,4.7526,4.7681,4.7348,4.7259,4.8181,4.8044,4.7955,4.871,4.8508,4.8579,4.9805,4.9008,4.8615,4.984,4.9091,4.8502,4.8817,4.8586,4.8377,4.8377,4.7991,4.7723,4.7723,4.7723,4.7723,4.7723,4.7723,4.7509,4.7027,4.7473,4.7445,4.6842,4.6513,4.6247,4.6038,4.5245,4.4663,4.4274,4.4069,4.3566,4.1176,4.2506,4.2888,4.0996,3.8648,3.6009,0.0,0.0,3.1277,3.0485,3.1706,3.3094,3.3642,3.4535,3.5391,0.0,0.0,3.7505,0.0,0.0,0.0,0.0,0.0,0.0,0.0,0.0,0.0,0.0,0.0,0.0,0.0,4.9412,4.9317,4.8544,4.8586,4.8841,4.9293,4.8841,4.8841,4.9293,4.8841,4.8586,4.8526,4.8586,4.8157,0.0,0.0,0.0,0.0,4.7009,4.7009,4.7009,4.7009,4.7009,4.7009,4.7009,4.7009,4.7009,4.7009,4.7009,4.7009,4.7009,4.7009,4.7009,4.7009,4.7562,4.8199,4.8199,4.8038,4.7895,4.8145,4.7598,4.7205,4.802,4.7592,4.7366,4.8693,4.8579,4.8419,4.9162,4.9067,4.9293,5.0637,4.9757,4.9329,5.0655,4.9965,4.9382,4.9626,4.9448,4.9293,4.9293,4.9049,4.8776,4.8544,4.8526,4.8526,4.8526,4.8526,4.8169,4.7384,4.8115,4.8009,4.6906,4.6736,4.6402,4.5882,4.5014,4.4342,4.3798,4.385,4.3417,3.7062,3.9489,4.1441,3.9029,3.6915,3.4554,0.0,0.0,3.055,2.9612,3.1331,3.2971,3.2916,3.4169,3.5195,0.0,0.0,0.0,0.0,0.0,0.0,0.0,0.0,0.0,0.0,0.0,0.0,0.0,0.0,0.0,0.0,0.0,5.0126,4.9323,4.7818,4.7765,4.9287,4.7783,4.7783,4.9275,4.7747,4.7818,4.9252,4.7711,0.0,0.0,0.0,0.0,0.0,4.7009,4.7009,4.7009,4.7009,4.7009,4.7009,4.7009,4.7009,4.7009,4.7009,4.7009,4.7009,4.7009,4.7009,4.7009,4.7009,4.7562,4.8199,4.8199,4.7616,4.7205,4.7984,4.7598,4.7205,4.802,4.7592,4.7223,4.8038,4.8216,4.8419,4.9162,4.9929,5.0727,5.1547,5.1012,5.0744,5.1578,5.0322,4.959,5.0388,4.9787,4.9293,4.9293,5.0001,5.0143,4.9359,4.9287,4.9287,4.9287,4.9287,4.896,4.8216,4.8907,4.8449,4.6649,4.7386,4.6896,4.5108,4.4629,4.4023,4.3291,4.2836,4.2602,3.5736,3.6595,3.6795,3.6153,3.4125,3.1969,3.0887,0.0,2.9901,3.0108,3.164,3.3085,3.3624,3.4535,3.5373,0.0,0.0,0.0,0.0,0.0,0.0,0.0,0.0,0.0,0.0,0.0,0.0,0.0,0.0,0.0,0.0,0.0,4.9323,4.8579,4.8062,4.8562,5.0108,4.9091,4.9091,5.0126,5.0174,4.9888,4.9311,4.9924,0.0,0.0,0.0,0.0,0.0,4.7009,4.7009,4.7009,4.7009,4.7009,4.7009,4.7009,4.7009,4.7009,4.7009,4.7009,4.7009,4.7009,4.7009,4.7098,4.7651,4.8002,4.8199,4.8199,4.8383,4.8514,4.8258,4.802,4.8151,4.946,4.8776,4.8341,5.0186,5.0168,4.9995,5.078,5.0709,5.0762,5.1547,5.103,5.078,5.1583,5.1262,5.103,5.128,5.1101,5.0941,5.0941,5.1173,5.0994,5.0179,5.0126,5.0126,5.0126,5.0126,4.9769,4.8978,4.9698,4.9352,4.7725,4.7579,4.6825,4.5368,4.4518,4.3944,4.3552,4.2892,4.2861,0.0,3.3977,3.4189,3.3919,3.2383,0.0,0.0,0.0,2.9612,3.0343,3.1536,3.2785,3.3901,3.4696,3.5463,0.0,0.0,0.0,0.0,0.0,0.0,0.0,0.0,0.0,0.0,0.0,0.0,0.0,0.0,0.0,0.0,0.0,4.9091,4.8633,4.8347,4.8794,5.0036,4.9555,4.9698,5.0513,5.0709,5.0602,5.0215,0.0,0.0,0.0,0.0,0.0,0.0,4.7009,4.7009,4.7009,4.7009,4.7009,4.7009,4.7009,4.7009,4.7009,4.7009,4.7009,4.7009,4.7009,4.7009,4.7098,4.7598,4.7966,4.827,4.8544,4.8746,4.8835,4.8657,4.8633,4.8925,5.0209,4.9531,4.9097,5.0869,5.0852,5.0655,5.1155,5.1083,5.1101,5.1613,5.128,5.1119,5.1619,5.1703,5.1703,5.1703,5.1703,5.1703,5.1703,5.1703,5.1494,5.0994,5.0959,5.0959,5.0959,5.0959,5.0602,4.9787,5.053,5.0209,4.8651,4.828,4.7452,4.6107,4.489,4.4255,4.4107,4.3363,4.3266,0.0,0.0,0.0,0.0,0.0,0.0,0.0,0.0,0.0,3.0343,3.1135,3.2188,3.3804,3.4696,3.5463,0.0,0.0,0.0,0.0,0.0,0.0,0.0,0.0,0.0,0.0,0.0,0.0,0.0,0.0,0.0,0.0,0.0,0.0,4.9376,4.8669,4.8669,4.9454,4.94,4.9769,5.0482,4.9805,5.0215,5.1542,0.0,0.0,0.0,0.0,0.0,0.0,4.7009,4.7009,4.7009,4.7009,4.7009,4.7009,4.7009,4.7009,4.7009,4.7009,4.7009,4.7009,4.7009,4.7009,4.7009,4.7009,4.7562,4.833,4.902,4.8817,4.8508,4.9216,4.9382,4.959,5.0393,4.9965,4.9608,5.0423,5.0602,5.0602,5.0602,5.1191,5.1703,5.1703,5.1703,5.1703,5.1703,5.1703,5.1703,5.1703,5.1703,5.1703,5.1703,5.1703,5.1703,5.1703,5.1703,5.1703,5.1703,5.1703,5.1351,5.062,5.1298,5.0964,4.9394,4.9196,4.8415,4.7025,4.5528,4.4804,4.4771,4.4107,4.3767,0.0,0.0,0.0,0.0,0.0,0.0,0.0,0.0,0.0,0.0,0.0,3.2188,3.3804,3.4696,3.5463,0.0,0.0,0.0,0.0,0.0,0.0,0.0,0.0,0.0,0.0,0.0,0.0,0.0,0.0,0.0,0.0,0.0,0.0,5.0197,4.9448,4.9727,5.1119,5.053,5.0304,5.0513,5.0923,5.1012,5.0762,0.0,0.0,0.0,0.0,0.0,4.7009,4.7009,4.7009,4.7009,4.7009,4.7009,4.7009,4.7009,4.7009,4.7009,4.7009,4.7009,4.7009,4.7009,4.7009,4.7009,4.7009,4.7562,4.8234,4.8401,4.9186,4.9995,5.0161,5.0215,5.0411,5.1226,5.0798,5.0441,5.1244,5.1422,5.1422,5.1422,5.1565,5.1703,5.1703,5.1703,5.1703,5.1703,5.1703,5.1703,5.1703,5.1703,5.1703,5.1703,5.1703,5.1703,5.1703,5.1703,5.1703,5.1703,5.1703,5.1631,5.1422,5.1601,5.1139,4.9953,4.8152,4.6966,4.64,4.5323,4.4804,4.4804,4.4609,4.4544,0.0,0.0,0.0,0.0,0.0,0.0,0.0,0.0,0.0,0.0,0.0,3.1867,3.4178,0.0,0.0,0.0,0.0,0.0,0.0,0.0,0.0,0.0,0.0,0.0,0.0,0.0,0.0,0.0,0.0,0.0,0.0,0.0,0.0,0.0,4.9341,4.9894,5.1137,5.0727,5.0513,5.0513,5.1315,5.1458,5.103,0.0,0.0,0.0,0.0,0.0,4.7009,4.7009,4.7009,4.7009,4.7009,4.7009,4.7045,4.7402,4.7544,4.7544,4.7544,4.7312,4.7009,4.7009,4.7241,4.7544,4.7544,4.8347,4.9186,4.88,4.9567,5.0602,5.0959,5.1048,5.1155,5.1601,5.1369,5.1173,5.1613,5.1703,5.1703,5.1703,5.1703,5.1703,5.1703,5.1703,5.1703,5.1703,5.1703,5.1703,5.1703,5.1703,5.1703,5.1703,5.1703,5.1703,5.1703,5.1703,5.1703,5.1703,5.1703,5.1703,5.1703,5.1703,5.111,4.9897,4.8618,4.7529,4.6663,4.6159,4.586,4.576,4.5419,4.5257,0.0,0.0,0.0,0.0,0.0,0.0,0.0,0.0,0.0,0.0,0.0,0.0,0.0,0.0,0.0,0.0,0.0,0.0,0.0,0.0,0.0,0.0,0.0,0.0,0.0,0.0,0.0,0.0,0.0,0.0,0.0,0.0,0.0,0.0,4.8817,4.9573,5.0482,5.0375,5.0429,5.0691,5.1244,5.1524,5.1476,5.0816,0.0,0.0,0.0,0.0,4.7009,4.7009,4.7009,4.7009,4.7009,4.7009,4.7098,4.7901,4.8127,4.802,4.802,4.7562,4.7027,4.7134,4.7634,4.8216,4.8341,4.9383,5.0358,4.968,5.0054,5.0834,5.1512,5.1703,5.1703,5.1703,5.1703,5.1703,5.1703,5.1703,5.1703,5.1703,5.1703,5.1703,5.1703,5.1703,5.1703,5.1703,5.1703,5.1703,5.1703,5.1703,5.1703,5.1703,5.1703,5.1703,5.1703,5.1703,5.1703,5.1703,5.1703,5.1703,5.1703,5.1559,5.0929,4.9734,4.947,4.8666,4.7319,4.7201,4.7064,4.6877,4.6261,4.5969,2.8264,2.7727,2.7387,2.8129,2.8224,0.0,0.0,0.0,0.0,0.0,0.0,0.0,0.0,0.0,0.0,0.0,0.0,0.0,0.0,0.0,0.0,0.0,0.0,0.0,0.0,0.0,0.0,0.0,0.0,0.0,0.0,0.0,0.0,0.0,0.0,4.9061,5.0495,4.9822,5.0161,5.1512,5.0959,5.0691,5.0691,5.0566,4.971,0.0,0.0,4.7741,4.7009,4.7009,4.7009,4.7009,4.7009,4.7009,4.7098,4.7901,4.777,4.7187,4.7187,4.7098,4.7116,4.7788,4.8109,4.8323,4.8942,4.9769,5.0465,5.034,5.0905,5.153,5.1672,5.1703,5.1703,5.1703,5.1703,5.1703,5.1703,5.1703,5.1703,5.1703,5.1703,5.1703,5.1703,5.1703,5.1703,5.1703,5.1703,5.1703,5.1703,5.1703,5.1703,5.1703,5.1703,5.1703,5.1703,5.1703,5.1703,5.1703,5.1703,5.1703,5.1703,5.0929,5.0418,5.0209,4.8851,4.8048,4.7787,4.7218,4.6944,4.6893,4.678,4.6731,2.7707,2.7676,2.7753,2.764,0.0,2.7964,2.9165,0.0,0.0,0.0,0.0,0.0,0.0,0.0,0.0,0.0,0.0,0.0,0.0,0.0,0.0,0.0,0.0,0.0,0.0,0.0,0.0,0.0,0.0,0.0,0.0,0.0,0.0,0.0,0.0,0.0,5.0477,4.8889,4.9067,5.1048,5.0691,5.0268,4.9876,5.0744,5.0079,0.0,0.0,4.8508,4.7062,4.7907,4.7747,4.7045,4.7473,4.7384,4.7098,4.7901,4.7966,4.7705,4.8104,4.7979,4.7776,4.8532,4.9085,4.9513,4.9852,5.0513,5.1155,5.1155,5.1405,5.1703,5.1703,5.1703,5.1703,5.1703,5.1703,5.1703,5.1703,5.1703,5.1703,5.1703,5.1703,5.1845,5.2274,5.2345,5.2345,5.2345,5.2345,5.2345,5.2345,5.197,5.1881,5.2292,5.197,5.1703,5.1703,5.1703,5.1703,5.1703,5.1703,5.1703,5.1703,5.096,5.0563,5.0563,4.9355,4.8527,4.8177,4.7688,4.7253,4.6893,4.6893,4.6893,2.7495,2.7781,2.8116,0.0,0.0,2.7806,2.9537,0.0,0.0,0.0,0.0,0.0,0.0,0.0,0.0,0.0,0.0,0.0,0.0,0.0,0.0,0.0,0.0,0.0,0.0,0.0,0.0,0.0,0.0,0.0,0.0,0.0,0.0,0.0,0.0,0.0,4.9942,4.7991,4.8175,5.0513,5.0304,4.9805,4.9091,5.0691,5.015,4.8002,4.9549,4.8996,4.7116,4.8478,4.8247,4.7062,4.7681,4.7663,4.733,4.7759,4.8163,4.8508,4.8907,4.8782,4.8579,4.9341,5.0001,5.0548,5.0727,5.1208,5.1703,5.1703,5.1703,5.1703,5.1703,5.1703,5.1703,5.1703,5.1703,5.1703,5.1703,5.1703,5.1756,5.1935,5.1988,5.2238,5.3023,5.3166,5.3166,5.3166,5.3166,5.3166,5.3166,5.2618,5.2404,5.2845,5.2345,5.1899,5.1721,5.1703,5.1703,5.1703,5.1703,5.1703,5.1703,5.1127,5.0789,5.0789,4.9826,4.9084,4.8573,4.8081,4.7588,4.7082,4.6945,4.6893,2.8208,2.8203,2.8185,2.8124,2.8124,0.0,3.1011,3.2107,0.0,0.0,0.0,0.0,0.0,0.0,0.0,0.0,0.0,0.0,0.0,0.0,0.0,0.0,0.0,0.0,0.0,0.0,0.0,0.0,0.0,0.0,0.0,0.0,0.0,0.0,0.0,0.0,4.8359,4.7455,4.8175,5.0482,4.9733,4.9014,4.8341,4.987,4.9317,4.717,4.8716,4.8478,4.7062,4.7931,4.7759,4.7009,4.7062,4.7509,4.8038,4.733,4.7997,4.9127,4.8508,4.8693,4.9359,5.0143,5.0447,5.0637,5.1387,5.1637,5.1703,5.1703,5.1703,5.1703,5.1703,5.1703,5.1703,5.1703,5.1703,5.1703,5.1703,5.1703,5.1917,5.2666,5.2822,5.3059,5.38,5.3912,5.3912,5.3912,5.3912,5.3912,5.3912,5.3859,5.3586,5.297,5.2845,5.2506,5.1762,5.1703,5.1703,5.1703,5.1703,5.1703,5.1703,5.1127,5.0789,5.0789,4.9693,4.9095,4.905,4.8161,4.7688,4.7638,4.7133,4.6893,2.7618,2.783,2.8088,2.7578,2.7828,0.0,0.0,3.2321,3.3285,0.0,0.0,0.0,0.0,0.0,0.0,0.0,0.0,0.0,0.0,0.0,0.0,0.0,0.0,0.0,0.0,0.0,0.0,0.0,0.0,0.0,0.0,0.0,0.0,0.0,0.0,0.0,0.0,4.7634,4.7925,4.9751,4.9448,4.8645,4.7526,4.9567,4.9495,4.7794,4.8841,4.8966,4.8485,4.9299,4.8883,4.7752,4.7752,4.7616,4.7526,4.8193,4.8514,4.8722,4.9388,4.9817,5.0179,5.0976,5.1244,5.1298,5.1613,5.1703,5.1703,5.1703,5.1703,5.1703,5.1703,5.2077,5.2327,5.1828,5.244,5.2873,5.1904,5.2457,5.3082,5.2934,5.326,5.3818,5.4603,5.4746,5.4746,5.4746,5.4746,5.4746,5.4746,5.4318,5.389,5.3604,5.2725,5.2042,5.1738,5.1703,5.1703,5.1703,5.1703,5.1703,5.1703,5.1127,5.0982,5.1354,5.0198,4.9637,4.9725,4.8652,4.8199,4.8313,4.7817,4.7815,2.754,2.7794,2.8124,0.0,0.0,0.0,3.2206,3.3249,3.4088,0.0,0.0,0.0,0.0,0.0,0.0,0.0,0.0,0.0,0.0,0.0,0.0,0.0,0.0,0.0,0.0,0.0,0.0,0.0,0.0,0.0,0.0,0.0,0.0,0.0,0.0,0.0,0.0,4.7533,4.7533,4.8574,4.8823,4.8407,4.7455,4.9549,4.9513,4.7883,4.9139,4.9394,4.9002,4.9805,4.921,4.7824,4.7824,4.7634,4.7509,4.8568,4.8942,4.9079,5.0138,5.0673,5.0976,5.1512,5.1703,5.1703,5.1703,5.1703,5.1703,5.1703,5.1703,5.1703,5.1703,5.2292,5.2756,5.2202,5.3064,5.3711,5.2641,5.3265,5.3925,5.3671,5.4028,5.4639,5.5455,5.558,5.558,5.558,5.558,5.558,5.558,5.5103,5.4567,5.4037,5.2618,5.1703,5.1703,5.1703,5.181,5.206,5.2077,5.197,5.1721,5.1297,5.1232,5.1564,5.0667,5.0233,5.0331,4.9321,4.8922,4.9078,4.861,4.863,2.828,2.8257,0.0,0.0,0.0,0.0,3.4481,3.5257,0.0,0.0,0.0,0.0,0.0,0.0,0.0,0.0,0.0,0.0,0.0,0.0,0.0,0.0,0.0,0.0,0.0,0.0,0.0,0.0,0.0,0.0,0.0,0.0,0.0,0.0,0.0,0.0,0.0,4.7009,4.7009,4.7027,4.7824,4.8199,4.8234,4.9781,4.921,4.7134,4.946,4.9603,4.8288,4.9002,4.8413,4.7027,4.7027,4.7491,4.8199,4.8216,4.9186,5.0482,5.0513,5.103,5.1703,5.1703,5.1703,5.1703,5.1703,5.1703,5.1703,5.1703,5.1703,5.1703,5.1703,5.2292,5.2911,5.2911,5.3474,5.4001,5.4001,5.4001,5.4264,5.5049,5.521,5.5473,5.6258,5.6401,5.6401,5.6401,5.6401,5.6401,5.6401,5.6383,5.5776,5.4175,5.2623,5.1721,5.1708,5.1721,5.206,5.2858,5.2898,5.2541,5.1756,5.1721,5.1594,5.1311,5.0986,5.0807,5.0807,5.0125,4.9827,4.9904,4.9501,4.9209,2.8223,0.0,0.0,0.0,0.0,0.0,0.0,0.0,0.0,0.0,0.0,0.0,0.0,0.0,0.0,0.0,0.0,0.0,0.0,0.0,0.0,0.0,0.0,0.0,0.0,0.0,0.0,0.0,0.0,0.0,0.0,0.0,0.0,0.0,0.0,0.0,0.0,0.0,4.7277,4.7859,4.8091,4.7901,4.7384,4.8419,4.849,4.7848,4.7991,4.871,4.9834,5.0049,4.9537,4.8609,4.8609,4.8443,4.8323,4.9418,4.9745,4.9822,5.0959,5.1494,5.1703,5.1703,5.1703,5.1703,5.1703,5.1703,5.1703,5.1703,5.1703,5.1703,5.1703,5.2689,5.3546,5.3023,5.3903,5.4692,5.4108,5.4888,5.5598,5.5263,5.5669,5.6115,5.6347,5.6401,5.6401,5.6401,5.6401,5.6401,5.6401,5.5901,5.5156,5.4108,5.3586,5.3118,5.2595,5.3028,5.3426,5.3658,5.3658,5.3568,5.3337,5.3319,5.3043,5.2444,5.2086,5.1688,5.1227,5.0437,5.0333,5.0808,5.0311,5.0235,2.8196,0.0,0.0,0.0,0.0,0.0,0.0,0.0,0.0,0.0,0.0,0.0,0.0,0.0,0.0,0.0,0.0,0.0,0.0,0.0,0.0,0.0,0.0,0.0,0.0,0.0,0.0,0.0,0.0,0.0,0.0,0.0,0.0,0.0,0.0,0.0,0.0,0.0,0.0,4.7723,4.7723,4.7473,4.7045,4.8151,4.8294,4.7705,4.7544,4.8276,4.9603,4.9894,4.9555,4.8871,4.8871,4.8764,4.8722,4.9353,4.9448,4.9471,5.078,5.1226,5.128,5.1601,5.1703,5.1703,5.1703,5.1703,5.1703,5.1703,5.1703,5.1703,5.1703,5.2636,5.3528,5.3367,5.4545,5.5544,5.5049,5.5723,5.6258,5.5776,5.6062,5.6401,5.6401,5.6401,5.6401,5.6401,5.6401,5.6401,5.6401,5.5705,5.5013,5.4532,5.4193,5.3818,5.3367,5.3747,5.4126,5.446,5.4478,5.4621,5.4942,5.4335,5.3748,5.3193,5.2985,5.2539,5.1885,5.1353,5.119,5.1353,5.0995,5.0967,0.0,0.0,0.0,0.0,0.0,0.0,0.0,0.0,0.0,0.0,0.0,0.0,0.0,0.0,0.0,0.0,0.0,0.0,0.0,0.0,0.0,0.0,0.0,0.0,0.0,0.0,0.0,0.0,0.0,0.0,0.0,0.0,0.0,0.0,0.0,0.0,0.0,0.0,0.0,0.0,4.7009,4.7009,4.7045,4.8449,4.8336,4.7045,4.7859,4.8163,4.8163,4.8966,4.8871,4.8199,4.8199,4.8615,4.9127,4.8455,4.8669,4.943,5.0215,5.0548,5.0727,5.1458,5.1703,5.1703,5.1703,5.1703,5.1703,5.1703,5.1703,5.1703,5.1703,5.2345,5.3166,5.3836,5.5174,5.6311,5.6383,5.6401,5.6401,5.6401,5.6401,5.6401,5.6401,5.6401,5.6401,5.6401,5.6401,5.6401,5.6401,5.5758,5.5294,5.521,5.4603,5.4193,5.4108,5.4193,5.4532,5.5263,5.5299,5.5651,5.6365,5.4996,5.4074,5.3747,5.3692,5.3324,5.2641,5.2536,5.2183,5.161,5.1559,5.1406,0.0,0.0,0.0,0.0,0.0,0.0,0.0,0.0,0.0,0.0,0.0,0.0,0.0,0.0,0.0,0.0,0.0,0.0,0.0,0.0,0.0,0.0,0.0,0.0,0.0,0.0,0.0,0.0,0.0,0.0,0.0,0.0,0.0,0.0,0.0,0.0,4.6991,4.6373,4.6373,0.0,4.7009,4.7009,4.7009,4.7348,4.7301,4.7045,4.7859,4.7841,4.7366,4.8734,4.8871,4.8199,4.8199,4.8306,4.8419,4.827,4.8669,4.943,5.0215,5.0905,5.1458,5.1637,5.1703,5.1703,5.1703,5.1703,5.1703,5.1703,5.1703,5.1703,5.1703,5.2725,5.38,5.3948,5.4746,5.5633,5.6258,5.6401,5.6401,5.6401,5.6401,5.6401,5.6401,5.6401,5.6401,5.6401,5.6401,5.6401,5.6401,5.624,5.5901,5.5263,5.5616,5.5633,5.4996,5.5526,5.5955,5.6133,5.6133,5.6222,5.6383,5.6062,5.5571,5.4879,5.4342,5.3748,5.3073,5.2522,5.2084,5.1752,5.1733,5.1538,0.0,0.0,0.0,0.0,0.0,0.0,0.0,0.0,0.0,0.0,0.0,0.0,0.0,0.0,0.0,0.0,0.0,0.0,0.0,0.0,0.0,0.0,0.0,0.0,0.0,0.0,0.0,0.0,0.0,0.0,0.0,0.0,0.0,0.0,0.0,0.0,4.6409,4.6016,4.6195,4.7009,4.7009,4.6813,4.6444,4.683,4.7009,4.7027,4.7437,4.7384,4.7098,4.8282,4.8544,4.8199,4.8199,4.8199,4.8145,4.777,4.8115,4.8889,4.9662,5.0447,5.1191,5.1565,5.1703,5.1703,5.1703,5.1703,5.1703,5.1703,5.1703,5.1703,5.1703,5.2582,5.3564,5.3925,5.4906,5.5901,5.6311,5.6401,5.6401,5.6401,5.6401,5.6401,5.6401,5.6401,5.6401,5.6401,5.6401,5.6401,5.6401,5.6401,5.624,5.583,5.6151,5.6222,5.5812,5.6151,5.6401,5.6401,5.6401,5.6401,5.6401,5.6401,5.6204,5.5776,5.5108,5.4446,5.3772,5.2905,5.226,5.1813,5.1594,5.1408,0.0,0.0,0.0,0.0,0.0,0.0,0.0,0.0,0.0,0.0,0.0,0.0,0.0,0.0,0.0,0.0,0.0,0.0,0.0,0.0,0.0,0.0,0.0,0.0,0.0,0.0,0.0,0.0,0.0,0.0,0.0,0.0,0.0,0.0,0.0,4.4792,4.5588,4.547,4.5873,4.6795,4.6795,4.6444,4.582,4.6355,4.6659,4.6795,4.6795,4.6866,4.7045,4.7723,4.7984,4.7984,4.7984,4.7984,4.7913,4.7241,4.7509,4.8288,4.8907,4.9715,5.0607,5.128,5.1596,5.1703,5.1703,5.1703,5.1703,5.1703,5.1703,5.1703,5.1703,5.2292,5.3095,5.3818,5.512,5.6222,5.6365,5.6401,5.6401,5.6401,5.6401,5.6401,5.6401,5.6401,5.6401,5.6401,5.6401,5.6401,5.6401,5.6401,5.6401,5.6401,5.6401,5.6401,5.6401,5.6401,5.6401,5.6401,5.6401,5.6342,5.6227,5.6231,5.6172,5.6074,5.5519,5.4903,5.4232,5.323,5.2415,5.1796,5.1464,5.1277,0.0,0.0,0.0,0.0,0.0,0.0,0.0,0.0,0.0,0.0,0.0,0.0,0.0,0.0,0.0,0.0,0.0,0.0,0.0,0.0,0.0,0.0,0.0,0.0,0.0,0.0,0.0,0.0,0.0,0.0,0.0,0.0,4.4246,4.3525,4.3597,0.0,4.4756,4.4132,4.4524,4.5963,4.5963,4.5909,4.5784,4.5184,4.5291,4.5963,4.5963,4.6355,4.7009,4.7116,4.717,4.717,4.717,4.717,4.7152,4.7045,4.7509,4.8216,4.8323,4.9281,5.0518,5.0637,5.1137,5.1703,5.1703,5.1703,5.1703,5.1703,5.1703,5.1703,5.1703,5.2292,5.3095,5.3818,5.4692,5.5562,5.624,5.6401,5.6401,5.6401,5.6401,5.6401,5.6401,5.6401,5.6401,5.6401,5.6401,5.6401,5.6401,5.6401,5.6401,5.6401,5.6401,5.6401,5.6401,5.6401,5.6401,5.6401,5.6401,5.6144,5.5563,5.5534,5.5251,5.4672,5.4579,5.42,5.3533,5.28,5.2232,5.1796,5.1741,5.1629,0.0,0.0,0.0,0.0,0.0,0.0,0.0,0.0,0.0,0.0,0.0,0.0,0.0,0.0,0.0,0.0,0.0,0.0,0.0,0.0,0.0,0.0,0.0,0.0,0.0,0.0,0.0,0.0,0.0,0.0,0.0,4.2697,4.2751,4.1528,4.2358,0.0,4.3304,4.3436,4.4043,4.5131,4.5577,4.5356,4.4489,4.415,4.4649,4.5802,4.5802,4.6266,4.7009,4.7009,4.7009,4.7009,4.7009,4.7009,4.7009,4.7009,4.7509,4.8199,4.8199,4.9204,5.0513,5.0513,5.1048,5.1703,5.1703,5.1703,5.1703,5.1703,5.1703,5.181,5.2256,5.2631,5.3202,5.4389,5.4942,5.5419,5.6222,5.6401,5.6401,5.6401,5.6401,5.6401,5.6401,5.6401,5.6401,5.6401,5.6401,5.6401,5.6401,5.6401,5.6401,5.6401,5.6401,5.6401,5.6401,5.6401,5.6401,5.6401,5.606,5.5711,5.5399,5.5041,5.4532,5.3862,5.3846,5.3698,5.3399,5.2606,5.2139,5.1959,5.1851,5.1741,0.0,0.0,0.0,0.0,0.0,0.0,0.0,0.0,0.0,0.0,0.0,0.0,0.0,0.0,0.0,0.0,0.0,0.0,0.0,0.0,0.0,0.0,0.0,0.0,0.0,0.0,0.0,0.0,0.0,0.0,4.0842,4.1359,4.1145,3.994,4.1252,4.1994,4.1994,4.3169,4.3971,4.4328,4.5113,4.4792,4.3508,4.3508,4.4132,4.5231,4.5398,4.607,4.7009,4.7009,4.7009,4.7009,4.7009,4.7009,4.7009,4.7009,4.7384,4.7895,4.7895,4.8776,4.9942,5.0126,5.0744,5.1422,5.1649,5.1703,5.1703,5.1703,5.1703,5.1899,5.2684,5.2911,5.3291,5.483,5.5192,5.5419,5.6222,5.6401,5.6401,5.6401,5.6401,5.6401,5.6401,5.6401,5.6401,5.6401,5.6401,5.6401,5.6401,5.6401,5.6401,5.6401,5.6401,5.6401,5.6401,5.6401,5.6328,5.6158,5.5682,5.5251,5.4903,5.4407,5.383,5.3145,5.3162,5.3162,5.3128,5.2499,5.2157,5.2102,5.1941,5.1886,0.0,0.0,0.0,0.0,0.0,0.0,0.0,0.0,0.0,0.0,0.0,0.0,0.0,0.0,0.0,0.0,0.0,0.0,0.0,0.0,0.0,0.0,0.0,0.0,0.0,0.0,0.0,0.0,0.0,0.0,4.0011,3.9993,3.9993,3.9904,4.0717,4.1163,4.1163,4.3418,4.4221,4.3579,4.431,4.4257,4.3508,4.3508,4.3543,4.3668,4.4364,4.5541,4.7009,4.7009,4.7009,4.7009,4.7009,4.7009,4.7009,4.7009,4.7027,4.7062,4.7062,4.7616,4.8419,4.9145,4.9912,5.0696,5.1458,5.1703,5.1703,5.1703,5.1703,5.1899,5.2684,5.2911,5.3291,5.483,5.5192,5.5419,5.6222,5.6401,5.6401,5.6401,5.6401,5.6401,5.6401,5.6401,5.6401,5.6401,5.6401,5.6401,5.6401,5.6401,5.6401,5.6401,5.6401,5.6401,5.6401,5.6401,5.613,5.5505,5.5414,5.4826,5.3566,5.3466,5.3145,5.2463,5.2445,5.2445,5.2445,5.2408,5.2301,5.2102,5.2084,5.2084,0.0,0.0,0.0,0.0,0.0,0.0,0.0,0.0,0.0,0.0,0.0,0.0,0.0,0.0,0.0,0.0,0.0,0.0,0.0,0.0,0.0,0.0,0.0,0.0,0.0,0.0,0.0,0.0,0.0,0.0,3.9262,3.9637,3.944,3.846,3.9664,4.0332,4.0332,4.2705,4.324,4.1984,4.3276,4.349,4.2744,4.2744,4.3268,4.4221,4.4489,4.522,4.6266,4.6795,4.7009,4.7009,4.7009,4.7009,4.7009,4.7009,4.7009,4.7009,4.7009,4.7526,4.8312,4.9055,4.984,5.0655,5.1458,5.1703,5.1703,5.1703,5.1703,5.1899,5.2684,5.2911,5.3291,5.483,5.5598,5.6044,5.6329,5.6401,5.6401,5.6401,5.6401,5.6401,5.6401,5.6401,5.6401,5.6401,5.6401,5.6401,5.6401,5.6401,5.6401,5.6401,5.6401,5.6401,5.6401,5.6,5.5668,5.5432,5.4595,5.3911,5.3416,5.299,5.2658,5.2391,5.2391,5.2391,5.2391,5.2391,5.2356,5.2301,5.2301,5.2301,0.0,0.0,0.0,0.0,0.0,0.0,0.0,0.0,0.0,0.0,0.0,0.0,0.0,0.0,0.0,0.0,0.0,0.0,0.0,0.0,0.0,0.0,0.0,0.0,0.0,0.0,0.0,0.0,0.0,0.0,3.8469,3.8861,3.879,3.8032,3.8995,3.9655,3.9904,4.2027,4.2287,4.0717,4.2598,4.2947,4.1923,4.2458,4.3268,4.4239,4.4489,4.5202,4.6248,4.6777,4.7009,4.7009,4.7009,4.7009,4.7009,4.7009,4.7009,4.7009,4.7009,4.7348,4.7955,4.8966,4.9662,5.0304,5.1369,5.1703,5.1703,5.1703,5.1703,5.194,5.2993,5.3666,5.4273,5.5027,5.5812,5.6401,5.6401,5.6401,5.6401,5.6401,5.6401,5.6401,5.6401,5.6401,5.6401,5.6401,5.6401,5.6401,5.6401,5.6401,5.6401,5.6401,5.6401,5.6401,5.6401,5.5783,5.5296,5.5087,5.4025,5.3298,5.3076,5.264,5.2391,5.2391,5.2391,5.2391,5.2391,5.2391,5.2391,5.2391,5.2391,5.2391,0.0,0.0,0.0,0.0,0.0,0.0,0.0,0.0,0.0,0.0,0.0,0.0,0.0,0.0,0.0,0.0,0.0,0.0,0.0,0.0,0.0,0.0,0.0,0.0,0.0,0.0,0.0,0.0,0.0,3.8469,3.7648,3.7595,3.7961,3.8745,3.878,3.9137,3.9833,4.1441,4.1459,3.994,4.2295,4.2616,4.1199,4.2776,4.3508,4.3543,4.4275,4.5499,4.6973,4.6973,4.6973,4.7009,4.7009,4.7009,4.7009,4.7009,4.7009,4.7009,4.7009,4.7009,4.7259,4.877,4.9275,4.9608,5.1173,5.1685,5.1703,5.1703,5.1703,5.2047,5.3568,5.5156,5.6169,5.5388,5.5812,5.6401,5.6401,5.6401,5.6401,5.6401,5.6401,5.6401,5.6401,5.6401,5.6401,5.6401,5.6401,5.6401,5.6401,5.6401,5.6401,5.6401,5.6401,5.6401,5.6401,5.5783,5.5132,5.4469,5.378,5.3111,5.2463,5.2409,5.2391,5.2391,5.2391,5.2391,5.2391,5.2391,5.2391,5.2391,5.2391,5.2391,2.7489,0.0,0.0,0.0,0.0,0.0,0.0,0.0,0.0,0.0,0.0,0.0,0.0,0.0,0.0,0.0,0.0,0.0,0.0,0.0,0.0,0.0,0.0,0.0,0.0,0.0,0.0,0.0,0.0,3.9022,3.7666,3.7595,3.7693,3.7925,3.8504,3.8629,3.8246,3.9789,4.0332,3.9922,4.1171,4.1841,4.1994,4.3036,4.3508,4.3543,4.4275,4.5184,4.6123,4.6123,4.6462,4.7009,4.7009,4.7009,4.7009,4.7009,4.7009,4.7009,4.7009,4.7009,4.717,4.8187,4.8871,4.9501,5.0518,5.1244,5.1703,5.1703,5.1703,5.1935,5.2952,5.4367,5.5491,5.5245,5.5812,5.6401,5.6401,5.6401,5.6401,5.6401,5.6401,5.6401,5.6401,5.6401,5.6401,5.6401,5.6401,5.6401,5.6401,5.6401,5.6401,5.6401,5.6401,5.6401,5.6401,5.5783,5.5311,5.5147,5.4024,5.3315,5.3128,5.2676,5.2391,5.2391,5.2391,5.2391,5.2391,5.2391,5.2391,5.2391,5.2391,5.2391,0.0,0.0,0.0,0.0,0.0,0.0,0.0,3.1118,0.0,0.0,0.0,0.0,0.0,0.0,0.0,0.0,0.0,0.0,0.0,0.0,0.0,0.0,0.0,0.0,0.0,0.0,0.0,0.0,3.8888,3.8549,3.7648,3.7595,3.7595,3.7595,3.8041,3.8058,3.7595,3.8826,3.944,3.9458,4.0574,4.1341,4.1833,4.2626,4.3169,4.3508,4.3597,4.4453,4.5766,4.5434,4.5963,4.7009,4.7009,4.7009,4.7009,4.7009,4.7009,4.7009,4.7009,4.7009,4.7134,4.7949,4.8693,4.9448,5.0251,5.1066,5.1703,5.1703,5.2154,5.2618,5.2434,5.3778,5.512,5.4781,5.5299,5.599,5.6329,5.6401,5.6401,5.6401,5.6401,5.6401,5.6401,5.6401,5.6401,5.6401,5.6401,5.6401,5.6401,5.6401,5.6401,5.6401,5.6401,5.6401,5.6401,5.5783,5.5399,5.5399,5.4407,5.3682,5.3399,5.3025,5.2693,5.2408,5.2391,5.2391,5.2391,5.2391,5.2391,5.2391,5.2391,5.2391,0.0,0.0,0.0,0.0,0.0,0.0,3.0593,3.1189,3.1732,0.0,0.0,0.0,0.0,0.0,0.0,0.0,0.0,0.0,0.0,0.0,0.0,0.0,0.0,0.0,0.0,0.0,0.0,3.8611,3.7996,3.7648,3.7738,3.7648,3.7595,3.7595,3.7595,3.7595,3.7595,3.8308,3.8709,3.8816,4.0271,4.1002,4.1127,4.203,4.2769,4.3329,4.2708,4.3607,4.5499,4.4863,4.5541,4.7009,4.7009,4.7009,4.7009,4.7009,4.7009,4.7009,4.7009,4.7009,4.7116,4.783,4.8568,4.9305,5.0031,5.0852,5.1596,5.1672,5.2761,5.3551,5.219,5.3439,5.4906,5.4282,5.4674,5.5419,5.6222,5.6401,5.6401,5.6401,5.6401,5.6401,5.6401,5.6401,5.6401,5.6401,5.6401,5.6401,5.6401,5.6401,5.6401,5.6401,5.6401,5.6401,5.6401,5.584,5.5519,5.5519,5.4887,5.4216,5.355,5.3433,5.3127,5.2525,5.259,5.259,5.2507,5.2441,5.2391,5.2391,5.2391,5.2391,0.0,0.0,0.0,0.0,0.0,0.0,3.1171,3.1589,3.1875,0.0,0.0,0.0,0.0,0.0,0.0,0.0,0.0,0.0,0.0,0.0,0.0,0.0,0.0,0.0,0.0,0.0,3.6979,3.7764,3.7702,3.7871,3.8531,3.7961,3.7595,3.7595,3.7595,3.7595,3.7595,3.7764,3.8148,3.8816,3.9708,4.0475,4.1145,4.2608,4.3001,4.2565,4.3054,4.3525,4.3971,4.4417,4.5541,4.7009,4.7009,4.7009,4.7009,4.7009,4.7009,4.7009,4.7009,4.7009,4.7027,4.7187,4.7759,4.8437,4.8609,4.9632,5.0869,5.1524,5.2381,5.3041,5.2738,5.3457,5.4371,5.4853,5.5085,5.5419,5.6222,5.6401,5.6401,5.6401,5.6401,5.6401,5.6401,5.6401,5.6401,5.6401,5.6401,5.6401,5.6401,5.6401,5.6401,5.6401,5.6401,5.6401,5.6401,5.6286,5.6199,5.6199,5.5578,5.4903,5.4232,5.3682,5.3345,5.3202,5.3798,5.3796,5.3202,5.2673,5.2391,5.2391,5.2391,5.2391,0.0,0.0,0.0,2.9754,0.0,0.0,0.0,3.1403,3.1821,0.0,0.0,0.0,0.0,0.0,0.0,0.0,0.0,0.0,0.0,0.0,0.0,0.0,0.0,0.0,0.0,0.0,3.6729,3.7541,3.7595,3.7782,3.8183,3.7818,3.7595,3.7595,3.7595,3.7595,3.7595,3.7595,3.8193,3.9351,3.9726,4.0529,4.1726,4.2519,4.268,4.2333,4.3151,4.3508,4.3597,4.4721,4.5666,4.6444,4.6848,4.7009,4.7009,4.7009,4.7009,4.7009,4.7009,4.7009,4.7009,4.7009,4.7544,4.827,4.8651,4.9852,5.1262,5.2077,5.2577,5.297,5.335,5.3711,5.4211,5.5013,5.5192,5.5419,5.6222,5.6401,5.6401,5.6401,5.6401,5.6401,5.6401,5.6401,5.6401,5.6401,5.6401,5.6401,5.6401,5.6401,5.6401,5.6401,5.6401,5.6401,5.6401,5.6401,5.6401,5.6401,5.607,5.5461,5.4438,5.4072,5.3585,5.2905,5.3268,5.3268,5.2904,5.2557,5.2391,5.2391,5.2391,5.259,0.0,0.0,0.0,0.0,0.0,3.1564,0.0,0.0,0.0,3.1928,0.0,0.0,0.0,0.0,0.0,0.0,0.0,0.0,0.0,0.0,0.0,0.0,0.0,0.0,0.0,0.0,3.6676,3.7318,3.7506,3.7595,3.7595,3.7595,3.7595,3.7595,3.7595,3.7595,3.7595,3.7595,3.829,3.969,3.969,4.0521,4.2065,4.2065,4.2155,4.2333,4.2983,4.3258,4.3383,4.4917,4.557,4.5659,4.6634,4.7009,4.7009,4.7009,4.7009,4.7009,4.7009,4.7009,4.7009,4.7009,4.7544,4.833,4.9073,5.0334,5.1649,5.2434,5.2666,5.2809,5.339,5.3675,5.3997,5.4781,5.5085,5.5419,5.6222,5.6401,5.6401,5.6401,5.6401,5.6401,5.6401,5.6401,5.6401,5.6401,5.6401,5.6401,5.6401,5.6401,5.6401,5.6401,5.6401,5.6401,5.6401,5.6401,5.6401,5.6401,5.6401,5.5854,5.4641,5.4603,5.3972,5.2608,5.3004,5.3087,5.2806,5.2806,5.2739,5.259,5.2458,5.2754,0.0,0.0,0.0,0.0,3.1625,0.0,0.0,0.0,3.2757,3.2757,0.0,0.0,0.0,0.0,0.0,0.0,0.0,0.0,0.0,0.0,0.0,0.0,0.0,0.0,0.0,0.0,0.0,3.6533,3.7193,3.7595,3.7595,3.7595,3.7595,3.7595,3.7595,3.7595,3.7595,3.7595,3.805,3.8923,3.8923,3.9744,4.1234,4.1234,4.1637,4.2297,4.2404,4.244,4.2565,4.4096,4.4738,4.4899,4.6409,4.7009,4.7009,4.7009,4.7009,4.7009,4.7009,4.7009,4.7009,4.7009,4.7544,4.833,4.9073,4.9929,5.0798,5.1613,5.1845,5.1863,5.194,5.2488,5.322,5.3961,5.4674,5.5419,5.6222,5.6401,5.6401,5.6401,5.6401,5.6401,5.6401,5.6401,5.6401,5.6401,5.6401,5.6401,5.6401,5.6401,5.6401,5.6401,5.6401,5.6401,5.6401,5.6401,5.6401,5.6401,5.6401,5.6074,5.5311,5.534,5.4708,5.3301,5.5206,5.557,5.426,5.426,5.3929,5.3266,5.269,5.2754,0.0,0.0,0.0,0.0,0.0,0.0,0.0,0.0,3.29,0.0,0.0,0.0,0.0,0.0,0.0,0.0,0.0,0.0,0.0,0.0,0.0,0.0,0.0,0.0,0.0,0.0,0.0,0.0,0.0,3.6399,3.689,3.6908,3.7122,3.7595,3.7595,3.7595,3.7595,3.7595,3.7996,3.8798,3.8798,3.9601,4.1092,4.1092,4.1548,4.2333,4.2787,4.2733,4.2458,4.4482,4.5024,4.4756,4.6373,4.7009,4.7009,4.7009,4.7009,4.7009,4.7009,4.7009,4.7009,4.7009,4.7818,4.8907,4.9216,5.0179,5.1351,5.2167,5.206,5.1904,5.2801,5.3296,5.3729,5.4514,5.5299,5.599,5.6329,5.6401,5.6401,5.6401,5.6401,5.6401,5.6401,5.6401,5.6401,5.6401,5.6401,5.6401,5.6401,5.6401,5.6401,5.6401,5.6401,5.6401,5.6401,5.6401,5.6401,5.6401,5.5682,5.5309,5.5456,5.433,5.3609,5.3399,5.4311,5.4494,5.3862,5.4293,5.4343,5.4011,5.2904,5.2986,3.1875,0.0,0.0,0.0,0.0,0.0,0.0,0.0,0.0,0.0,0.0,0.0,0.0,0.0,0.0,0.0,0.0,0.0,0.0,0.0,0.0,0.0,0.0,0.0,0.0,0.0,0.0,0.0,3.5088,0.0,3.6363,3.6399,3.6765,3.7577,3.7595,3.7595,3.7595,3.7595,3.7996,3.8798,3.8798,3.9601,4.1092,4.1092,4.1548,4.2333,4.2912,4.284,4.2458,4.4375,4.4935,4.4738,4.6123,4.6813,4.7009,4.7009,4.7009,4.7009,4.7009,4.7009,4.7009,4.7009,4.7907,4.9038,4.9252,5.0268,5.1542,5.2345,5.2149,5.1958,5.3069,5.3693,5.4157,5.4728,5.5651,5.6401,5.6401,5.6401,5.6401,5.6401,5.6401,5.6401,5.6401,5.6401,5.6401,5.6401,5.6401,5.6401,5.6401,5.6401,5.6401,5.6401,5.6401,5.649,5.6718,5.6539,5.6401,5.6401,5.5311,5.4821,5.5185,5.3939,5.3219,5.3135,5.3697,5.3796,5.3399,5.3945,5.4293,5.4475,5.3235,5.3334,0.0,0.0,0.0,0.0,0.0,0.0,0.0,0.0,3.3847,0.0,0.0,0.0,0.0,0.0,0.0,0.0,0.0,0.0,0.0,0.0,0.0,0.0,0.0,0.0,0.0,0.0,0.0,0.0,3.4803,0.0,3.6363,3.6399,3.6765,3.7577,3.7595,3.7595,3.7595,3.7595,3.7996,3.8798,3.8798,3.9601,4.1092,4.1092,4.1548,4.2297,4.2333,4.2315,4.2369,4.3222,4.3989,4.4685,4.5506,4.6302,4.7009,4.7009,4.7009,4.7009,4.7009,4.7009,4.7009,4.7009,4.7562,4.8365,4.9073,4.9876,5.0709,5.1512,5.1721,5.1708,5.1762,5.2886,5.4001,5.4019,5.5245,5.6401,5.6401,5.6401,5.6401,5.6401,5.6401,5.6401,5.6401,5.6401,5.6401,5.6401,5.6401,5.6401,5.6401,5.6401,5.6401,5.6401,5.6401,5.6718,5.7503,5.686,5.6401,5.6401,5.5754,5.5087,5.4457,5.506,5.4469,5.2475,5.4458,5.4839,5.3399,5.3415,5.3796,5.4475,5.3713,5.3763,0.0,0.0,3.3687,3.3687,0.0,0.0,0.0,0.0,0.0,0.0,0.0,0.0,0.0,0.0,0.0,0.0,0.0,0.0,0.0,0.0,0.0,0.0,0.0,0.0,0.0,0.0,0.0,3.3302,3.3534,3.4034,0.0,3.5338,3.5971,3.6783,3.7318,3.7595,3.7595,3.7595,3.7996,3.8798,3.8798,3.9601,4.1092,4.1092,4.1548,4.2297,4.2297,4.2297,4.2351,4.3179,4.3936,4.4685,4.5488,4.6284,4.7009,4.7009,4.7009,4.7009,4.7009,4.7009,4.7009,4.7009,4.7544,4.833,4.9073,4.9858,5.0673,5.1476,5.1703,5.1828,5.2363,5.3242,5.4126,5.4674,5.5616,5.6401,5.6401,5.6401,5.6401,5.6401,5.6401,5.6401,5.6401,5.6401,5.6401,5.6401,5.6401,5.6401,5.6401,5.6401,5.6401,5.6401,5.6401,5.6508,5.6789,5.6561,5.6401,5.6401,5.5769,5.5329,5.5132,5.4481,5.3782,5.3087,5.4243,5.4624,5.4127,5.4624,5.474,5.4492,5.4243,5.426,3.3713,3.4097,0.0,0.0,3.4499,0.0,0.0,0.0,0.0,0.0,0.0,0.0,0.0,0.0,0.0,0.0,0.0,0.0,0.0,0.0,0.0,0.0,0.0,0.0,0.0,0.0,3.29,3.29,3.29,3.3249,0.0,0.0,3.557,3.6363,3.7175,3.7595,3.7595,3.7595,3.7996,3.8798,3.9066,3.9851,4.1109,4.1395,4.1815,4.2297,4.2297,4.2297,4.2333,4.2858,4.3686,4.4649,4.5167,4.6034,4.7009,4.7009,4.7009,4.7009,4.7009,4.7009,4.7009,4.7009,4.7348,4.7919,4.8675,4.9448,5.0304,5.1387,5.1703,5.1953,5.301,5.364,5.4211,5.5013,5.5812,5.6401,5.6401,5.6401,5.6401,5.6401,5.6401,5.6401,5.6401,5.6401,5.6401,5.6401,5.6401,5.6401,5.6401,5.6401,5.6401,5.6401,5.6401,5.6401,5.6401,5.665,5.6686,5.6418,5.5769,5.5296,5.5115,5.4498,5.4168,5.4179,5.4657,5.4889,5.4889,5.4839,5.4442,5.3765,5.3995,5.4243]}]]